[[{"header":{"parameterUnit":"m.s-1","parameterCategory":1,"la1":30.6,"la2":28.766,"lo1":-90.7593,"lo2":-88.6598,"dx":0.0162,"dy":0.0183,"nx":116,"ny":114,"refTime":"2022-12-26T06:00:00:Z","depth":0,"parameterNumber":2,"parameterNumberName":"U-component_of_WINDS"},"data":[0.0,0.0,0.0,0.0,0.0,0.0,0.0,0.0,0.0,0.0,0.0,0.0,0.0,0.0,0.0,0.0,0.0,0.0,0.0,0.0,0.0,0.0,0.0,0.0,0.0,0.0,0.0,0.0,0.0,0.0,0.0,0.0,0.0,0.0,0.0,0.0,0.0,0.0,0.0,0.0,0.0,0.0,0.0,0.0,0.0,0.0,0.0,0.0,0.0,0.0,0.0,0.0,0.0,0.0,0.0,0.0,0.0,0.0,0.0,0.0,0.0,0.0,0.0,0.0,0.0,0.0,0.0,0.0,0.0,0.0,0.0,0.0,0.0,0.0,0.0,0.0,0.0,0.0,0.0,0.0,0.0,0.0,0.0,0.0,0.0,0.0,0.0,0.0,0.0,0.0,0.0,0.0,0.0,0.0,0.0,0.0,0.0,0.0,0.0,0.0,0.0,0.0,0.0,0.0,0.0,0.0,0.0,0.0,0.0,0.0,0.0,0.0,0.0,0.0,0.0,0.0,0.0,0.0,0.0,0.0,0.0,0.0,0.0,0.0,0.0,0.0,0.0,0.0,0.0,0.0,0.0,0.0,0.0,0.0,0.0,0.0,0.0,0.0,0.0,0.0,0.0,0.0,0.0,0.0,0.0,0.0,0.0,0.0,0.0,0.0,0.0,0.0,0.0,0.0,0.0,0.0,0.0,0.0,0.0,0.0,0.0,0.0,0.0,0.0,0.0,0.0,0.0,0.0,0.0,0.0,0.0,0.0,0.0,0.0,0.0,0.0,0.0,0.0,0.0,0.0,0.0,0.0,0.0,0.0,0.0,0.0,0.0,0.0,0.0,0.0,0.0,0.0,0.0,0.0,0.0,0.0,0.0,0.0,0.0,0.0,0.0,0.0,0.0,0.0,0.0,0.0,0.0,0.0,0.0,0.0,0.0,0.0,0.0,0.0,0.0,0.0,0.0,0.0,0.0,0.0,0.0,0.0,0.0,0.0,0.0,0.0,0.0,0.0,0.0,0.0,0.0,0.0,0.0,0.0,0.0,0.0,0.0,0.0,0.0,0.0,0.0,0.0,0.0,0.0,0.0,0.0,0.0,0.0,0.0,0.0,0.0,0.0,0.0,0.0,0.0,0.0,0.0,0.0,0.0,0.0,0.0,0.0,0.0,0.0,0.0,0.0,0.0,0.0,0.0,0.0,0.0,0.0,0.0,0.0,0.0,0.0,0.0,0.0,0.0,0.0,0.0,0.0,0.0,0.0,0.0,0.0,0.0,0.0,0.0,0.0,0.0,0.0,0.0,0.0,0.0,0.0,0.0,0.0,0.0,0.0,0.0,0.0,0.0,0.0,0.0,0.0,0.0,0.0,0.0,0.0,0.0,0.0,0.0,0.0,0.0,0.0,0.0,0.0,0.0,0.0,0.0,0.0,0.0,0.0,0.0,0.0,0.0,0.0,0.0,0.0,0.0,0.0,0.0,0.0,0.0,0.0,0.0,0.0,0.0,0.0,0.0,0.0,0.0,0.0,0.0,0.0,0.0,0.0,0.0,0.0,0.0,0.0,0.0,0.0,0.0,0.0,0.0,0.0,0.0,0.0,0.0,0.0,0.0,0.0,0.0,0.0,0.0,0.0,0.0,0.0,0.0,0.0,0.0,0.0,0.0,0.0,0.0,0.0,0.0,0.0,0.0,0.0,0.0,0.0,0.0,0.0,0.0,0.0,0.0,0.0,0.0,0.0,0.0,0.0,0.0,0.0,0.0,0.0,0.0,0.0,0.0,0.0,0.0,0.0,0.0,0.0,0.0,0.0,0.0,0.0,0.0,0.0,0.0,0.0,0.0,0.0,0.0,0.0,0.0,0.0,0.0,0.0,0.0,0.0,0.0,0.0,0.0,0.0,0.0,0.0,0.0,0.0,0.0,0.0,0.0,0.0,0.0,0.0,0.0,0.0,0.0,0.0,0.0,0.0,0.0,0.0,0.0,0.0,0.0,0.0,0.0,0.0,0.0,0.0,0.0,0.0,0.0,0.0,0.0,0.0,0.0,0.0,0.0,0.0,0.0,0.0,0.0,0.0,0.0,0.0,0.0,0.0,0.0,0.0,0.0,0.0,0.0,0.0,0.0,0.0,0.0,0.0,0.0,0.0,0.0,0.0,0.0,0.0,0.0,0.0,0.0,0.0,0.0,0.0,0.0,0.0,0.0,0.0,0.0,0.0,0.0,0.0,0.0,0.0,0.0,0.0,0.0,0.0,0.0,0.0,0.0,0.0,0.0,0.0,0.0,0.0,0.0,0.0,0.0,0.0,0.0,0.0,0.0,0.0,0.0,0.0,0.0,0.0,0.0,0.0,0.0,0.0,0.0,0.0,0.0,0.0,0.0,0.0,0.0,0.0,0.0,0.0,0.0,0.0,0.0,0.0,0.0,0.0,0.0,0.0,0.0,0.0,0.0,0.0,0.0,0.0,0.0,0.0,0.0,0.0,0.0,0.0,0.0,0.0,0.0,0.0,0.0,0.0,0.0,0.0,0.0,0.0,0.0,0.0,0.0,0.0,0.0,0.0,0.0,0.0,0.0,0.0,0.0,0.0,0.0,0.0,0.0,0.0,0.0,0.0,0.0,0.0,0.0,0.0,0.0,0.0,0.0,0.0,0.0,0.0,0.0,0.0,0.0,0.0,0.0,0.0,0.0,0.0,0.0,0.0,0.0,0.0,0.0,0.0,0.0,0.0,0.0,0.0,0.0,0.0,0.0,0.0,0.0,0.0,0.0,0.0,0.0,0.0,0.0,0.0,0.0,0.0,0.0,0.0,0.0,0.0,0.0,0.0,0.0,0.0,0.0,0.0,0.0,0.0,0.0,0.0,0.0,0.0,0.0,0.0,0.0,0.0,0.0,0.0,0.0,0.0,0.0,0.0,0.0,0.0,0.0,0.0,0.0,0.0,0.0,0.0,0.0,0.0,0.0,0.0,0.0,0.0,0.0,0.0,0.0,0.0,0.0,0.0,0.0,0.0,0.0,0.0,0.0,0.0,0.0,0.0,0.0,0.0,0.0,0.0,0.0,0.0,0.0,0.0,0.0,0.0,0.0,0.0,0.0,0.0,0.0,0.0,0.0,0.0,0.0,0.0,0.0,0.0,0.0,0.0,0.0,0.0,0.0,0.0,0.0,0.0,0.0,0.0,0.0,0.0,0.0,0.0,0.0,0.0,0.0,0.0,0.0,0.0,0.0,0.0,0.0,0.0,0.0,0.0,0.0,0.0,0.0,0.0,0.0,0.0,0.0,0.0,0.0,0.0,0.0,0.0,0.0,0.0,0.0,0.0,0.0,0.0,0.0,0.0,0.0,0.0,0.0,0.0,0.0,0.0,0.0,0.0,0.0,0.0,0.0,0.0,0.0,0.0,0.0,0.0,0.0,0.0,0.0,0.0,0.0,0.0,0.0,0.0,0.0,0.0,0.0,0.0,0.0,0.0,0.0,0.0,0.0,0.0,0.0,0.0,0.0,0.0,0.0,0.0,0.0,0.0,0.0,0.0,0.0,0.0,0.0,0.0,0.0,0.0,0.0,0.0,0.0,0.0,0.0,0.0,0.0,0.0,0.0,0.0,0.0,0.0,0.0,0.0,0.0,0.0,0.0,0.0,0.0,0.0,0.0,0.0,0.0,0.0,0.0,0.0,0.0,0.0,0.0,0.0,0.0,0.0,0.0,0.0,0.0,0.0,0.0,0.0,0.0,0.0,0.0,0.0,0.0,0.0,0.0,0.0,0.0,0.0,0.0,0.0,0.0,0.0,0.0,0.0,0.0,0.0,0.0,0.0,0.0,0.0,0.0,0.0,0.0,0.0,0.0,0.0,0.0,0.0,0.0,0.0,0.0,0.0,0.0,0.0,0.0,0.0,0.0,0.0,0.0,0.0,0.0,0.0,0.0,0.0,0.0,0.0,0.0,0.0,0.0,0.0,0.0,0.0,0.0,0.0,0.0,0.0,0.0,0.0,0.0,0.0,0.0,0.0,0.0,0.0,0.0,0.0,0.0,0.0,0.0,0.0,0.0,0.0,0.0,0.0,0.0,0.0,0.0,0.0,0.0,0.0,0.0,0.0,0.0,0.0,0.0,0.0,0.0,0.0,0.0,0.0,0.0,0.0,0.0,0.0,0.0,0.0,0.0,0.0,0.0,0.0,0.0,0.0,0.0,0.0,0.0,0.0,0.0,0.0,0.0,0.0,0.0,0.0,0.0,0.0,0.0,0.0,0.0,0.0,0.0,0.0,0.0,0.0,0.0,0.0,0.0,0.0,0.0,0.0,0.0,0.0,0.0,0.0,0.0,0.0,0.0,0.0,0.0,0.0,0.0,0.0,0.0,0.0,0.0,0.0,0.0,0.0,0.0,0.0,0.0,0.0,0.0,0.0,0.0,0.0,0.0,0.0,0.0,0.0,0.0,0.0,0.0,0.0,0.0,0.0,0.0,0.0,0.0,0.0,0.0,0.0,0.0,0.0,0.0,0.0,0.0,0.0,0.0,0.0,0.0,0.0,0.0,0.0,0.0,0.0,0.0,0.0,0.0,0.0,0.0,0.0,0.0,0.0,0.0,0.0,0.0,0.0,0.0,0.0,0.0,0.0,0.0,0.0,0.0,0.0,0.0,0.0,0.0,0.0,0.0,0.0,0.0,0.0,0.0,0.0,0.0,0.0,0.0,0.0,0.0,0.0,0.0,0.0,0.0,0.0,0.0,0.0,0.0,0.0,0.0,0.0,0.0,0.0,0.0,0.0,0.0,0.0,0.0,0.0,0.0,0.0,0.0,0.0,0.0,0.0,0.0,0.0,0.0,0.0,0.0,0.0,0.0,0.0,0.0,0.0,0.0,0.0,0.0,0.0,0.0,0.0,0.0,0.0,0.0,0.0,0.0,0.0,0.0,0.0,0.0,0.0,0.0,0.0,0.0,0.0,0.0,0.0,0.0,0.0,0.0,0.0,0.0,0.0,0.0,0.0,0.0,0.0,0.0,0.0,0.0,0.0,0.0,0.0,0.0,0.0,0.0,0.0,0.0,0.0,0.0,0.0,0.0,0.0,0.0,0.0,0.0,0.0,0.0,0.0,0.0,0.0,0.0,0.0,0.0,0.0,0.0,0.0,0.0,0.0,0.0,0.0,0.0,0.0,0.0,0.0,0.0,0.0,0.0,0.0,0.0,0.0,0.0,0.0,0.0,0.0,0.0,0.0,0.0,0.0,0.0,0.0,0.0,0.0,0.0,0.0,0.0,0.0,0.0,0.0,0.0,0.0,0.0,0.0,0.0,0.0,0.0,0.0,0.0,0.0,0.0,0.0,0.0,0.0,0.0,0.0,0.0,0.0,0.0,0.0,0.0,0.0,0.0,0.0,0.0,0.0,0.0,0.0,0.0,0.0,0.0,0.0,0.0,0.0,0.0,0.0,0.0,0.0,0.0,0.0,0.0,0.0,0.0,0.0,0.0,0.0,0.0,0.0,0.0,0.0,0.0,0.0,0.0,0.0,0.0,0.0,0.0,0.0,0.0,0.0,0.0,0.0,0.0,0.0,0.0,0.0,0.0,0.0,0.0,0.0,0.0,0.0,0.0,0.0,0.0,0.0,0.0,0.0,0.0,0.0,0.0,0.0,0.0,0.0,0.0,0.0,0.0,0.0,0.0,0.0,0.0,0.0,0.0,0.0,0.0,0.0,0.0,0.0,0.0,0.0,0.0,0.0,0.0,0.0,0.0,0.0,0.0,0.0,0.0,0.0,0.0,0.0,0.0,0.0,0.0,0.0,0.0,0.0,0.0,0.0,0.0,0.0,0.0,0.0,0.0,0.0,0.0,0.0,0.0,0.0,0.0,0.0,0.0,0.0,0.0,0.0,0.0,0.0,0.0,0.0,0.0,0.0,0.0,0.0,0.0,0.0,0.0,0.0,0.0,0.0,0.0,0.0,0.0,0.0,0.0,0.0,0.0,0.0,0.0,0.0,0.0,0.0,0.0,0.0,0.0,0.0,0.0,0.0,0.0,0.0,0.0,0.0,0.0,0.0,0.0,0.0,0.0,0.0,0.0,0.0,0.0,0.0,0.0,0.0,0.0,0.0,0.0,0.0,-2.9082,0.0,0.0,0.0,0.0,0.0,0.0,0.0,0.0,0.0,0.0,0.0,0.0,0.0,0.0,0.0,0.0,0.0,0.0,0.0,0.0,0.0,0.0,0.0,0.0,0.0,0.0,0.0,0.0,0.0,0.0,0.0,0.0,0.0,0.0,0.0,0.0,0.0,-2.5435,-2.6756,-2.7344,-2.875,-3.0859,-2.9704,-2.8172,-2.633,0.0,0.0,0.0,0.0,0.0,0.0,0.0,0.0,0.0,0.0,0.0,0.0,0.0,0.0,0.0,0.0,0.0,0.0,0.0,0.0,0.0,0.0,0.0,0.0,0.0,0.0,0.0,0.0,0.0,0.0,0.0,0.0,0.0,0.0,0.0,0.0,0.0,0.0,0.0,0.0,0.0,0.0,0.0,0.0,0.0,0.0,0.0,0.0,0.0,0.0,0.0,0.0,0.0,0.0,0.0,0.0,0.0,0.0,0.0,0.0,0.0,0.0,0.0,0.0,0.0,0.0,0.0,0.0,0.0,0.0,0.0,-2.9961,0.0,0.0,0.0,0.0,0.0,0.0,0.0,0.0,0.0,0.0,0.0,0.0,0.0,0.0,0.0,0.0,0.0,0.0,0.0,0.0,0.0,0.0,0.0,0.0,-2.4356,-2.4876,-2.4456,-2.4406,0.0,0.0,0.0,0.0,0.0,0.0,0.0,0.0,-2.7017,-2.9314,-3.0407,-3.2056,-3.4205,-3.4508,-3.2791,-2.9319,-2.7694,0.0,0.0,0.0,0.0,0.0,0.0,0.0,0.0,0.0,0.0,0.0,0.0,0.0,0.0,0.0,0.0,0.0,0.0,0.0,0.0,0.0,0.0,0.0,0.0,0.0,0.0,0.0,0.0,0.0,0.0,0.0,0.0,0.0,0.0,0.0,0.0,0.0,0.0,0.0,0.0,0.0,0.0,0.0,0.0,0.0,0.0,0.0,0.0,0.0,0.0,0.0,0.0,0.0,0.0,0.0,0.0,0.0,0.0,0.0,0.0,0.0,0.0,0.0,-3.2695,-3.2871,-3.3144,-3.3496,-3.4238,-3.5156,-3.3008,-3.2226,-3.2402,-3.125,0.0,0.0,0.0,0.0,0.0,0.0,0.0,0.0,0.0,0.0,0.0,0.0,0.0,0.0,0.0,0.0,0.0,0.0,0.0,0.0,0.0,-2.433,-2.4933,-2.546,-2.5008,-2.5159,0.0,0.0,0.0,0.0,0.0,0.0,0.0,-2.7017,-2.8373,-3.106,-3.4092,-3.5437,-3.5307,-3.4848,-3.4559,-3.4438,-3.1917,0.0,0.0,0.0,0.0,0.0,0.0,0.0,0.0,0.0,0.0,0.0,0.0,0.0,0.0,0.0,0.0,0.0,0.0,0.0,0.0,0.0,0.0,0.0,0.0,0.0,0.0,0.0,0.0,0.0,0.0,0.0,0.0,0.0,0.0,0.0,0.0,0.0,0.0,0.0,0.0,0.0,0.0,0.0,-2.9704,-2.9839,0.0,0.0,0.0,0.0,0.0,0.0,0.0,0.0,0.0,0.0,0.0,0.0,0.0,-3.2676,-3.3164,-3.3613,-3.4004,-3.4375,-3.4766,-3.4785,-3.4453,-3.4512,-3.4629,-3.4766,-3.4434,0.0,-3.3769,-3.3223,0.0,0.0,0.0,0.0,0.0,0.0,0.0,0.0,0.0,0.0,0.0,0.0,0.0,0.0,0.0,0.0,0.0,0.0,0.0,0.0,0.0,-2.7168,-2.8298,-2.88,-2.8925,-2.8925,-2.88,-2.8273,0.0,0.0,0.0,0.0,-2.8674,-2.9578,-3.1712,-3.5102,-3.7513,-3.8715,-3.8773,-3.8475,-3.8475,-3.8647,-3.6278,-3.2936,-2.9081,-2.852,0.0,0.0,0.0,0.0,0.0,0.0,0.0,0.0,0.0,0.0,0.0,0.0,0.0,0.0,0.0,0.0,0.0,0.0,0.0,0.0,0.0,0.0,0.0,0.0,0.0,0.0,0.0,0.0,0.0,0.0,0.0,0.0,0.0,0.0,0.0,0.0,0.0,0.0,0.0,-2.9497,-3.0154,-3.0439,-3.0565,-3.057,0.0,0.0,0.0,0.0,0.0,0.0,0.0,0.0,0.0,-3.2949,-3.3555,-3.4199,-3.4883,-3.457,-3.4648,-3.5098,-3.5293,-3.5547,-3.582,-3.6055,-3.6426,-3.6855,-3.6367,-3.6055,-3.582,-3.4902,-3.4414,-3.4258,0.0,0.0,0.0,0.0,-3.3398,-3.332,0.0,0.0,0.0,0.0,0.0,0.0,0.0,0.0,0.0,0.0,0.0,0.0,-2.7871,-2.9654,-3.1035,-3.1562,-3.1964,-3.1989,-3.1486,-3.0934,0.0,0.0,0.0,-3.0256,-3.0834,-3.2591,-3.484,-3.7543,-3.9817,-4.1043,-4.1295,-4.0912,-4.0967,-4.1191,-3.8796,-3.5057,-3.0577,-3.0251,-2.8777,0.0,0.0,0.0,0.0,0.0,0.0,0.0,0.0,0.0,0.0,0.0,0.0,0.0,0.0,0.0,0.0,0.0,0.0,0.0,0.0,0.0,0.0,0.0,0.0,0.0,0.0,0.0,0.0,0.0,0.0,0.0,0.0,0.0,0.0,0.0,0.0,0.0,0.0,-3.0483,-3.0935,-3.1436,-3.175,-3.1934,0.0,0.0,0.0,0.0,0.0,0.0,-3.3594,-3.4219,-3.4629,-3.4726,-3.5156,-3.5723,-3.6504,-3.5859,-3.5703,-3.6035,-3.6035,-3.6328,-3.6836,-3.7148,-3.7637,-3.8223,-3.7578,-3.7422,-3.7519,-3.6133,-3.5625,-3.5703,-3.5605,-3.5351,-3.5019,-3.4805,-3.4668,-3.4648,0.0,0.0,0.0,0.0,0.0,0.0,0.0,0.0,0.0,0.0,0.0,-2.9026,-2.9603,-3.0683,-3.1562,-3.2114,-3.219,-3.2641,-3.3671,-3.3219,-3.3345,-3.4349,-3.342,-3.3119,-3.3671,-3.583,-3.6775,-3.6362,-4.0248,-4.1836,-4.1175,-3.9907,-3.9966,-4.1094,-3.8015,-3.6407,-3.5803,-3.3714,-3.1614,-2.9652,0.0,0.0,0.0,0.0,0.0,0.0,0.0,0.0,0.0,0.0,0.0,0.0,0.0,0.0,0.0,0.0,0.0,0.0,0.0,0.0,0.0,0.0,0.0,0.0,0.0,0.0,0.0,0.0,0.0,0.0,0.0,0.0,0.0,0.0,0.0,0.0,0.0,0.0,0.0,-3.3599,-3.3394,0.0,0.0,0.0,0.0,-3.4531,-3.4238,-3.4551,-3.5781,-3.5898,-3.6113,-3.6523,-3.6953,-3.7383,-3.7832,-3.7793,-3.7773,-3.7793,-3.7793,-3.7617,-3.7266,-3.7285,-3.7324,-3.7363,-3.7324,-3.7754,-3.8379,-3.668,-3.623,-3.6562,-3.6152,-3.5976,-3.5996,-3.6387,-3.6269,-3.6035,0.0,0.0,0.0,0.0,0.0,-2.2046,-2.2975,-2.3929,-2.5059,-2.649,-2.8323,-2.9829,-3.0733,-3.2441,-3.3746,-3.4279,-3.5328,-3.5956,-3.6006,-3.6157,-3.6107,-3.578,-3.5052,-3.5253,-3.6508,-3.8015,-3.9417,-4.0587,-4.2368,-4.3262,-4.3383,-4.2895,-4.2953,-4.3276,-4.0974,-3.9314,-3.8159,-3.5578,-3.3341,-3.146,-3.0629,-2.958,0.0,0.0,0.0,0.0,0.0,0.0,0.0,0.0,0.0,0.0,0.0,0.0,0.0,0.0,0.0,0.0,0.0,0.0,0.0,0.0,0.0,0.0,0.0,0.0,0.0,0.0,0.0,0.0,0.0,0.0,0.0,0.0,0.0,0.0,0.0,0.0,0.0,-3.4233,-3.4612,0.0,-3.5086,-3.5098,-3.5449,-3.6309,-3.5976,-3.6191,-3.7187,-3.7246,-3.7441,-3.7891,-3.8047,-3.832,-3.875,-3.8476,-3.834,-3.834,-3.834,-3.8398,-3.8516,-3.8516,-3.8691,-3.8965,-3.8965,-3.9141,-3.9375,-3.8769,-3.8613,-3.873,-3.8574,-3.8516,-3.8535,-3.8691,-3.8652,-3.8555,0.0,0.0,0.0,0.0,-2.2096,-2.2945,-2.4104,-2.4908,-2.6038,-2.7896,-2.9578,-3.1035,-3.2114,-3.4223,-3.5705,-3.6009,-3.7437,-3.814,-3.7764,-3.7914,-3.7839,-3.7561,-3.696,-3.7362,-3.8818,-3.9772,-4.1153,-4.2986,-4.3915,-4.4568,-4.4861,-4.4161,-4.422,-4.4836,-4.2651,-4.1366,-4.0714,-3.7884,-3.5166,-3.2706,-3.219,-3.1369,-3.0197,0.0,0.0,0.0,0.0,0.0,0.0,0.0,0.0,0.0,0.0,0.0,0.0,0.0,0.0,0.0,0.0,0.0,0.0,0.0,0.0,0.0,0.0,0.0,0.0,0.0,0.0,0.0,0.0,0.0,0.0,0.0,0.0,0.0,0.0,0.0,-3.4779,-3.5151,-3.579,-3.6229,-3.6436,-3.6445,-3.6738,-3.7461,-3.7246,-3.7402,-3.8105,-3.8144,-3.8281,-3.8555,-3.8574,-3.8769,-3.9199,-3.8926,-3.8867,-3.9023,-3.916,-3.9375,-3.9648,-3.9805,-4.0039,-4.0332,-4.0332,-4.041,-4.0527,-4.0527,-4.0625,-4.0703,-4.0273,-4.0195,-4.0332,-4.0332,-4.0332,-4.0332,0.0,0.0,0.0,-2.1644,-2.2447,-2.3521,-2.465,-2.5787,-2.7329,-2.9553,-3.1235,-3.2667,-3.3822,-3.5881,-3.7186,-3.7186,-3.8241,-3.8969,-3.8919,-3.8366,-3.8567,-3.9622,-3.9195,-3.9446,-4.0551,-4.105,-4.1932,-4.3062,-4.4694,-4.5497,-4.5463,-4.3307,-4.3469,-4.532,-4.2602,-4.2279,-4.3447,-4.0551,-3.7074,-3.3427,-3.2437,-3.1816,-3.1215,0.0,0.0,0.0,0.0,0.0,0.0,0.0,0.0,0.0,0.0,0.0,0.0,0.0,0.0,0.0,0.0,0.0,0.0,0.0,0.0,0.0,0.0,0.0,0.0,0.0,0.0,0.0,0.0,0.0,0.0,0.0,0.0,0.0,-3.5085,-3.5375,-3.5895,-3.6435,-3.6921,-3.7272,-3.7375,-3.7363,-3.7519,-3.793,-3.7969,-3.8144,-3.8555,-3.8574,-3.8574,-3.8594,-3.8594,-3.8809,-3.9238,-3.9238,-3.9473,-3.9941,-4.0351,-4.0547,-4.0586,-4.0996,-4.1211,-4.1211,-4.123,-4.1465,-4.1836,-4.1855,-4.209,-4.2344,-4.1074,-4.084,-4.1211,-4.1211,-4.1211,-4.1191,-2.292,-2.2869,-2.2819,-2.2669,-2.3572,-2.455,-2.5285,-2.6339,-2.8033,-3.0608,-3.1687,-3.2943,-3.4831,-3.6358,-3.7186,-3.7186,-3.8944,-3.9722,-3.8969,-3.9471,-3.9622,-3.912,-3.9722,-4.0576,-4.1735,-4.2233,-4.3263,-4.4794,-4.5271,-4.5698,-4.61,-4.5476,-4.5,-4.4549,-4.2771,-4.1525,-4.0513,-3.8388,-3.701,-3.6015,-3.3901,-3.2747,-3.223,0.0,0.0,0.0,0.0,0.0,0.0,0.0,0.0,0.0,0.0,0.0,0.0,0.0,0.0,0.0,0.0,0.0,0.0,0.0,0.0,0.0,0.0,0.0,0.0,0.0,0.0,0.0,0.0,0.0,0.0,0.0,0.0,-3.7177,-3.6804,-3.7201,-3.7766,-3.8315,-3.8217,-3.83,-3.8613,-3.8672,-3.873,-3.8848,-3.8848,-3.8769,-3.8594,-3.8574,-3.8711,-3.9023,-3.9023,-3.9394,-4.0156,-4.0156,-4.0391,-4.082,-4.0937,-4.1152,-4.1445,-4.1582,-4.1797,-4.209,-4.2422,-4.2617,-4.2754,-4.3047,-4.3242,-4.3262,-4.2285,-4.1973,-4.209,-4.209,-4.1894,-4.168,-2.3095,-2.3095,-2.3095,-2.3095,-2.4224,-2.5335,-2.5896,-2.7118,-2.8875,-3.1411,-3.2215,-3.3319,-3.5282,-3.6533,-3.7287,-3.7513,-3.8944,-3.9647,-3.9245,-4.0023,-4.0425,-4.0302,-4.1078,-4.2057,-4.3162,-4.374,-4.4518,-4.5497,-4.5723,-4.5999,-4.6301,-4.5955,-4.5687,-4.5441,-4.4302,-4.3131,-4.1979,-4.003,-3.8908,-3.8255,-3.5384,-3.4198,-3.3953,-3.2705,-3.1816,-3.1236,-3.105,-3.0967,-3.0946,-3.076,0.0,0.0,0.0,0.0,0.0,0.0,0.0,0.0,0.0,0.0,0.0,0.0,0.0,0.0,0.0,0.0,0.0,0.0,0.0,0.0,0.0,0.0,0.0,0.0,-3.7902,-3.8626,-3.8647,-3.8897,-3.9126,-3.9343,-3.9298,-3.9334,-3.9508,-3.9492,-3.9414,-3.9219,-3.9375,-3.9297,-3.8867,-3.9023,-3.9316,-3.9746,-3.9746,-4.0176,-4.1055,-4.1055,-4.1269,-4.1699,-4.1875,-4.2109,-4.2344,-4.2519,-4.2734,0.0,-4.3223,-4.334,-4.3359,-4.3594,-4.3828,0.0,0.0,0.0,0.0,0.0,-4.293,-4.2891,-2.3095,-2.3095,-2.3095,-2.3095,-2.4506,-2.5787,-2.6399,-2.7871,-2.9715,-3.2089,-3.2792,-3.3771,-3.5583,-3.6634,-3.7437,-3.804,-3.8693,-3.927,-3.9747,-4.0249,-4.0978,-4.2062,-4.271,-4.3589,-4.4694,-4.5221,-4.5522,-4.5573,-4.6075,-4.6301,-4.6266,-4.5637,-4.5882,-4.6822,-4.6192,-4.5774,-4.5445,-4.3177,-4.1527,-4.0168,-3.6939,-3.5736,-3.5728,-3.4106,-3.2954,-3.223,-3.1878,-3.1754,-3.1712,-3.134,0.0,0.0,0.0,0.0,0.0,0.0,0.0,0.0,0.0,0.0,0.0,0.0,0.0,0.0,0.0,0.0,0.0,0.0,0.0,0.0,0.0,0.0,0.0,0.0,-3.9351,-4.022,-4.0282,-4.0344,-4.0247,-3.9847,-4.0124,-4.027,-3.9997,-3.9961,-3.9805,-3.9375,-3.9726,-3.9785,-3.9375,0.0,0.0,0.0,0.0,-4.0976,-4.1797,-4.1797,-4.2012,-4.2441,-4.2812,-4.3027,-4.3086,-4.3457,-4.3652,-4.3711,-4.3769,-4.3789,-4.3789,-4.3828,-4.4101,-4.4433,-4.4023,-4.3828,-4.3789,-4.3789,-4.4004,-4.4258,-2.3095,-2.3095,-2.3095,-2.3095,-2.4506,-2.5787,-2.6399,-2.7871,-3.0016,-3.3169,-3.3294,-3.4223,-3.7211,-3.7337,-3.7588,-3.8617,-3.9622,-4.0249,-4.035,-4.045,-4.0802,-4.148,-4.2886,-4.4166,-4.5296,-4.5422,-4.5698,-4.615,-4.625,-4.6301,-4.6326,-4.6548,-4.6279,-4.5532,-4.5788,-4.53,-4.4175,-4.212,-4.1519,-4.152,-3.838,-3.6434,-3.5432,-3.4357,-3.3824,-3.372,-3.4049,-3.4173,-3.4194,-3.4424,-3.4134,-3.3658,-3.3575,0.0,0.0,0.0,0.0,0.0,0.0,0.0,0.0,0.0,0.0,0.0,0.0,0.0,0.0,0.0,0.0,0.0,0.0,0.0,0.0,-3.8564,-3.9558,-4.0344,-4.0696,-4.1069,-4.1049,-4.033,-4.0364,-4.0449,-4.0351,-4.041,-4.0371,-4.0273,-4.0351,-4.0351,-4.0273,-4.0351,-4.0605,-4.1035,-4.1055,-4.1289,-4.1797,-4.1797,-4.2012,-4.2422,0.0,0.0,-4.3086,-4.3164,-4.3379,-4.373,-4.4101,-4.4258,-4.4297,-4.4629,-4.4824,-4.4902,-4.4805,-4.457,-4.4258,-4.4258,-4.4082,-4.3828,-2.317,-2.3095,-2.3095,-2.3095,-2.4506,-2.5787,-2.6399,-2.7871,-2.979,-3.2315,-3.2641,-3.3495,-3.5705,-3.6207,-3.6709,-3.7586,-3.8894,-3.9798,-4.0099,-4.035,-4.1128,-4.2509,-4.3363,-4.4468,-4.5874,-4.5899,-4.6024,-4.6301,-4.6301,-4.6301,-4.6326,-4.6878,-4.6885,-4.6549,-4.7115,-4.6714,-4.5602,-4.4341,-4.3644,-4.3215,-4.0862,-3.902,-3.7379,-3.5747,-3.4941,-3.4734,-3.4816,-3.49,-3.5128,-3.5355,-3.5418,-3.5397,-3.5169,-3.4631,-3.3844,0.0,0.0,0.0,0.0,0.0,0.0,0.0,0.0,0.0,0.0,0.0,0.0,0.0,0.0,-3.6453,0.0,0.0,-3.8481,-3.9323,-3.986,-4.0303,-4.053,-4.1131,-4.1439,-4.1076,-4.1113,-4.1056,-4.0878,-4.084,-4.084,-4.084,-4.1035,-4.1152,-4.1152,-4.1367,-4.168,-4.2109,-4.2129,-4.2324,-4.2754,-4.2754,-4.2851,-4.3066,-4.3066,-4.3183,-4.3398,-4.3633,-4.3848,-4.4082,-4.4512,-4.4707,-4.4746,-4.5176,-4.5098,-4.4746,-4.5176,-4.5234,-4.5019,-4.4805,-4.4707,-4.4668,-2.3521,-2.3421,-2.3371,-2.3145,-2.4506,-2.5762,-2.6248,-2.7695,-2.9377,-3.1035,-3.1637,-3.2466,-3.3897,-3.4806,-3.5683,-3.6656,-3.8064,-3.9145,-3.9647,-4.0199,-4.1404,-4.3388,-4.3589,-4.4443,-4.6125,-4.615,-4.62,-4.6301,-4.6301,-4.6301,-4.6326,-4.6878,-4.7355,-4.7782,-4.836,-4.8248,-4.7652,-4.693,-4.6019,-4.4847,-4.2986,-4.1287,-3.9537,-3.7255,-3.5976,-3.5397,-3.5211,-3.5335,-3.5562,-3.5666,-3.6183,-3.6722,-3.6266,-3.5852,-3.5314,-3.401,-3.3903,0.0,0.0,0.0,0.0,0.0,0.0,0.0,0.0,0.0,-3.5521,-3.5894,-3.6701,-3.7674,-3.8724,-3.8993,-3.933,-3.9992,-4.0241,-4.0365,-4.0365,-4.0976,-4.151,-4.1655,-4.1686,-4.1582,-4.1248,-4.1269,-4.1289,-4.1289,-4.168,-4.1953,-4.2051,-4.2363,-4.2754,-4.3183,-4.3203,-4.3359,-4.3691,-4.3711,-4.3711,-4.3711,-4.3711,-4.3711,-4.373,-4.418,-4.4394,-4.4433,-4.4922,-4.5195,-4.5293,-4.5644,-4.5351,-4.4726,-4.541,-4.5625,-4.5508,-4.5058,-4.5117,-4.5371,-2.46,-2.46,-2.4274,-2.3271,-2.4506,-2.5611,-2.5686,-2.7118,-2.88,-3.0482,-3.0758,-3.1763,-3.4349,-3.4751,-3.5629,-3.7638,-3.8467,-3.9145,-3.9647,-4.0199,-4.1053,-4.2338,-4.2866,-4.3865,-4.5547,-4.5573,-4.5824,-4.6301,-4.6301,-4.6301,-4.6326,-4.6878,-4.7093,-4.7193,-4.7782,-4.8247,-4.8519,-4.7199,-4.6542,-4.6168,-4.3038,-4.1199,-4.0061,-3.8096,-3.6535,-3.5521,-3.6287,-3.6349,-3.6101,-3.6515,-3.6722,-3.6722,-3.6266,-3.608,-3.5852,-3.4879,0.0,-3.3927,-3.3327,-3.3306,-3.3658,-3.4526,-3.4983,-3.5376,0.0,0.0,-3.7819,-3.786,-3.8605,-3.9199,-3.9364,-3.9765,-3.9951,-3.9661,-4.0282,-4.08,-4.08,-4.0966,-4.1167,-4.1603,-4.1655,-4.1519,-4.1178,-4.1503,-4.1738,-4.1738,-4.2129,-4.2519,-4.291,-4.2988,-4.3203,-4.3613,-4.3633,-4.3652,-4.3711,-4.3711,-4.3711,-4.3711,-4.3711,-4.3711,-4.373,-4.418,-4.4394,-4.4453,-4.5254,-4.582,-4.6172,-4.6211,-4.5957,-4.5547,-4.5644,-4.5449,-4.5039,-4.4629,-4.4492,-4.4473,-2.485,-2.48,-2.465,-2.4173,-2.4933,-2.5711,-2.6072,-2.6967,-2.8122,-2.9453,-3.0167,-3.106,-3.2215,-3.3194,-3.4399,-3.5956,-3.691,-3.7687,-3.8191,-3.9069,-4.0199,-4.1605,-4.1907,-4.2811,-4.4468,-4.4518,-4.4945,-4.5824,-4.5824,-4.5999,-4.6326,-4.6552,-4.6828,-4.7093,-4.7355,-4.7757,-4.8259,-4.7604,-4.7178,-4.677,-4.5077,-4.3341,-4.1576,-4.0003,-3.8149,-3.6566,-3.7249,-3.7548,0.0,0.0,-3.8157,-3.8685,-3.675,-3.6603,-3.6891,-3.5248,-3.5004,0.0,-3.5687,-3.5376,-3.519,-3.6121,-3.6701,-3.7011,-3.6929,-3.7777,-3.8564,-3.8564,-3.9288,-3.9909,-3.993,-4.0096,-4.0158,0.0,-4.0261,-4.051,-4.051,-4.074,-4.1018,-4.1131,-4.1739,-4.1978,-4.1839,-4.2044,-4.2348,-4.2881,-4.3098,-4.3232,-4.3418,-4.3437,-4.3516,-4.3691,-4.3711,-4.3711,-4.3711,-4.3711,-4.3711,-4.3711,-4.3711,-4.3711,-4.373,-4.4433,-4.5039,-4.5527,-4.5879,-4.6133,-4.6289,-4.6035,-4.5683,-4.5273,-4.5019,-4.4668,-4.4297,-4.4629,-4.4766,-4.4726,-2.536,-2.5285,-2.5285,-2.5285,-2.5586,-2.5912,-2.6223,-2.6725,-2.7394,-2.8348,-2.9176,-2.998,-3.0758,-3.1888,-3.3194,-3.46,-3.5454,-3.6282,-3.7136,-3.7939,-3.922,-4.0974,-4.0924,-4.1656,-4.3313,-4.3338,-4.3815,-4.4794,-4.4945,-4.5221,-4.5623,-4.5773,-4.605,-4.6451,-4.6451,-4.6753,-4.723,-4.723,-4.7104,-4.6792,-4.5853,-4.4399,-4.2652,-4.1219,-3.9484,-3.7796,-3.7916,-3.8121,0.0,0.0,-3.887,-3.9338,-3.7471,-3.7055,-3.705,-3.5839,-3.5705,-3.6101,-3.6887,-3.6722,-3.6494,-3.7301,-3.7943,-3.8274,-3.7943,-3.8585,-3.9158,-3.9158,-3.9847,-4.0344,-4.0241,-4.0323,-4.0365,-4.0241,-4.0323,-4.0406,-4.0406,-4.0604,-4.0894,-4.1234,-4.1777,-4.2398,-4.3058,-4.3008,-4.3158,-4.3636,-4.3815,-4.387,-4.3691,-4.3711,-4.3711,-4.3711,-4.3711,-4.3711,-4.3711,-4.3711,-4.3711,-4.3711,-4.3828,-4.3887,-4.3926,-4.4805,-4.5605,-4.6308,-4.6308,-4.6308,-4.6269,-4.584,-4.5488,-4.5156,-4.4746,-4.4375,-4.4141,-4.4785,-4.4863,-4.4687,-2.6449,-2.6449,-2.6449,-2.6449,-2.6449,-2.6273,-2.5711,-2.6147,-2.6725,-2.7304,-2.7369,-2.8435,-3.1085,-3.1411,-3.2315,-3.4525,-3.4705,-3.5454,-3.7086,-3.7211,-3.8216,-4.045,-4.0023,-4.0526,-4.2213,-4.2263,-4.2539,-4.3062,-4.3589,-4.3865,-4.389,-4.4418,-4.4694,-4.4694,-4.4694,-4.502,-4.5573,-4.5573,-4.5849,-4.6155,-4.4269,-4.3192,-4.2652,-4.1182,-3.9931,-3.8953,-3.8182,0.0,0.0,0.0,-3.8171,-3.7473,-3.867,-3.7413,-3.5726,-3.6885,-3.6359,-3.5542,-3.6018,-3.6453,-3.6887,-3.7384,-3.8171,-3.8765,-3.8745,-3.9516,-4.0179,-4.0179,-4.0551,-4.0717,-4.0261,-4.0551,-4.0717,-4.0303,-4.0593,-4.0862,-4.0862,-4.0596,-4.0781,-4.2104,-4.1974,-4.2543,0.0,-4.4539,-4.416,-4.3696,-4.4092,-4.4186,-4.3691,-4.3711,-4.3711,-4.3711,-4.3711,-4.3711,-4.3711,-4.3711,-4.3711,-4.3711,-4.416,-4.4375,-4.4414,-4.5273,-4.5898,-4.6308,-4.6308,-4.6308,-4.6269,-4.584,-4.5664,-4.5605,-4.5176,-4.5,-4.498,-4.5019,-4.4473,-4.3808,-2.6499,-2.6499,-2.6499,-2.6499,-2.6499,-2.6424,-2.6223,-2.6373,-2.6549,-2.6751,-2.6776,0.0,0.0,0.0,0.0,0.0,-3.2993,-3.4022,-3.4951,-3.6056,-3.7161,-3.8266,-3.8843,-3.9572,-4.0501,-4.0877,-4.1505,-4.2489,-4.2665,-4.2886,-4.3263,-4.3438,-4.3539,-4.3539,-4.3539,-4.3639,-4.3815,-4.3815,-4.3714,-4.3539,-4.2861,-4.2517,-4.228,-4.1335,-4.0479,-3.9854,0.0,0.0,0.0,0.0,0.0,-3.9584,-3.792,-3.8199,-3.9035,-3.8503,-3.8022,-3.7654,-3.752,-3.7612,-3.7902,-3.8667,-3.9309,-3.9765,-3.9744,-4.022,-4.0655,-4.0655,-4.0551,-4.0406,-4.0241,-4.0344,-4.0406,-4.0261,-4.0593,-4.0986,-4.1296,-4.1534,-4.1874,-4.2621,-4.3359,0.0,0.0,0.0,0.0,-4.4601,-4.47,-4.4452,-4.3711,-4.3711,-4.3711,-4.3711,-4.3711,-4.3711,-4.3711,-4.4004,-4.416,-4.418,-4.4609,-4.4961,-4.5254,-4.5547,-4.5898,-4.6308,-4.6308,-4.6308,-4.6269,-4.584,-4.5683,-4.5625,-4.5195,-4.5019,-4.5058,-4.5351,-4.5273,-4.4961,-2.6499,-2.6499,-2.6499,-2.6499,-2.6499,0.0,0.0,0.0,0.0,0.0,0.0,0.0,0.0,0.0,0.0,0.0,0.0,-3.2591,-3.3545,-3.4801,-3.583,-3.6558,-3.7287,-3.804,-3.8793,-3.9145,-3.9873,-4.1031,-4.1232,-4.1555,-4.2108,-4.2308,-4.2384,-4.2384,-4.2384,-4.2384,-4.2384,-4.2384,-4.2409,-4.2464,-4.1806,-4.1861,-4.2078,-4.1256,-4.0556,0.0,0.0,0.0,0.0,0.0,-3.9795,-3.981,-3.809,-3.8663,-3.9808,-3.9007,-3.8696,-3.8573,-3.8479,-3.8667,-3.9061,-3.964,-4.0116,-4.0448,-4.0427,-4.0655,-4.0882,-4.0882,-4.0655,-4.0468,-4.0468,-4.0468,-4.0468,-4.0468,-4.0696,-4.1027,-4.1503,-4.2032,-4.2538,-4.3325,-4.4339,-4.5126,0.0,0.0,0.0,-4.5005,-4.4964,-4.4616,-4.3793,-4.3711,-4.3711,-4.3711,-4.3711,-4.3789,-4.3945,-4.4394,-4.4844,-4.5312,-4.5586,-4.5937,-4.6348,-4.6348,-4.6504,-4.6758,-4.6601,-4.6523,-4.6484,-4.5918,-4.5762,-4.5859,-4.543,-4.5449,-4.5742,-4.6016,-4.6133,-4.6016,-2.6524,-2.6524,-2.6499,0.0,0.0,0.0,0.0,0.0,0.0,0.0,0.0,0.0,0.0,0.0,0.0,0.0,0.0,0.0,-3.286,-3.3495,0.0,-3.5332,-3.5458,-3.5984,-3.7036,-3.7111,-3.7663,-3.8743,-3.9245,-3.9798,-4.0325,-4.0824,-4.1075,-4.1075,-4.11,-4.1125,-4.1125,-4.1125,-4.1781,-4.2585,-4.0978,-4.0978,-4.1886,-4.0777,0.0,0.0,0.0,0.0,0.0,-3.9647,-3.8893,-3.8161,-3.9132,-3.8907,-3.831,-3.8709,-3.8636,-3.8424,-3.8833,-3.9509,-4.0241,-4.0261,-4.0572,-4.0882,-4.0882,-4.0862,-4.0841,-4.0841,-4.082,-4.082,0.0,0.0,-4.0841,-4.0862,-4.0882,-4.1048,-4.1565,-4.2042,-4.2828,0.0,0.0,0.0,0.0,0.0,0.0,-4.5107,0.0,-4.4616,-4.3754,-4.3691,-4.3691,-4.3672,-4.3711,-4.3965,-4.4433,-4.4883,-4.5742,-4.6973,-4.6973,-4.7187,-4.7578,-4.7578,-4.7578,-4.7519,-4.7129,-4.6933,-4.6836,-4.6055,-4.5957,-4.6269,-4.5879,-4.6211,-4.6894,-4.6953,-4.6953,-4.6875,0.0,0.0,0.0,0.0,0.0,0.0,0.0,0.0,0.0,0.0,0.0,0.0,0.0,0.0,0.0,0.0,0.0,0.0,-3.0608,-3.229,0.0,0.0,0.0,0.0,0.0,0.0,0.0,-3.6383,-3.6935,-3.7335,-3.7486,-3.799,-3.8241,-3.8266,-3.8668,-3.8843,-3.8843,-3.8843,-3.9019,-3.9195,0.0,-3.8442,-3.9044,0.0,0.0,0.0,0.0,0.0,0.0,-3.8793,-3.9065,-3.9196,-3.9989,-4.067,-4.1122,-4.1265,-4.1036,-4.0694,-4.0417,-4.0303,-4.0303,-4.0634,-4.08,-4.0882,-4.0882,-4.0634,-4.0386,-4.0386,-4.0116,-3.9972,0.0,0.0,0.0,-4.082,-4.0882,0.0,-4.2414,-4.2973,0.0,-4.5167,0.0,-4.6099,-4.6246,-4.6266,0.0,0.0,-4.5027,-4.464,-4.3731,-4.3699,-4.3555,-4.3242,-4.3867,-4.4433,-4.4863,-4.5918,-4.6777,-4.7422,-4.7422,-4.748,-4.7578,-4.7578,-4.7402,-4.7109,-4.7324,-4.7051,-4.6465,-4.6562,-4.6484,-4.6328,-4.6523,-4.6543,-4.6543,-4.7168,-4.7207,-4.6953,0.0,0.0,0.0,0.0,0.0,0.0,0.0,0.0,0.0,0.0,0.0,0.0,0.0,0.0,0.0,0.0,0.0,0.0,0.0,-3.1035,0.0,0.0,0.0,0.0,0.0,0.0,0.0,0.0,0.0,0.0,-3.6006,-3.6558,-3.6883,-3.6835,-3.7161,-3.7287,-3.7287,-3.7287,0.0,0.0,0.0,0.0,0.0,0.0,0.0,0.0,0.0,0.0,0.0,-3.8753,-3.9569,-4.0394,-4.1601,-4.2324,-4.2624,-4.2794,-4.3174,-4.3211,-4.1418,-4.1318,-4.17,-4.1075,-4.0882,-4.082,-4.0634,-4.0406,-4.0179,-3.9972,-3.9654,-3.9723,-4.0365,-4.0344,0.0,0.0,0.0,0.0,-4.2745,-4.3491,-4.436,0.0,-4.6078,0.0,-4.6266,-4.6266,-4.6082,0.0,-4.5048,-4.448,-4.4013,-4.3644,-4.3594,-4.3926,-4.4238,-4.4863,-4.584,-4.6933,-4.7715,-4.8144,-4.8144,-4.8144,-4.8125,-4.7949,-4.7715,-4.75,0.0,-4.7207,-4.6601,-4.6836,-4.668,-4.6328,-4.6562,-4.6621,-4.6641,-4.7376,-4.7533,-4.7603,0.0,0.0,0.0,0.0,0.0,0.0,0.0,0.0,0.0,0.0,0.0,0.0,0.0,0.0,0.0,0.0,0.0,0.0,0.0,0.0,0.0,0.0,0.0,0.0,0.0,0.0,0.0,0.0,0.0,0.0,0.0,0.0,0.0,0.0,0.0,0.0,0.0,0.0,0.0,0.0,0.0,0.0,0.0,0.0,0.0,0.0,0.0,0.0,0.0,-3.9204,-4.0386,-4.1646,-4.3095,-4.3553,-4.3512,-4.3499,-4.4798,-4.5459,-4.1968,-4.2472,-4.3475,-4.1477,-4.0924,-4.0758,-4.0323,-4.0179,-3.9992,-3.9475,-3.9351,-3.962,-4.0448,-4.0344,-4.0448,-4.1421,0.0,-4.1835,-4.287,-4.3698,-4.4588,-4.5561,-4.6078,-4.6266,-4.6266,-4.6266,-4.6246,-4.6184,-4.5068,-4.4361,-4.4353,-4.3644,-4.3848,-4.5156,-4.4902,-4.5508,-4.709,-4.7891,-4.8476,-4.8867,-4.8867,-4.8867,-4.8848,-4.8398,-4.8183,-4.8105,-4.7824,0.0,-4.6855,-4.6914,-4.668,-4.6308,-4.6367,-4.6582,-4.6944,-4.7504,-4.7899,-4.8315,0.0,0.0,0.0,0.0,0.0,0.0,0.0,0.0,0.0,0.0,-3.0959,-3.0306,0.0,0.0,0.0,0.0,0.0,0.0,0.0,0.0,0.0,0.0,0.0,0.0,0.0,0.0,0.0,0.0,0.0,0.0,0.0,0.0,0.0,0.0,0.0,0.0,0.0,0.0,0.0,0.0,0.0,0.0,0.0,0.0,0.0,0.0,0.0,0.0,0.0,0.0,-4.1355,-4.2666,-4.2512,-4.3805,-4.5048,-4.3509,-4.4454,-4.5549,-4.2792,-4.2984,-4.354,-4.1874,-4.1151,-4.0758,-4.0323,-3.993,-3.9413,-3.8585,-3.8419,-3.8585,-3.9102,-3.9385,-4.0075,-4.1358,-4.1255,-4.1586,-4.3263,-4.3635,-4.4215,0.0,0.0,0.0,0.0,0.0,0.0,0.0,0.0,-4.4382,-4.4402,-4.4222,-4.4766,-4.6035,-4.6348,-4.6973,-4.7969,-4.8496,-4.8789,-4.8867,-4.8867,-4.8867,-4.8848,-4.8398,-4.8027,-4.7676,-4.8066,0.0,-4.6445,-4.715,-4.7032,-4.6328,-4.668,-4.6836,-4.7117,-4.7919,-4.8045,-4.7896,0.0,0.0,0.0,0.0,0.0,0.0,0.0,-3.3796,-3.4374,-3.5529,-3.5454,-3.4324,-3.1788,-3.0984,-2.9955,0.0,0.0,0.0,0.0,0.0,0.0,0.0,0.0,0.0,0.0,0.0,0.0,0.0,0.0,0.0,0.0,0.0,0.0,0.0,0.0,0.0,0.0,0.0,0.0,0.0,0.0,0.0,0.0,0.0,0.0,0.0,0.0,0.0,0.0,0.0,-4.1178,-4.2818,-4.3929,-4.5497,-4.6695,-4.5495,-4.6899,-4.8151,-4.5047,-4.4786,-4.4887,-4.287,-4.1859,-4.1007,-4.0075,-3.9447,-3.8916,-3.8005,-3.7632,-3.7757,-3.86,-3.8833,0.0,-4.0944,-4.1027,-4.1441,-4.3035,0.0,0.0,0.0,0.0,0.0,0.0,0.0,0.0,0.0,0.0,-4.4967,-4.4724,-4.4739,-4.5098,-4.5957,-4.6601,-4.7344,-4.8203,-4.8633,-4.8867,-4.8867,-4.8867,-4.873,-4.8496,-4.8066,-4.7656,-4.7246,-4.7749,0.0,-4.6348,-4.7524,-4.7337,-4.6416,-4.705,-4.7185,-4.7133,-4.7989,-4.8218,-4.8154,0.0,0.0,0.0,0.0,0.0,0.0,0.0,-3.5931,-3.6436,-3.8592,-3.8718,-3.7436,-3.4449,-3.3144,-3.1562,0.0,0.0,0.0,0.0,0.0,0.0,0.0,0.0,0.0,0.0,0.0,0.0,0.0,0.0,0.0,0.0,0.0,0.0,0.0,0.0,0.0,0.0,0.0,0.0,0.0,0.0,0.0,0.0,0.0,0.0,0.0,0.0,0.0,-3.6581,-3.8768,-4.045,-4.2112,-4.4618,-4.6401,-4.7446,-4.7102,-4.8878,-5.0248,-4.6979,-4.6403,-4.6145,-4.411,-4.2771,-4.1519,-3.9896,-3.9369,-3.8858,-3.7491,-3.6908,-3.6991,-3.8001,-3.8129,-3.8564,0.0,-4.053,-4.111,0.0,0.0,0.0,0.0,0.0,0.0,0.0,0.0,0.0,0.0,0.0,0.0,-4.5022,-4.503,-4.5312,-4.5918,-4.668,-4.748,-4.834,-4.8691,-4.8867,-4.8867,-4.8867,-4.8633,-4.8183,-4.7773,-4.7344,-4.6953,-4.7572,0.0,0.0,-4.7928,-4.7701,-4.6658,-4.7441,-4.7528,-4.7421,-4.8113,-4.8458,-4.863,0.0,0.0,0.0,0.0,0.0,0.0,0.0,-3.6031,-3.6935,-3.8642,-3.7965,-3.7387,-3.7538,-3.6609,-3.4274,0.0,0.0,0.0,0.0,0.0,0.0,0.0,0.0,0.0,0.0,0.0,0.0,0.0,0.0,0.0,0.0,0.0,0.0,0.0,0.0,0.0,0.0,0.0,0.0,0.0,0.0,0.0,0.0,0.0,0.0,0.0,0.0,-3.5056,-3.5909,-3.8191,-3.9371,-4.0224,-4.2037,-4.4342,-4.6348,-4.6075,-4.7749,-4.9289,-4.7236,-4.6426,-4.601,-4.5257,-4.4031,-4.2344,-4.0021,-4.0163,-3.9952,-3.6832,-3.6204,-3.6204,-3.6349,-3.7011,0.0,0.0,0.0,0.0,0.0,0.0,0.0,0.0,0.0,0.0,0.0,0.0,0.0,0.0,-4.5942,0.0,-4.5048,-4.5019,-4.5566,-4.6777,-4.7266,-4.793,-4.8789,-4.8848,-4.8867,-4.8867,-4.8867,-4.8633,-4.8183,-4.7773,-4.7344,-4.6933,-4.7877,0.0,0.0,-4.8467,-4.8473,-4.7615,-4.7701,-4.7961,-4.8286,-4.8372,-4.863,-4.9059,0.0,0.0,0.0,0.0,0.0,0.0,-3.6132,-3.611,-3.6912,-3.9973,-3.9672,-3.9019,-3.8567,-3.814,-3.5956,-3.116,0.0,0.0,0.0,0.0,0.0,0.0,0.0,0.0,0.0,0.0,0.0,0.0,0.0,0.0,0.0,0.0,0.0,0.0,0.0,0.0,0.0,0.0,0.0,0.0,0.0,0.0,0.0,0.0,0.0,0.0,0.0,0.0,-3.5282,-3.7211,-3.8216,-3.8969,-4.0651,-4.2158,-4.3676,-4.5536,-4.752,-4.9082,-4.9005,-4.7929,-4.6932,-4.7098,-4.5267,-4.284,-4.0847,-4.0061,-3.8848,-3.5914,-3.5066,-3.4879,-3.4879,-3.5852,-3.697,0.0,0.0,0.0,0.0,0.0,0.0,0.0,0.0,0.0,0.0,0.0,-4.6266,-4.6266,-4.5942,0.0,-4.5389,-4.572,-4.6174,-4.6962,-4.7672,-4.826,-4.8848,-4.8867,-4.8867,-4.8867,-4.8867,-4.8679,-4.8283,-4.7836,-4.7563,-4.7372,-4.7454,0.0,0.0,-4.8251,-4.8278,-4.7788,-4.8306,-4.8458,-4.8458,-4.8716,-4.8973,-4.9059,0.0,0.0,0.0,0.0,0.0,-3.3395,-3.6885,-3.6508,-3.6962,-4.0348,-4.0375,-3.9672,-3.8718,-3.8191,-3.6332,-3.2466,-3.121,0.0,0.0,0.0,0.0,0.0,0.0,0.0,0.0,0.0,-2.8624,-2.9176,-2.88,0.0,0.0,0.0,0.0,0.0,0.0,0.0,0.0,0.0,0.0,0.0,0.0,0.0,0.0,0.0,0.0,0.0,0.0,0.0,0.0,0.0,0.0,-3.7965,-3.9145,-4.0149,-4.1451,-4.4844,-4.6878,-4.8309,-4.959,-4.8657,-4.7562,-4.8284,-4.6331,-4.3597,-4.1331,-3.9963,-3.828,-3.5074,-3.4093,-3.3865,-3.3865,-3.4879,-3.6018,0.0,0.0,0.0,0.0,0.0,0.0,0.0,0.0,-4.5354,0.0,-4.6266,-4.6266,-4.6266,-4.6023,0.0,-4.5861,-4.6717,-4.7208,-4.7248,-4.8067,-4.8669,-4.9124,-4.8959,-4.8867,-4.8867,-4.8914,-4.8646,-4.8295,-4.7978,-4.7789,-4.7721,-4.7463,0.0,0.0,-4.8339,-4.8345,-4.822,-4.8802,-4.8887,-4.863,-4.8973,-4.9059,-4.9059,0.0,0.0,0.0,0.0,0.0,0.0,-3.7412,-3.7061,-3.7209,-3.9421,-3.922,-3.8668,-3.809,-3.6511,-3.5082,-3.3972,-3.1888,0.0,0.0,0.0,0.0,0.0,0.0,0.0,0.0,0.0,-2.9202,-2.9779,-2.9779,-2.9779,-2.9804,-2.9779,0.0,0.0,0.0,0.0,0.0,0.0,0.0,0.0,0.0,0.0,-3.0683,0.0,0.0,0.0,0.0,0.0,0.0,0.0,0.0,0.0,0.0,-3.8366,-4.035,-4.3664,-4.5447,-4.6702,-4.8335,-4.8108,-4.7623,-4.8656,-4.7359,-4.4806,-4.1126,-4.027,-3.8888,-3.4328,-3.3389,-3.3389,-3.3389,-3.4194,-3.5066,0.0,0.0,0.0,0.0,0.0,0.0,0.0,0.0,-4.5354,-4.6184,-4.6266,-4.6266,-4.6266,-4.6266,0.0,-4.6266,-4.8065,-4.863,-4.7701,-4.8543,-4.9168,-4.9604,-4.9144,-4.8867,-4.894,-4.8875,-4.8712,-4.8295,-4.8282,-4.8124,0.0,0.0,0.0,0.0,-4.8862,-4.9127,-4.9059,-4.9059,-4.9059,-4.9059,-4.9059,-4.9059,-4.9059,0.0,0.0,0.0,0.0,0.0,0.0,0.0,-3.4901,-3.5328,-3.7235,-3.731,-3.7285,-3.7412,-3.626,-3.4906,-3.347,0.0,0.0,0.0,0.0,0.0,0.0,0.0,0.0,0.0,0.0,-2.9955,-3.0884,-3.126,-3.126,-3.0884,-3.126,-3.1135,-3.0583,0.0,0.0,0.0,0.0,0.0,0.0,0.0,-3.0331,-3.116,0.0,0.0,0.0,0.0,0.0,0.0,0.0,0.0,0.0,0.0,0.0,0.0,-4.0601,-4.2836,-4.497,-4.6627,-4.6374,-4.5854,-4.6893,-4.5497,-4.3227,-4.038,-3.9167,-3.7461,-3.3317,-3.2727,-3.2747,-3.2126,-3.3762,-3.5418,-3.6018,0.0,0.0,0.0,0.0,0.0,-4.3014,-4.4795,-4.6161,0.0,0.0,-4.6266,-4.6266,-4.6266,0.0,-4.6803,-4.7651,-4.7994,-4.7661,-4.9092,-4.9831,-4.9604,-4.9144,-4.9236,-4.9879,-4.9239,-4.9072,-4.9255,-4.8546,-4.9127,0.0,0.0,0.0,0.0,-5.0993,-5.1287,-5.2575,-5.1347,-5.0864,-5.0864,-5.0864,-5.0125,-4.9059,0.0,0.0,0.0,0.0,0.0,0.0,0.0,-3.4198,-3.4575,-3.5604,-3.573,-3.5956,-3.6508,-3.5734,-3.468,-3.3495,0.0,0.0,0.0,0.0,0.0,0.0,0.0,0.0,-2.9829,-3.0633,-3.1662,-3.2968,-3.3495,-3.3596,-3.3294,-3.3646,-3.3169,-3.2014,-3.1687,-3.1009,0.0,0.0,0.0,0.0,-2.9553,-3.0231,-3.1386,0.0,0.0,0.0,0.0,0.0,0.0,0.0,0.0,0.0,0.0,0.0,0.0,0.0,-4.0275,-4.2409,-4.4493,-4.4893,-4.4878,-4.551,-4.4339,-4.2372,-3.9744,-3.8332,-3.6499,-3.2777,-3.2215,-3.2292,-3.1733,-3.343,-3.5169,-3.5976,-3.7587,0.0,0.0,0.0,0.0,-4.3553,0.0,0.0,0.0,-4.6432,-4.6266,-4.6266,-4.6266,0.0,-4.6679,-4.7361,-4.7688,-4.7678,-4.9098,-4.9904,-5.0134,-4.9308,-4.9321,-5.0095,-4.9272,-4.9101,-4.9433,-4.9572,-5.0379,0.0,0.0,0.0,0.0,-5.2613,-5.2861,-5.4197,-5.3131,-5.2769,-5.2986,-5.2725,-5.2125,-5.1354,0.0,0.0,0.0,0.0,0.0,0.0,0.0,-3.46,-3.4625,-3.4505,-3.458,-3.4781,-3.5207,-3.4806,-3.4299,-3.3721,0.0,0.0,0.0,0.0,0.0,0.0,0.0,0.0,-3.1411,-3.2516,-3.3872,-3.5433,-3.6081,-3.6358,-3.6358,-3.6433,-3.5328,-3.3244,-3.3212,-3.219,-3.0557,0.0,0.0,0.0,-2.9202,-2.9955,0.0,0.0,0.0,0.0,0.0,0.0,0.0,0.0,0.0,0.0,0.0,0.0,0.0,0.0,0.0,0.0,0.0,-4.3463,-4.4342,-4.4342,-4.3564,-4.2078,-3.9296,-3.7732,0.0,-3.2804,-3.2106,-3.2112,-3.205,-3.3306,-3.4734,-3.5997,-3.7695,0.0,0.0,-4.1441,0.0,0.0,-4.5809,0.0,-4.6349,-4.6308,-4.6266,-4.6266,-4.6266,0.0,-4.6308,-4.7154,-4.7712,-4.78,-4.8743,-4.9798,-5.1005,-4.9676,-4.9314,-4.9824,-4.9449,-4.927,-4.9348,-5.1122,-5.1954,0.0,0.0,0.0,0.0,-5.4092,-5.4174,-5.4685,-5.4568,-5.4868,-5.5237,-5.4799,-5.4856,-5.5095,0.0,0.0,0.0,0.0,0.0,0.0,0.0,0.0,0.0,0.0,-3.3571,-3.3822,-3.3068,-3.2867,-3.2416,0.0,0.0,0.0,0.0,0.0,0.0,0.0,0.0,0.0,-3.1989,-3.2717,-3.3671,-3.4881,-3.5881,-3.6157,-3.5734,-3.6609,-3.6282,-3.4881,-3.4073,-3.2566,-3.0608,-3.0331,0.0,0.0,-2.9654,-3.0306,0.0,0.0,0.0,0.0,-3.3111,-3.3796,0.0,0.0,0.0,0.0,0.0,0.0,0.0,0.0,-3.7362,-3.7814,-3.8894,0.0,-4.148,-4.148,-4.1279,-4.0554,0.0,-3.7208,-3.5804,-3.3824,-3.3536,-3.3389,-3.2706,-3.4817,-3.6804,-3.7115,-3.8109,-3.922,-4.0551,0.0,0.0,-4.5768,-4.5912,-4.6244,-4.7279,-4.674,-4.6266,-4.6266,-4.6266,-4.6432,-4.6865,-4.674,-4.7423,-4.9217,-5.0122,-5.0624,-5.0535,-5.0156,-5.0368,-5.1265,-5.1888,-5.2105,-5.2068,-5.3605,-5.4809,0.0,0.0,0.0,-5.8187,-5.6717,-5.6956,-5.8158,-5.7253,-5.6986,-5.7129,-5.7438,-5.6761,-5.5624,0.0,0.0,0.0,0.0,0.0,0.0,0.0,0.0,0.0,0.0,0.0,0.0,0.0,0.0,0.0,0.0,0.0,0.0,0.0,0.0,0.0,0.0,0.0,-3.1838,-3.2968,-3.3796,-3.4876,-3.6232,-3.7086,-3.7236,-3.6684,-3.7563,-3.7086,-3.5433,-3.4123,-3.2566,-3.0934,-3.0457,-3.0055,-2.9779,-2.9503,0.0,0.0,0.0,0.0,0.0,-3.3111,-3.3796,0.0,-3.4981,-3.5655,-3.6455,0.0,0.0,0.0,0.0,-3.6985,-3.7236,-3.7538,-3.8668,-3.9772,-3.9772,-4.0149,-4.0109,-3.865,-3.7723,-3.6814,-3.5408,-3.4896,-3.461,-3.4341,-3.6225,-3.7819,-3.7819,-3.9102,0.0,0.0,0.0,-4.4174,-4.585,-4.6016,-4.6264,0.0,-4.6637,-4.6266,-4.6266,-4.6266,-4.6775,-4.7792,-4.6876,-4.7725,-5.0739,-5.1018,-5.1082,-5.1039,-5.1355,-5.1986,-5.2779,-5.2775,-5.3146,-5.4002,-5.5333,-5.6259,0.0,0.0,0.0,-5.9405,-5.85,-5.8681,-5.9431,-5.8768,-5.8845,-5.9312,-5.9361,-5.909,-5.8588,0.0,0.0,0.0,0.0,0.0,0.0,0.0,0.0,0.0,0.0,0.0,0.0,0.0,0.0,0.0,0.0,0.0,0.0,0.0,0.0,0.0,0.0,0.0,-3.337,-3.4022,-3.5132,-3.6486,-3.8015,-3.8768,-3.8868,-3.8391,-3.8793,-3.7814,-3.5558,-3.4123,-3.2742,-3.1461,-3.0457,-2.9955,-2.9754,-2.9252,0.0,0.0,0.0,0.0,0.0,0.0,0.0,0.0,-3.5182,-3.578,-3.638,-3.6885,0.0,0.0,0.0,0.0,0.0,-3.7161,-3.8065,-3.8969,-3.8944,-3.9697,-4.0209,-3.911,0.0,-3.8308,-3.6956,-3.6335,-3.6081,-3.6163,-3.7405,-3.8378,-3.8295,0.0,0.0,-4.3221,-4.3925,-4.465,-4.5581,-4.6016,0.0,-4.6349,-4.6308,-4.6266,-4.6266,0.0,-4.7272,-4.8741,-4.7651,-4.8605,-5.2009,-5.194,-5.1947,-5.235,-5.3174,-5.3908,-5.4389,-5.371,-5.4141,-5.5623,-5.6837,-5.7369,-5.7376,0.0,0.0,-5.9483,-5.9483,-5.9483,-5.9508,-5.9583,-6.0261,-6.114,-6.0738,-6.124,-6.2044,0.0,0.0,0.0,0.0,0.0,0.0,0.0,0.0,0.0,0.0,0.0,0.0,0.0,0.0,0.0,0.0,0.0,0.0,0.0,0.0,0.0,0.0,-3.2692,-3.3545,-3.4575,-3.6132,-3.7287,-3.8015,-3.9521,-4.0224,-4.0124,-3.9747,-3.8391,-3.6257,-3.5458,-3.3978,-3.2039,-3.1411,-3.0633,-2.9779,-2.9704,0.0,0.0,0.0,0.0,0.0,0.0,0.0,0.0,-3.463,-3.5182,-3.5734,-3.6355,0.0,0.0,0.0,0.0,0.0,-3.7061,-3.8341,-3.9446,-3.8994,-3.9697,-4.0308,-3.9406,-3.9682,0.0,0.0,0.0,0.0,0.0,-3.815,-3.9206,-3.8745,0.0,-4.1772,0.0,0.0,-4.465,-4.5581,0.0,-4.6078,-4.6865,-4.6493,-4.6266,-4.6266,0.0,-4.8525,-4.882,-4.9897,-5.1184,-5.249,-5.4413,-5.5322,-5.5094,-5.5694,-5.6251,-5.6764,-5.7705,-5.8023,-5.7911,-5.9201,-5.9519,-5.9095,0.0,-5.9483,-5.9483,-5.9483,-5.9483,-5.9533,-6.001,-6.0588,-6.124,-6.1617,-6.2144,-6.2621,0.0,0.0,0.0,0.0,0.0,0.0,0.0,0.0,0.0,0.0,0.0,0.0,0.0,0.0,0.0,0.0,0.0,0.0,0.0,0.0,-3.1763,-3.2641,-3.3495,-3.4474,-3.5579,-3.6935,-3.7914,-3.8467,-4.0149,-4.0651,-4.0049,-3.9195,-3.7939,-3.6358,-3.5458,-3.4198,-3.2616,-3.1763,-3.0934,-3.0206,0.0,0.0,0.0,0.0,0.0,0.0,0.0,0.0,0.0,0.0,-3.5056,-3.5608,-3.6182,0.0,0.0,0.0,0.0,0.0,-3.7036,-3.7965,-3.9019,-3.9973,-4.148,-4.2618,-4.228,-4.2773,0.0,0.0,0.0,0.0,0.0,0.0,-4.0285,-4.1608,0.0,-4.2189,-4.3923,-4.4042,-4.436,0.0,0.0,-4.6333,-4.7847,-4.78,-4.8049,-4.8899,0.0,0.0,-5.1424,-5.137,-5.227,-5.4471,-5.5053,-5.6089,-5.7783,-5.8024,-5.8208,-5.8338,-5.8676,-5.8968,-5.9447,-5.9719,-5.9734,-5.9483,0.0,-5.9483,-5.9483,-5.9483,-5.9483,-5.9508,-5.9784,-6.0412,-6.1291,-6.2144,-6.2621,-6.2797,0.0,0.0,0.0,0.0,0.0,0.0,0.0,0.0,0.0,0.0,0.0,0.0,0.0,0.0,0.0,0.0,0.0,0.0,0.0,0.0,-3.2089,-3.3219,-3.4324,-3.5429,-3.6581,-3.7764,-3.8743,-3.9446,-4.0978,-4.1103,-3.9873,-3.912,-3.8065,-3.6734,-3.5604,-3.45,-3.337,-3.2114,-3.1286,-3.0758,0.0,0.0,0.0,0.0,0.0,0.0,0.0,0.0,0.0,0.0,0.0,0.0,0.0,0.0,0.0,-3.6405,-3.6505,-3.6732,-3.7236,-3.8065,-3.9295,-4.1326,-4.3087,-4.4252,-4.446,-4.5404,-4.5516,0.0,0.0,0.0,0.0,-4.0992,-4.1979,-4.4387,-4.3322,-4.2949,-4.5444,-4.4642,-4.4215,-4.5374,-4.5999,-4.6923,-4.8618,-4.9135,-4.9897,0.0,0.0,0.0,-5.3651,-5.2897,-5.36,-5.6146,-5.5631,-5.6712,-5.9483,-5.9633,-5.9702,-5.9859,-5.9179,-5.9312,-6.0311,-5.9759,-5.9483,-5.9483,-5.9483,-5.9483,-5.9483,-5.9483,-5.9483,-5.9483,-5.9483,-6.0186,-6.1291,-6.227,-6.2722,-6.2822,0.0,0.0,0.0,0.0,0.0,0.0,0.0,0.0,0.0,0.0,0.0,0.0,0.0,0.0,0.0,0.0,0.0,0.0,-3.0557,-3.1562,-3.2667,-3.3796,-3.4856,-3.6006,-3.7111,-3.8743,-4.0099,-4.11,-4.2308,-4.2032,-4.0475,-4.0849,-3.9896,-3.7839,-3.6782,-3.5629,-3.45,-3.2842,-3.1838,-3.1286,-3.0758,0.0,0.0,0.0,0.0,0.0,0.0,0.0,0.0,0.0,0.0,0.0,0.0,0.0,-3.6405,-3.6405,-3.6782,-3.7236,-3.7789,-3.9496,-4.1451,-4.3187,-4.3363,-4.333,-4.4123,-4.5736,-4.6414,-4.4207,0.0,0.0,0.0,-4.4274,-4.4662,-4.576,-4.4642,-4.4155,-4.5644,0.0,-4.4443,-4.4981,-4.677,-4.8139,-4.8776,-5.0209,-5.1139,0.0,0.0,0.0,-5.3651,-5.5041,-5.5974,-5.6219,-5.7124,-5.8277,-5.9483,-6.001,-6.076,-6.1832,-6.0651,-6.0205,-6.0311,-5.9759,-5.9483,-5.9483,-5.9483,-5.9483,-5.9483,-5.9483,-5.9483,-5.9483,-5.9483,-6.0186,-6.1266,-6.1843,-6.2395,-6.2822,0.0,0.0,0.0,0.0,0.0,0.0,0.0,0.0,0.0,0.0,0.0,0.0,0.0,0.0,0.0,0.0,0.0,0.0,-3.1085,-3.1788,-3.2867,-3.4349,-3.4781,-3.6031,-3.8191,-3.9873,-4.1103,-4.1856,-4.261,-4.2484,-4.153,-4.0701,-3.9496,-3.7965,-3.6908,-3.5755,-3.458,-3.3319,-3.2416,-3.1813,-3.0959,-3.106,0.0,0.0,0.0,0.0,0.0,0.0,0.0,0.0,-3.3746,-3.4299,-3.4806,-3.5177,-3.5479,-3.6204,-3.6807,-3.7462,-3.8718,-4.0174,-4.1852,-4.4267,-4.4694,-4.5003,-4.6749,-4.7945,-4.8078,-4.6084,-4.649,0.0,0.0,0.0,-4.5228,-4.7087,-4.6934,-4.6622,-4.6798,-4.5967,-4.562,-4.6391,-4.7146,-4.8796,-5.1585,-5.2442,0.0,0.0,0.0,0.0,-5.5287,-5.5827,-5.6219,-5.6219,-5.662,-5.7374,-5.8504,-5.8704,-5.9357,-6.0437,-6.0362,-6.0136,-5.9809,-5.9583,-5.9483,-5.9483,-5.9483,-5.9483,-5.9483,-5.9483,-5.9483,-5.9533,-5.9885,-6.0487,-6.124,-6.1793,-6.2345,-6.2822,0.0,0.0,0.0,0.0,0.0,0.0,0.0,0.0,0.0,0.0,0.0,0.0,0.0,0.0,0.0,0.0,0.0,0.0,-3.1637,-3.2164,-3.3169,-3.465,-3.4831,-3.6107,-3.8542,-4.0224,-4.143,-4.2213,-4.2766,-4.2509,-4.1605,-4.03,-3.927,-3.8467,-3.7059,-3.5956,-3.5177,-3.3872,-3.3018,-3.2416,-3.1486,-3.1336,0.0,0.0,0.0,0.0,0.0,0.0,0.0,0.0,-3.3169,-3.3771,-3.45,-3.468,-3.4926,-3.6078,-3.7059,-3.804,-3.9546,-4.1128,-4.2905,-4.5397,-4.5874,-4.6326,-4.8535,-4.9188,-4.8957,-4.7636,-4.793,-4.8057,-4.6656,0.0,0.0,0.0,-4.9057,-4.8538,-4.7829,-4.7091,-4.6861,-4.7324,-4.8271,-5.0168,-5.3405,-5.4199,0.0,0.0,0.0,0.0,0.0,-5.6219,-5.6219,-5.6219,-5.6369,-5.6922,-5.7901,-5.8077,-5.8604,-5.9508,-5.9885,-5.9859,-5.9483,-5.9483,-5.9483,-5.9483,-5.9483,-5.9483,-5.9483,-5.9483,-5.9483,-5.9533,-5.991,-6.0512,-6.124,-6.1617,-6.2195,-6.2822,0.0,0.0,0.0,0.0,0.0,0.0,0.0,0.0,0.0,0.0,0.0,0.0,0.0,0.0,0.0,0.0,0.0,0.0,-3.2215,-3.2742,-3.3571,-3.4675,-3.5207,-3.626,-3.7965,-3.9647,-4.1053,-4.2213,-4.271,-4.2133,-4.0501,-3.9948,-3.9697,0.0,0.0,0.0,0.0,0.0,0.0,-3.3043,-3.2441,-3.2215,-3.2164,0.0,0.0,0.0,0.0,0.0,0.0,0.0,-3.2591,-3.3269,-3.4374,-3.468,-3.4926,-3.6078,-3.7586,-3.917,-4.0224,-4.2534,-4.5045,-4.6642,-4.6728,-4.6878,-4.9088,-4.9163,-4.8761,-4.8786,-4.9665,-5.0419,-5.0419,-5.0896,0.0,-5.2026,-5.0823,-4.9508,-4.8483,-4.8335,-4.8117,-4.7553,-5.0276,-5.2572,-5.363,0.0,0.0,0.0,0.0,0.0,0.0,-5.6219,-5.6219,-5.6219,-5.6746,-5.7298,-5.7876,-5.8428,-5.8981,-5.9483,-5.9483,-5.9483,-5.9483,-5.9483,-5.9483,-5.9483,-5.9483,-5.9483,-5.9483,-5.9483,-5.9483,-5.9483,-5.9483,-6.0186,-6.119,-6.119,-6.1893,-6.2822,0.0,0.0,0.0,0.0,0.0,0.0,0.0,0.0,0.0,0.0,0.0,0.0,0.0,0.0,0.0,0.0,0.0,0.0,-3.2164,-3.2365,-3.2968,-3.4098,-3.4675,-3.5554,-3.6883,-3.8492,-4.0275,-4.2213,-4.2363,-4.1555,-3.9923,-3.9772,0.0,-3.7914,0.0,0.0,0.0,0.0,0.0,-3.3545,-3.219,-3.1863,-3.2064,0.0,0.0,0.0,0.0,0.0,0.0,0.0,0.0,0.0,-3.3796,-3.4148,-3.4349,-3.5454,-3.7236,-3.9195,-4.0701,-4.3112,-4.5522,-4.6828,-4.7004,-4.7154,0.0,-4.8284,0.0,0.0,-4.9381,-4.9394,-5.0747,0.0,0.0,-5.194,-5.1992,-5.1505,-5.0127,-4.9914,-5.015,-5.0678,-5.1628,-5.3084,-5.5262,0.0,0.0,0.0,0.0,0.0,0.0,-5.6219,-5.6219,-5.6219,-5.6369,-5.6545,-5.6721,-5.7675,-5.8227,-5.8378,-5.9131,-5.9483,-5.9483,-5.9483,-5.9483,-5.9483,-5.9483,-5.9483,-5.9483,-5.9483,-5.9483,-5.9483,-5.9483,-6.0186,-6.119,-6.119,-6.1893,-6.2822,0.0,0.0,0.0,0.0,0.0,0.0,0.0,0.0,-3.2943,-3.2591,-3.2365,-3.1964,0.0,0.0,0.0,-3.0934,-3.1336,-3.1763,-3.219,-3.2416,-3.2968,-3.3847,-3.4223,-3.5002,-3.638,-3.7838,-3.9295,-4.0905,-4.1131,-4.0551,-3.9371,0.0,0.0,-3.8191,0.0,-3.7864,0.0,0.0,0.0,-3.4098,-3.2641,-3.2114,-3.2089,0.0,0.0,0.0,0.0,0.0,0.0,0.0,0.0,0.0,-3.3219,-3.3721,-3.4248,-3.5959,-3.7939,-4.0023,-4.2359,-4.4694,-4.6677,-4.7556,-4.7606,-4.7531,-4.7832,0.0,0.0,0.0,-4.9909,-4.9896,-5.1364,-5.1346,0.0,-5.2291,-5.2703,-5.2327,-5.0787,-5.1163,-5.1693,-5.2164,-5.2743,-5.3932,0.0,0.0,0.0,0.0,0.0,0.0,0.0,-5.6219,-5.6219,-5.6219,-5.6219,-5.6219,-5.6219,-5.7323,-5.7901,-5.7901,-5.8981,-5.9483,-5.9483,-5.9483,-5.9483,-5.9483,-5.9483,-5.9483,-5.9483,-5.9483,-5.9483,-5.9483,-5.9483,-6.0186,-6.119,-6.119,-6.1893,-6.2822,0.0,0.0,0.0,0.0,0.0,0.0,0.0,-3.3111,-3.3111,-3.3111,-3.2616,-3.224,0.0,0.0,0.0,-3.1361,-3.229,-3.2692,-3.2164,-3.2692,-3.3219,-3.3721,-3.3897,-3.47,-3.6304,-3.7262,-3.8065,-3.8693,-3.9346,-3.9396,0.0,0.0,-3.9647,-3.9546,0.0,-3.9019,0.0,0.0,-3.5583,-3.4465,-3.3351,-3.2574,-3.1939,-3.142,0.0,0.0,0.0,0.0,0.0,0.0,0.0,0.0,-3.2641,-3.3376,-3.431,-3.6912,-3.9044,-4.1204,-4.4342,-4.6476,-4.7983,-4.856,-4.8335,-4.7983,-4.7983,-4.846,-4.9213,-5.0268,0.0,-5.1473,-5.2076,-5.2578,-5.2929,-5.2929,-5.2929,-5.2421,-5.1022,-5.205,-5.275,-5.2477,-5.3728,0.0,0.0,0.0,0.0,0.0,0.0,0.0,0.0,-5.6219,-5.6219,-5.6219,-5.6219,-5.6219,-5.6219,-5.7323,-5.7901,-5.7901,-5.8981,-5.9483,-5.9483,-5.9483,-5.9483,-5.9483,-5.9483,-5.9483,-5.9483,-5.9483,-5.9483,-5.9483,-5.9483,-6.0186,-6.119,-6.119,-6.1893,-6.2822,0.0,0.0,0.0,0.0,0.0,0.0,-3.3111,-3.3111,-3.3111,-3.3111,-3.3011,-3.2541,-3.1662,-3.1964,0.0,-3.0859,-3.1386,-3.1687,-3.1562,-3.2089,-3.2466,-3.2566,-3.3847,-3.4881,-3.5658,-3.5909,-3.6358,-3.6958,-3.8768,-3.917,0.0,0.0,0.0,-3.8391,0.0,-3.8668,0.0,-3.5906,-3.4491,-3.3503,-3.2244,-3.1249,-3.0445,-3.0204,-3.0005,0.0,0.0,0.0,0.0,0.0,0.0,0.0,-3.183,-3.2636,-3.3199,-3.4944,-3.7839,-4.0852,-4.2434,-4.5045,-4.7431,-4.7958,-4.8335,-4.8586,-4.8586,-4.9364,-5.0268,-5.0946,-5.1197,-5.1574,-5.2578,-5.2854,-5.2929,-5.2929,-5.2929,-5.2792,-5.2491,-5.2698,-5.3192,-5.3985,0.0,0.0,0.0,0.0,0.0,0.0,0.0,0.0,-5.6219,-5.6219,-5.6219,-5.6219,-5.6219,-5.6219,-5.6219,-5.7323,-5.7901,0.0,-5.8981,-5.9483,-5.9483,-5.9483,-5.9483,-5.9483,-5.9483,-5.9483,-5.9483,-5.9483,-5.9483,-5.9483,-5.9483,-6.0186,-6.119,-6.119,-6.1893,-6.2822,0.0,0.0,0.0,0.0,0.0,0.0,0.0,0.0,-3.3111,-3.3111,-3.3111,-3.2842,-3.2265,-3.2441,0.0,0.0,-3.1888,-3.2089,-3.1813,-3.2315,-3.2616,-3.2616,-3.347,-3.4198,-3.4705,-3.4981,-3.5554,-3.6405,-3.7586,-3.7939,0.0,0.0,0.0,-3.804,0.0,-3.8944,0.0,-3.6609,-3.545,-3.4681,-3.3196,-3.2162,-3.1459,-3.1098,-3.0783,-3.0493,-2.9797,0.0,0.0,0.0,0.0,0.0,0.0,0.0,-3.2706,-3.5173,-3.7513,-3.9898,-4.261,-4.4618,-4.62,-4.728,0.0,-4.8711,-4.841,-4.9213,-5.0268,-5.1096,-5.1498,-5.1925,-5.2779,-5.2929,-5.2929,-5.2929,-5.2929,-5.2929,-5.2929,-5.2929,-5.3331,0.0,0.0,0.0,0.0,0.0,0.0,0.0,0.0,-5.6219,-5.6219,-5.6219,-5.6219,-5.6219,-5.6219,-5.6219,-5.6219,-5.7047,-5.7625,-5.7901,-5.873,-5.9257,-5.9483,-5.9483,-5.9483,-5.9483,-5.9483,-5.9483,-5.9483,-5.9483,-5.9483,-5.9483,-5.9483,-6.0186,-6.119,-6.119,-6.1893,-6.2822,0.0,0.0,0.0,0.0,0.0,0.0,0.0,0.0,0.0,-3.3111,-3.3111,-3.3043,-3.2943,-3.3061,-3.2842,0.0,0.0,0.0,-3.224,-3.2667,-3.3018,-3.3219,-3.3262,-3.3445,-3.3897,-3.4349,-3.5027,-3.5977,-3.6078,-3.6408,0.0,0.0,0.0,-3.804,0.0,0.0,0.0,-3.7563,-3.6689,-3.6021,-3.463,-3.3608,-3.2928,-3.2524,-3.2014,-3.1379,-3.0212,-3.013,-3.0413,-2.9083,0.0,0.0,0.0,0.0,-3.2095,-3.5459,-3.7165,-3.8919,-4.3062,-4.4694,-4.5547,-4.7054,-4.8033,0.0,-4.8134,-4.8862,-4.9916,-5.1046,-5.1649,-5.2151,-5.2804,-5.2929,-5.2929,-5.2929,-5.2929,-5.2929,-5.2929,-5.3005,0.0,0.0,0.0,0.0,0.0,0.0,0.0,0.0,0.0,-5.6219,-5.6219,-5.6219,-5.6219,-5.6219,-5.6219,-5.6219,-5.6219,-5.6746,-5.7323,-5.7901,-5.8554,-5.9081,-5.9483,-5.9483,-5.9483,-5.9483,-5.9483,-5.9483,-5.9483,-5.9483,-5.9483,-5.9483,-5.9483,-6.0186,-6.119,-6.119,-6.1893,-6.2822,0.0,0.0,0.0,0.0,0.0,0.0,0.0,0.0,0.0,0.0,-3.3111,-3.2893,-3.239,-3.2767,-3.2842,-3.2265,-3.2742,-3.2842,-3.224,0.0,0.0,-3.3746,-3.3796,-3.3822,-3.3897,-3.3972,-3.4073,-3.4223,-3.47,0.0,0.0,0.0,0.0,-3.8015,0.0,0.0,0.0,0.0,0.0,-3.5065,-3.4757,-3.3756,-3.254,-3.2841,-3.2591,-3.2047,-3.1889,-3.1263,-3.0488,-2.9496,-2.8397,0.0,0.0,0.0,-3.0311,-3.2578,-3.5466,-3.8668,-4.1735,0.0,-4.7631,0.0,-4.8284,-4.8134,0.0,0.0,-4.9916,0.0,-5.1348,-5.1699,-5.2729,-5.2929,-5.2929,-5.2929,-5.2929,-5.2929,-5.2929,0.0,0.0,0.0,0.0,0.0,0.0,0.0,0.0,0.0,-5.652,-5.6219,-5.6219,-5.6219,-5.6219,-5.6219,-5.6219,-5.6219,-5.6219,-5.6746,-5.7323,-5.7901,-5.8905,-5.9433,-5.9483,-5.9483,-5.9483,-5.9483,-5.9483,-5.9483,-5.9483,-5.9483,-5.9483,-5.9483,-5.9483,-6.0186,-6.119,-6.119,-6.1893,-6.2822,0.0,0.0,0.0,0.0,0.0,0.0,0.0,0.0,0.0,0.0,0.0,-3.2993,-3.2717,-3.2918,-3.2968,-3.2717,-3.2943,-3.3011,-3.2717,-3.2692,-3.2918,-3.342,-3.3445,-3.3445,-3.3445,-3.3445,-3.3596,-3.3897,-3.4148,0.0,0.0,-3.7312,-3.7538,0.0,0.0,0.0,0.0,0.0,0.0,0.0,0.0,0.0,0.0,0.0,0.0,0.0,0.0,0.0,-3.0497,-2.9318,-2.7955,-2.704,-2.8594,0.0,0.0,0.0,-3.4429,-3.6985,-4.0701,-4.384,-4.6351,0.0,-4.7883,-4.8058,-4.8636,0.0,-4.9439,-5.0569,-5.1046,-5.1624,-5.2729,-5.2929,-5.2929,-5.2929,-5.3181,-5.3356,0.0,0.0,0.0,0.0,0.0,0.0,0.0,0.0,0.0,0.0,-5.652,-5.6219,-5.6219,-5.6219,-5.6219,-5.6219,-5.6219,-5.6219,-5.6219,-5.6445,-5.7022,-5.7901,-5.8981,-5.9483,-5.9483,-5.9483,-5.9483,-5.9483,-5.9483,-5.9483,-5.9483,-5.9483,-5.9483,-5.9483,-5.9483,-6.0186,-6.119,-6.119,-6.1893,-6.2822,0.0,0.0,0.0,0.0,0.0,0.0,0.0,0.0,0.0,0.0,0.0,-3.3111,-3.3111,0.0,0.0,0.0,-3.3111,-3.3111,-3.3111,-3.2943,-3.2867,-3.2867,-3.2717,-3.2684,-3.2684,-3.2792,-3.3068,-3.347,0.0,0.0,-3.6985,-3.7262,-3.7538,0.0,-3.7513,0.0,0.0,0.0,0.0,0.0,0.0,0.0,0.0,0.0,0.0,0.0,0.0,0.0,-3.1481,-3.0256,-2.8745,-2.7697,-2.9371,-2.9635,0.0,0.0,0.0,-3.6533,0.0,0.0,-4.4794,-4.6326,-4.7104,-4.7657,0.0,0.0,-4.9038,0.0,-5.067,-5.1398,-5.2528,-5.2829,-5.2929,-5.2929,-5.3356,0.0,0.0,0.0,0.0,0.0,0.0,0.0,0.0,0.0,0.0,0.0,-5.6445,-5.6219,-5.6219,-5.6219,-5.6219,-5.6219,-5.6219,-5.6219,-5.6219,-5.6495,-5.7148,-5.8127,-5.9056,-5.9483,-5.9483,-5.9483,-5.9483,-5.9483,-5.9483,-5.9483,-5.9483,-5.9483,-5.9483,-5.9508,-5.9659,-6.0311,-6.119,-6.1341,-6.1994,-6.2822,0.0,0.0,0.0,0.0,0.0,0.0,0.0,0.0,0.0,0.0,0.0,-3.3111,-3.3111,-3.3111,-3.3111,-3.3111,-3.3111,-3.3111,-3.3111,-3.2566,-3.2265,-3.2265,-3.1763,0.0,-3.1486,-3.1989,-3.2265,0.0,0.0,0.0,-3.648,-3.7462,-3.8542,-3.9521,-3.8442,-3.799,-3.8015,0.0,0.0,0.0,0.0,0.0,0.0,0.0,0.0,0.0,0.0,0.0,0.0,-3.3428,-3.1688,0.0,0.0,0.0,0.0,0.0,0.0,0.0,0.0,-4.1781,0.0,-4.5271,-4.5999,0.0,0.0,0.0,0.0,-4.9515,-5.0067,-5.0795,-5.1925,-5.2578,-5.2929,-5.2929,0.0,0.0,0.0,0.0,0.0,0.0,0.0,0.0,0.0,0.0,0.0,0.0,-5.6219,-5.6219,-5.6219,-5.6219,-5.6219,-5.6219,-5.6219,-5.6219,-5.6219,-5.7273,-5.8102,-5.8679,-5.9232,-5.9483,-5.9483,-5.9483,-5.9483,-5.9483,-5.9483,-5.9483,-5.9483,-5.9483,-5.9483,-5.9533,-6.006,-6.0638,-6.124,-6.1768,-6.232,-6.2822,0.0,0.0,0.0,0.0,0.0,0.0,0.0,0.0,0.0,0.0,0.0,0.0,0.0,-3.3111,-3.3111,-3.3111,-3.3111,-3.3111,-3.3111,-3.2541,-3.2215,-3.2215,-3.1687,-3.1386,-3.1386,-3.1938,0.0,0.0,0.0,-3.4223,-3.5855,-3.6609,-3.7362,-3.809,-3.8417,-3.8567,-3.8542,-3.8165,0.0,0.0,0.0,0.0,0.0,0.0,0.0,0.0,0.0,0.0,0.0,0.0,0.0,0.0,0.0,0.0,0.0,0.0,0.0,0.0,0.0,0.0,0.0,-4.3765,-4.4819,-4.5573,-4.6792,-4.7431,-4.8083,-4.9339,-4.9741,-5.0243,-5.1373,-5.2026,-5.2528,0.0,0.0,0.0,0.0,0.0,0.0,0.0,0.0,0.0,0.0,0.0,0.0,0.0,0.0,-5.6219,-5.6219,-5.6219,-5.6219,-5.6219,-5.6219,-5.6394,-5.6746,-5.7499,-5.8152,-5.8704,-5.9232,-5.9483,-5.9483,-5.9483,-5.9483,-5.9483,-5.9483,-5.9483,-5.9483,-5.9483,-5.9483,-5.9558,-6.0111,-6.0663,-6.124,-6.1793,-6.2345,-6.2822,0.0,0.0,0.0,-3.3111,0.0,-3.3345,-3.3345,-3.352,-3.3621,0.0,0.0,0.0,0.0,0.0,-3.3545,-3.337,-3.3194,-3.3111,-3.3111,-3.2365,-3.1938,-3.1938,-3.1235,-3.0859,-3.0859,0.0,0.0,0.0,0.0,0.0,0.0,-3.583,-3.6483,-3.7211,-3.7764,-3.819,0.0,0.0,0.0,-3.8768,0.0,0.0,-4.1952,0.0,0.0,0.0,0.0,0.0,0.0,0.0,0.0,0.0,0.0,0.0,0.0,0.0,0.0,0.0,-3.7385,0.0,0.0,0.0,0.0,-4.4694,-4.5999,0.0,-4.7883,-4.8611,-4.9063,-4.9615,-5.0544,-5.1021,0.0,0.0,0.0,0.0,0.0,0.0,0.0,0.0,0.0,0.0,0.0,0.0,0.0,0.0,0.0,0.0,-5.6219,-5.6219,-5.6219,-5.6219,-5.6394,-5.6771,-5.7323,-5.7901,-5.8428,-5.8956,-5.9332,-5.9483,-5.9483,-5.9483,-5.9483,-5.9483,-5.9483,-5.9483,-5.9483,-5.9483,-5.9608,-5.9834,-6.0387,-6.0964,-6.1517,-6.2069,-6.2521,-6.2822,0.0,-3.3093,-3.3119,-3.3119,-3.3571,-3.3922,-3.3922,-3.4374,-3.468,-3.468,0.0,0.0,0.0,0.0,0.0,-3.3947,-3.342,-3.3119,-3.3111,-3.2039,-3.1411,-3.1386,0.0,0.0,0.0,0.0,0.0,0.0,0.0,0.0,0.0,0.0,-3.6009,-3.7061,-3.6606,-3.6681,-3.7161,0.0,-3.7513,-3.8241,0.0,-4.1882,-4.1626,0.0,0.0,0.0,-4.4116,-4.3177,0.0,0.0,0.0,0.0,0.0,0.0,0.0,0.0,0.0,0.0,0.0,0.0,0.0,0.0,0.0,0.0,-4.4468,0.0,-4.8435,-4.738,-4.8033,-4.8937,-4.949,0.0,0.0,0.0,0.0,0.0,0.0,0.0,0.0,0.0,0.0,0.0,0.0,0.0,0.0,0.0,-5.6219,-5.6219,-5.6219,-5.6219,-5.6219,-5.6219,-5.6746,-5.7323,-5.7901,-5.8453,-5.8981,-5.9483,-5.9483,-5.9483,-5.9483,-5.9483,-5.9483,-5.9483,-5.9483,-5.9483,-5.9483,-5.9483,-5.9834,-6.0387,-6.0964,-6.1517,-6.2069,-6.2621,-6.2822,-6.2822,-3.3596,-3.3671,-3.3796,-3.4198,-3.4399,-3.45,-3.45,-3.4625,-3.468,0.0,0.0,0.0,0.0,0.0,0.0,-3.3972,-3.4123,-3.3922,-3.3162,-3.239,-3.1813,-3.1411,-3.0733,-3.0206,0.0,0.0,0.0,0.0,0.0,0.0,0.0,0.0,0.0,0.0,-3.5052,-3.5705,-3.6681,-3.7437,0.0,0.0,-4.1907,-4.3011,0.0,0.0,0.0,0.0,0.0,-4.5845,-4.4559,0.0,-4.2693,-3.9929,0.0,0.0,0.0,0.0,0.0,0.0,-3.5633,0.0,0.0,0.0,0.0,0.0,0.0,0.0,0.0,-4.8209,-4.856,0.0,0.0,0.0,0.0,0.0,0.0,0.0,0.0,0.0,0.0,0.0,0.0,0.0,0.0,0.0,0.0,0.0,-5.6219,-5.6219,-5.6219,-5.6219,-5.6219,-5.6219,-5.6746,-5.7323,-5.7901,-5.8453,-5.8981,-5.9483,-5.9483,-5.9483,-5.9483,-5.9483,-5.9483,-5.9483,-5.9483,-5.9483,-5.9483,-5.9483,-5.9834,-6.0387,-6.0964,-6.1517,-6.2069,-6.2621,-6.2822,-6.2822,-3.3847,-3.4098,-3.4349,-3.4675,-3.5102,-3.5328,-3.5056,-3.5454,-3.5755,0.0,0.0,0.0,0.0,0.0,0.0,0.0,-3.4675,-3.4349,-3.347,-3.2893,-3.2315,-3.1763,-3.1009,-3.0457,-3.0156,0.0,0.0,0.0,0.0,0.0,0.0,0.0,0.0,0.0,0.0,0.0,0.0,0.0,0.0,0.0,-4.148,0.0,0.0,-4.5723,-4.6928,0.0,0.0,0.0,-4.6175,-4.6175,-4.4116,0.0,0.0,0.0,0.0,0.0,0.0,0.0,0.0,0.0,0.0,0.0,0.0,0.0,0.0,0.0,0.0,0.0,0.0,0.0,0.0,0.0,0.0,0.0,0.0,0.0,0.0,0.0,0.0,0.0,0.0,0.0,0.0,-5.5039,-5.5189,-5.5491,-5.5742,-5.5968,-5.6194,-5.6219,-5.6219,-5.6219,-5.6972,-5.7549,-5.7901,-5.8654,-5.9207,-5.9483,-5.9483,-5.9483,-5.9483,-5.9483,-5.9483,-5.9483,-5.9483,-5.9633,-5.9834,-5.9834,-6.0161,-6.0738,-6.1316,-6.1868,-6.2395,-6.2722,-6.2822,-6.2822,0.0,-3.4424,-3.4806,-3.4977,-3.5805,-3.6332,-3.5934,-3.6684,-3.7287,0.0,0.0,0.0,0.0,0.0,0.0,0.0,-3.5253,-3.47,-3.4022,-3.352,-3.2968,-3.234,-3.1411,-3.0809,-3.0608,-2.959,0.0,0.0,0.0,0.0,0.0,0.0,0.0,0.0,-3.342,-3.4575,0.0,0.0,0.0,-3.8668,-4.0924,-4.2133,0.0,0.0,-4.6954,0.0,-4.7305,-4.728,-4.7143,-4.7018,-4.5279,0.0,0.0,0.0,0.0,0.0,-3.5981,0.0,0.0,0.0,0.0,0.0,0.0,0.0,0.0,0.0,0.0,0.0,0.0,0.0,0.0,0.0,0.0,0.0,0.0,0.0,0.0,0.0,0.0,0.0,0.0,0.0,-5.4336,-5.4386,-5.4436,-5.4561,-5.5013,-5.5516,-5.6018,-5.6093,-5.6143,-5.6219,-5.7298,-5.7926,-5.8001,-5.8981,-5.9483,-5.9483,-5.9483,-5.9483,-5.9483,-5.9483,-5.9483,-5.9483,-5.9558,-5.9859,-6.0337,-6.0462,-6.0814,-6.1316,-6.1743,-6.2245,-6.2722,-6.2672,-6.2647,-6.2647,-3.4474,-3.4956,-3.5608,-3.6558,-3.6885,-3.7287,-3.809,-3.8015,-3.8015,-3.8467,0.0,0.0,0.0,0.0,0.0,0.0,0.0,0.0,-3.465,-3.4449,-3.3947,-3.2943,-3.2717,-3.1964,-3.0633,-3.0407,-3.0181,0.0,0.0,0.0,0.0,0.0,0.0,0.0,0.0,0.0,0.0,0.0,0.0,-4.1634,-4.4267,0.0,-4.5146,-4.7908,-4.8736,-4.846,-4.846,-4.8159,-4.7631,0.0,-4.5473,-4.4143,0.0,0.0,0.0,0.0,0.0,0.0,0.0,0.0,0.0,0.0,0.0,0.0,0.0,0.0,0.0,0.0,0.0,0.0,0.0,0.0,0.0,0.0,0.0,0.0,0.0,0.0,0.0,0.0,0.0,0.0,-5.3206,-5.3256,-5.3607,-5.4486,-5.4662,-5.4762,-5.4888,-5.5315,-5.5742,-5.6194,-5.7298,-5.8102,-5.8554,-5.9182,-5.9483,-5.9483,-5.9483,-5.9483,-5.9483,-5.9483,-5.9483,-5.9508,-5.996,-6.0211,-6.0387,-6.1291,-6.1743,-6.1818,-6.1466,-6.1667,-6.2119,-6.1667,-6.1492,-6.1567,-3.5031,-3.5579,-3.6207,-3.7036,-3.7638,-3.8316,-3.9145,-3.927,-3.9546,0.0,0.0,0.0,0.0,0.0,0.0,0.0,0.0,0.0,-3.6483,-3.6634,-3.6056,-3.4374,-3.3771,-3.2968,-3.1863,-3.1286,-3.0733,-3.0206,0.0,0.0,0.0,0.0,0.0,0.0,0.0,0.0,0.0,0.0,-4.0023,-4.2715,-4.379,0.0,-4.6527,-4.846,-4.9188,-4.9188,-4.9188,-4.8636,-4.7782,-4.7004,-4.5789,0.0,0.0,-4.3191,-4.2083,0.0,-3.9471,-3.9145,0.0,0.0,0.0,-3.6307,0.0,0.0,0.0,0.0,0.0,0.0,0.0,0.0,0.0,0.0,0.0,0.0,0.0,0.0,0.0,0.0,0.0,0.0,0.0,0.0,-5.2477,-5.2277,-5.2553,-5.3658,-5.3984,-5.426,-5.4536,-5.5089,-5.5641,-5.6194,-5.7298,-5.8152,-5.8704,-5.9232,-5.9483,-5.9483,-5.9483,-5.9483,-5.9483,-5.9483,-5.9633,-5.991,-6.0186,-6.0638,-6.1215,-6.1768,-6.1994,-6.1969,-6.1692,-6.1592,-6.1567,-6.1291,-6.119,-6.1215,-3.5508,-3.5981,-3.6581,-3.7086,-3.8015,-3.8919,-3.9597,-4.0174,-4.0902,0.0,0.0,0.0,0.0,0.0,0.0,0.0,0.0,0.0,0.0,-3.9195,-3.8617,-3.6536,-3.5228,-3.4274,-3.3721,-3.2516,-3.1461,-3.0608,0.0,0.0,0.0,0.0,0.0,0.0,0.0,0.0,0.0,0.0,0.0,-4.3589,0.0,-4.492,-4.7732,-4.8962,-4.9565,-4.9715,-4.9515,-4.8837,-4.8033,-4.7832,0.0,-4.5397,-4.5296,-4.4719,0.0,0.0,0.0,0.0,0.0,0.0,0.0,0.0,0.0,-3.7209,0.0,0.0,0.0,0.0,0.0,0.0,0.0,0.0,0.0,0.0,0.0,0.0,0.0,0.0,0.0,0.0,0.0,0.0,0.0,-5.185,-5.2151,-5.2729,-5.3557,-5.4084,-5.4235,-5.4863,-5.5541,-5.6194,-5.7298,-5.8202,-5.8855,-5.9282,-5.9483,-5.9483,-5.9483,-5.9483,-5.9483,-5.9608,-5.991,-6.0337,-6.0537,-6.1165,-6.1994,-6.1994,-6.1943,-6.1843,-6.1843,-6.1517,-6.0989,-6.0889,-6.0864,-6.0864,-3.5608,-3.5981,-3.6581,-3.7086,-3.7688,-3.8467,-3.9546,-4.0174,-4.0902,0.0,0.0,0.0,0.0,0.0,0.0,0.0,0.0,0.0,-4.1075,0.0,0.0,-3.9998,-3.7939,-3.6558,-3.6056,-3.4449,-3.2641,-3.0608,0.0,0.0,0.0,0.0,0.0,0.0,-3.7462,0.0,0.0,0.0,-4.4443,0.0,-4.6401,-4.7682,0.0,-5.1122,-5.1147,-5.0193,-4.9213,-4.8786,-4.8812,0.0,-4.9264,-4.8209,0.0,-4.7807,0.0,0.0,0.0,0.0,0.0,0.0,0.0,0.0,-3.7764,0.0,0.0,0.0,0.0,0.0,0.0,0.0,0.0,0.0,0.0,0.0,0.0,0.0,0.0,0.0,0.0,0.0,0.0,0.0,0.0,-5.2779,-5.3632,-5.2302,-5.4059,-5.4587,-5.3181,-5.411,-5.5139,-5.6168,-5.7298,-5.8378,-5.9408,-5.9458,-5.9483,-5.9483,-5.9483,-5.9483,-5.9508,-6.001,-6.0261,-6.0387,-6.1391,-6.1893,-6.1994,-6.1994,-6.1718,-6.1266,-6.1266,-6.0914,-6.0362,-5.9859,-5.9684,-5.9759,-3.6182,-3.6207,-3.6681,-3.7513,-3.8391,-3.9471,-4.0955,-4.2409,-4.3438,0.0,0.0,0.0,0.0,0.0,0.0,0.0,0.0,-4.6351,0.0,0.0,0.0,0.0,-3.9496,-3.809,-3.6885,-3.5855,-3.4399,-3.2516,-3.3068,0.0,0.0,0.0,0.0,0.0,-3.9195,0.0,-4.1882,0.0,-4.6401,0.0,0.0,0.0,0.0,-5.0996,-5.0544,-5.0318,-4.954,-4.9238,-4.9264,0.0,-4.9163,0.0,0.0,0.0,0.0,0.0,0.0,0.0,0.0,0.0,0.0,0.0,0.0,0.0,-3.8291,0.0,-3.8064,0.0,0.0,0.0,0.0,0.0,0.0,0.0,0.0,0.0,0.0,0.0,0.0,0.0,0.0,0.0,0.0,0.0,0.0,0.0,-5.3658,-5.4336,-5.3005,-5.3959,-5.5064,-5.6168,-5.7298,-5.8403,-5.9483,-5.9483,-5.9483,-5.9483,-5.9483,-5.9659,-5.9985,-6.0211,-6.0663,-6.1316,-6.1793,-6.2195,-6.2446,-6.2144,-6.1667,-6.114,-6.0814,-6.0337,-5.9809,-5.9583,-5.9483,-5.9533,-3.6832,0.0,-3.6885,-3.7839,-3.8693,-3.9848,-4.1656,-4.3689,-4.492,0.0,0.0,0.0,-4.6903,-4.7531,0.0,0.0,-4.9188,-4.8837,0.0,0.0,-4.5899,-4.3489,-4.158,0.0,0.0,-3.7762,-3.6081,-3.4123,0.0,0.0,0.0,0.0,0.0,0.0,0.0,-4.2082,-4.3514,0.0,0.0,-4.9389,-4.969,-5.1021,-5.2628,-5.0921,-5.0444,-5.0594,-5.0193,-5.0067,-5.0017,-4.9766,-4.949,0.0,-4.8284,0.0,0.0,0.0,0.0,0.0,-4.266,0.0,0.0,0.0,0.0,0.0,0.0,0.0,0.0,0.0,0.0,0.0,0.0,0.0,0.0,0.0,0.0,0.0,0.0,0.0,0.0,0.0,0.0,0.0,0.0,0.0,0.0,0.0,0.0,0.0,-5.2779,-5.3884,-5.5064,-5.6168,-5.7298,-5.8403,-5.9483,-5.9483,-5.9483,-5.9483,-5.9483,-5.9784,-6.0337,-6.0487,-6.109,-6.2019,-6.2169,-6.237,-6.2546,-6.1994,-6.1441,-6.0889,-6.0311,-5.9859,-5.9483,-5.9483,-5.9483,-5.9508,-3.7262,-3.7161,-3.7337,-3.7914,-3.804,-3.8793,-4.0974,-4.2785,-4.4041,0.0,0.0,0.0,0.0,0.0,0.0,0.0,0.0,-5.1373,-4.8058,0.0,-4.8636,-4.8535,-4.4895,-4.3087,0.0,0.0,-3.7437,-3.4655,0.0,0.0,0.0,0.0,0.0,0.0,0.0,-4.1656,-4.2539,-4.6914,-4.8736,-4.8887,-4.9967,-5.0444,-5.0645,0.0,-5.1699,-5.1247,-5.1222,0.0,0.0,-5.1825,-5.1272,0.0,0.0,0.0,0.0,0.0,0.0,0.0,0.0,0.0,0.0,-4.394,0.0,0.0,0.0,0.0,-4.1634,0.0,0.0,0.0,0.0,0.0,0.0,0.0,0.0,0.0,0.0,0.0,0.0,0.0,0.0,0.0,0.0,0.0,0.0,0.0,0.0,0.0,-5.2277,-5.3683,-5.5064,-5.6168,-5.7298,-5.8403,-5.9483,-5.9483,-5.9483,-5.9483,-5.9483,-5.9784,-6.0337,-6.0889,-6.1466,-6.2044,-6.2571,-6.2496,-6.1994,-6.1441,-6.0864,-6.0286,-5.9734,-5.9508,-5.9483,-5.9483,-5.9483,-5.9558,0.0,0.0,-3.7789,-3.7965,-3.8617,-3.9873,-4.2082,-4.384,0.0,0.0,-4.728,0.0,0.0,-5.0645,-5.1699,0.0,0.0,-5.2452,-5.1297,-5.072,0.0,0.0,0.0,-4.4367,0.0,0.0,0.0,0.0,0.0,0.0,0.0,0.0,0.0,0.0,0.0,-4.2384,0.0,0.0,0.0,0.0,0.0,-5.2076,-5.2051,0.0,0.0,-5.1774,-5.1423,-5.1523,0.0,-5.1624,-5.1548,-5.1398,-5.0645,-5.0293,-4.9916,-4.8812,-4.8209,0.0,0.0,0.0,-4.7682,-4.5472,0.0,0.0,0.0,0.0,0.0,0.0,0.0,0.0,0.0,0.0,0.0,0.0,0.0,0.0,0.0,0.0,0.0,0.0,0.0,0.0,0.0,0.0,0.0,0.0,0.0,0.0,0.0,-5.3658,-5.4913,-5.5641,-5.7123,-5.8252,-5.8981,-5.9332,-5.9483,-5.9483,-5.9483,-5.9985,-6.0889,-6.109,-6.1692,-6.2546,-6.2747,-6.2722,-6.2471,-6.1567,-6.1065,-6.0788,-5.9859,-5.9483,-5.9483,-5.9483,-5.9483,-5.9633,-3.9069,-3.8391,-3.814,-3.8542,-3.9848,-4.1329,-4.276,0.0,0.0,0.0,-4.8485,0.0,-5.0469,0.0,-5.2729,0.0,-5.3331,-5.3206,-5.3206,-5.2176,0.0,-5.0795,-4.851,0.0,0.0,0.0,0.0,0.0,0.0,-3.7638,0.0,0.0,0.0,0.0,0.0,0.0,-4.4518,0.0,-4.9063,0.0,0.0,-5.2628,0.0,0.0,-5.2352,-5.2628,0.0,-5.2377,-5.2628,-5.2251,-5.2251,-5.2226,-5.1322,-5.087,-5.0594,-4.9866,-4.9389,-4.8937,-4.8209,-4.8937,0.0,-4.7205,-4.8284,0.0,-4.6677,0.0,0.0,0.0,0.0,0.0,0.0,0.0,0.0,0.0,0.0,0.0,0.0,0.0,0.0,0.0,0.0,0.0,0.0,0.0,0.0,0.0,0.0,0.0,0.0,0.0,-5.4813,-5.5365,-5.7022,-5.8152,-5.8704,-5.9232,-5.9483,-5.9483,-5.9483,-6.0085,-6.119,-6.119,-6.1793,-6.2822,-6.2822,-6.2596,-6.2195,-6.1492,-6.0939,-6.0512,-5.9784,-5.9483,-5.9483,-5.9483,-5.9759,-6.0186,-3.932,-3.8542,-3.8517,-3.9647,-4.1605,-4.3037,0.0,0.0,-4.7168,0.0,-4.9665,-5.1599,-5.2126,-5.3607,-5.4561,-5.4561,-5.4034,-5.3708,-5.3733,-5.2754,0.0,0.0,-5.1373,-5.0243,-4.969,0.0,0.0,0.0,0.0,0.0,0.0,0.0,0.0,0.0,-3.8994,0.0,-4.5522,-4.61,-4.8259,-5.1322,-5.1925,-5.2201,-5.2377,-5.3356,-5.3783,-5.3808,-5.3758,-5.3733,-5.3733,-5.3733,-5.3406,-5.2929,-5.2377,-5.185,-5.1398,-5.1398,-5.1373,-5.1096,-5.0017,-5.0092,-5.0193,-4.9088,0.0,0.0,0.0,0.0,-4.8535,0.0,0.0,0.0,0.0,0.0,0.0,0.0,0.0,0.0,0.0,0.0,0.0,0.0,0.0,0.0,0.0,0.0,0.0,0.0,0.0,0.0,0.0,0.0,-5.4838,-5.534,-5.6997,-5.8152,-5.8679,-5.9232,-5.9483,-5.9483,-5.9483,-6.0085,-6.119,-6.119,-6.1793,-6.2822,-6.2797,-6.2195,-6.1215,-6.1165,-6.0512,-5.9533,-5.9508,-5.9483,-5.9483,-5.9533,-6.0236,-6.119,-4.0953,-4.0576,-4.0827,-4.1932,-4.2936,-4.374,0.0,0.0,0.0,0.0,-5.1373,-5.313,-5.3281,-5.4059,-5.4561,-5.4561,-5.4034,0.0,0.0,0.0,0.0,-5.3507,-5.2327,-5.1423,-5.087,-4.7983,0.0,-4.3991,0.0,0.0,-3.7588,0.0,0.0,0.0,0.0,0.0,-4.5547,-4.6527,-4.8611,-5.1373,-5.2327,-5.3457,0.0,0.0,-5.4838,-5.5465,-5.4637,-5.4336,-5.4336,-5.4336,-5.426,-5.411,-5.3984,-5.3557,-5.308,-5.308,-5.2528,-5.1825,-5.1548,-5.1272,-5.0795,-4.9665,-5.0218,-5.087,0.0,0.0,0.0,0.0,0.0,0.0,0.0,0.0,0.0,0.0,0.0,0.0,0.0,0.0,0.0,0.0,0.0,0.0,0.0,0.0,0.0,0.0,0.0,0.0,0.0,0.0,0.0,-5.4787,-5.6796,-5.7976,-5.8102,-5.9031,-5.9483,-5.9483,-5.9483,-6.0085,-6.119,-6.119,-6.1793,-6.2797,-6.2395,-6.2044,-6.1743,-6.0889,-6.0362,-6.006,-5.9659,-5.9483,-5.9533,-5.996,-6.0563,-6.124,-4.1957,-4.2082,0.0,-4.3237,0.0,0.0,-4.5748,-4.7657,0.0,-5.1197,-5.2729,0.0,-5.5064,-5.5013,-5.5114,-5.5591,-5.4913,0.0,-5.5591,0.0,0.0,-5.4084,-5.3256,-5.2653,-5.2352,-5.0117,0.0,-4.605,0.0,0.0,-3.8718,0.0,0.0,0.0,0.0,-4.2735,0.0,-4.8058,-4.9992,-5.1724,-5.2829,0.0,0.0,-5.4863,-5.5315,-5.5792,-5.5415,-5.5139,-5.4938,-5.4938,-5.4938,-5.4888,-5.4637,-5.4336,-5.4084,-5.4084,-5.3658,-5.313,-5.2879,-5.2754,-5.2402,-5.1021,-5.1348,-5.18,-5.0971,-5.0795,-5.0695,0.0,0.0,0.0,0.0,0.0,0.0,0.0,0.0,0.0,0.0,0.0,0.0,0.0,0.0,0.0,0.0,0.0,0.0,0.0,0.0,0.0,0.0,0.0,0.0,-5.4561,-5.6746,-5.7901,-5.7901,-5.9207,-5.9734,-5.9483,-5.9483,-6.0085,-6.119,-6.119,-6.1793,-6.2797,-6.2245,-6.1868,-6.1567,-6.0688,-6.0186,-5.9935,-5.9608,-5.9633,-5.9935,-6.0487,-6.0914,-6.1266,-4.3067,-4.3463,0.0,0.0,0.0,0.0,0.0,-4.9063,0.0,-5.3381,0.0,-5.4687,-5.6721,-5.6018,-5.5767,-5.6746,0.0,-5.5691,-5.6646,-5.544,-5.4637,-5.4561,-5.416,-5.3884,-5.3808,-5.2226,0.0,0.0,0.0,0.0,0.0,0.0,0.0,0.0,0.0,0.0,0.0,-5.0142,-5.1774,0.0,-5.3381,-5.3858,-5.4034,-5.5089,-5.5491,-5.5566,-5.6043,-5.5917,-5.5491,-5.5491,-5.5491,-5.5415,-5.4938,-5.4787,-5.4787,-5.4787,-5.4737,-5.4561,-5.4059,-5.4235,-5.421,-5.2678,-5.2678,-5.2779,-5.1825,-5.1599,-5.1724,-5.2126,-5.1473,-5.1247,0.0,0.0,0.0,0.0,0.0,0.0,0.0,0.0,0.0,0.0,0.0,0.0,0.0,0.0,0.0,0.0,0.0,0.0,0.0,0.0,0.0,-5.4536,-5.6595,0.0,-5.7901,0.0,-5.991,-5.9483,-5.9483,-6.0085,-6.119,-6.119,-6.1793,-6.2797,-6.2169,-6.1617,-6.114,-6.0487,-5.9935,-5.9483,-5.9483,-5.9834,-6.0387,-6.0964,-6.124,-6.1366,-4.5723,0.0,0.0,0.0,0.0,-4.9339,-5.0971,-5.1875,-5.2678,-5.3582,-5.4511,-5.5415,-5.6269,-5.5767,-5.5465,-5.5666,-5.5089,0.0,0.0,0.0,0.0,-5.4658,-5.4913,-5.4888,-5.4436,-5.2804,-5.1548,0.0,0.0,0.0,0.0,0.0,0.0,0.0,0.0,0.0,-4.9188,-5.1624,0.0,-5.2879,-5.3984,-5.4687,-5.5164,-5.5817,-5.6068,-5.6068,-5.6168,-5.6143,-5.6068,-5.6068,-5.6068,-5.6043,-5.5968,-5.5917,-5.5917,-5.5917,-5.5591,-5.5214,-5.5114,-5.4838,-5.4386,-5.3607,-5.3507,-5.3507,-5.3331,-5.3281,-5.3181,-5.2854,-5.2955,-5.2955,-5.2352,0.0,0.0,0.0,0.0,0.0,0.0,0.0,0.0,0.0,0.0,0.0,0.0,0.0,0.0,0.0,0.0,0.0,0.0,0.0,0.0,0.0,-5.5817,0.0,0.0,0.0,-5.9156,-5.9483,-5.9483,-6.0085,-6.119,-6.119,-6.1793,-6.2772,-6.1768,-6.1266,-6.1115,-6.006,-5.9583,-5.9483,-5.9483,-5.9834,-6.0387,-6.0964,-6.1466,-6.1943,-4.6728,0.0,0.0,0.0,0.0,0.0,0.0,-5.3858,-5.4511,-5.5315,-5.5164,-5.5491,-5.6922,-5.6319,-5.5817,-5.5817,-5.5842,-5.5717,-5.544,-5.539,-5.5265,-5.5013,-5.4687,0.0,-5.4561,-5.3231,-5.2126,-5.1272,0.0,0.0,0.0,0.0,0.0,0.0,0.0,-4.7857,0.0,0.0,0.0,-5.3406,-5.4235,-5.4888,-5.544,-5.5993,-5.6219,-5.6219,-5.6219,-5.6219,-5.6219,-5.6219,-5.6219,-5.6219,-5.6219,-5.6219,-5.6219,-5.6219,-5.6018,-5.5817,-5.5817,-5.5616,-5.529,-5.4712,-5.4587,-5.4511,-5.421,-5.416,-5.4084,-5.3833,-5.3984,-5.3909,-5.308,-5.2703,0.0,0.0,0.0,0.0,0.0,0.0,0.0,0.0,0.0,0.0,0.0,0.0,0.0,0.0,0.0,0.0,0.0,0.0,0.0,0.0,0.0,0.0,0.0,0.0,0.0,-5.9483,-5.9483,-6.0085,-6.119,-6.119,-6.1793,-6.2772,-6.1969,-6.1441,-6.109,-5.996,-5.9483,-5.9483,-5.9483,-6.001,-6.0788,-6.109,-6.1718,-6.2471,0.0,-4.8887,0.0,0.0,-5.2729,0.0,-5.4662,-5.5315,-5.6018,-5.6771,-5.5817,-5.5817,-5.77,-5.7097,-5.657,-5.657,-5.6972,-5.7022,-5.6595,-5.6043,-5.5742,-5.5742,-5.4662,-5.421,-5.4561,-5.3607,-5.2553,0.0,0.0,0.0,0.0,0.0,0.0,0.0,0.0,0.0,0.0,0.0,-5.2176,-5.3934,-5.4511,-5.5064,-5.5616,-5.6043,-5.6219,-5.6219,-5.6219,-5.6219,-5.6219,-5.6219,-5.6219,-5.6219,-5.6219,-5.6219,-5.6219,-5.6219,-5.6219,-5.6219,-5.6219,-5.6219,-5.6118,-5.5666,-5.5566,-5.544,-5.5013,-5.5013,-5.5039,-5.4787,-5.4637,-5.4461,-5.4135,-5.3959,0.0,0.0,0.0,0.0,0.0,0.0,0.0,0.0,0.0,0.0,0.0,0.0,0.0,0.0,0.0,0.0,0.0,0.0,0.0,0.0,0.0,-5.7424,-5.8227,0.0,-5.9935,-5.9483,-5.9608,-6.0211,-6.119,-6.1316,-6.1893,-6.2797,-6.2245,-6.1617,-6.0914,-5.991,-5.9483,-5.9483,-5.9483,-6.0186,-6.119,-6.119,-6.1818,-6.2672,0.0,0.0,0.0,0.0,0.0,0.0,-5.5214,-5.6194,-5.6746,-5.6344,-5.6595,-5.7072,-5.7826,-5.7801,-5.775,-5.775,-5.7801,-5.7801,-5.775,-5.7198,-5.6872,-5.6872,-5.5817,-5.5013,-5.4587,-5.3959,-5.3105,0.0,0.0,0.0,0.0,0.0,0.0,0.0,0.0,0.0,0.0,-5.3005,-5.3808,-5.4536,-5.5089,-5.5641,-5.6143,-5.6194,-5.6219,-5.6219,-5.6219,-5.6219,-5.6219,-5.6219,-5.6219,-5.6219,-5.6219,-5.6219,-5.6219,-5.6219,-5.6219,-5.6219,-5.6219,-5.6219,-5.6194,-5.6143,-5.6143,-5.6118,-5.6068,-5.6445,-5.652,-5.5516,-5.4913,-5.4712,-5.5139,-5.4813,-5.4436,0.0,0.0,0.0,0.0,0.0,0.0,0.0,0.0,0.0,0.0,0.0,0.0,0.0,0.0,0.0,0.0,0.0,0.0,-5.6018,0.0,-5.7775,-5.9332,-5.9483,-5.9533,-5.9508,-6.001,-6.0563,-6.119,-6.1692,-6.227,-6.2797,-6.2245,-6.1391,-6.0362,-5.9734,-5.9483,-5.9483,-5.9483,-6.0186,-6.119,-6.119,-6.1567,-6.2144,0.0,0.0,0.0,0.0,0.0,0.0,0.0,-5.7173,-5.7198,-5.765,-5.7625,-5.765,-5.7876,-5.8202,-5.8252,-5.7926,-5.8202,-5.8252,-5.7926,-5.7675,-5.7549,-5.7549,-5.647,-5.5767,-5.5566,-5.4336,-5.3482,0.0,0.0,0.0,0.0,0.0,0.0,0.0,0.0,-5.1724,-5.308,-5.3181,-5.3934,-5.5089,-5.529,-5.5717,-5.6219,-5.6219,-5.6219,-5.6219,-5.6219,-5.6219,-5.6269,-5.6595,-5.6495,-5.6219,-5.6219,-5.6219,-5.6269,-5.662,-5.6696,-5.6771,-5.7123,-5.7223,-5.7223,-5.7223,-5.7223,-5.7323,-5.765,-5.7901,-5.7926,-5.7474,-5.642,-5.5516,-5.5415,-5.5491,-5.534,0.0,0.0,0.0,0.0,0.0,0.0,0.0,0.0,0.0,0.0,0.0,0.0,0.0,0.0,0.0,0.0,0.0,0.0,-5.7198,0.0,-5.8328,-5.996,-5.9985,-5.9985,-5.9985,-6.0211,-6.0613,-6.119,-6.1743,-6.2295,-6.2797,-6.2245,-6.1567,-6.0788,-6.0236,-5.9784,-5.9533,-5.9859,-6.0487,-6.1215,-6.1542,-6.1818,-6.2044,-5.4762,0.0,-5.5641,0.0,-5.7273,-5.775,-5.8378,-5.8077,-5.8001,-5.8629,-5.8504,-5.8378,-5.8378,-5.8704,-5.878,-5.8403,-5.873,-5.878,-5.8403,-5.8227,-5.8152,-5.8152,-5.7223,0.0,-5.6219,-5.4888,-5.3959,-5.3482,-5.3256,0.0,0.0,-5.1724,0.0,0.0,-5.2101,-5.2628,-5.3708,-5.3658,-5.4336,-5.5415,-5.5742,-5.6118,-5.647,-5.6646,-5.6721,-5.6721,-5.6721,-5.6721,-5.6771,-5.7148,-5.7022,-5.6721,-5.6721,-5.6721,-5.6771,-5.7173,-5.7273,-5.7374,-5.7775,-5.7901,-5.7901,-5.7901,-5.8001,-5.8227,-5.8629,-5.8956,-5.9182,-5.9182,-5.8001,-5.6821,-5.6445,-5.6545,-5.6445,-5.5666,0.0,0.0,0.0,0.0,0.0,0.0,0.0,0.0,0.0,0.0,0.0,0.0,0.0,0.0,0.0,0.0,0.0,0.0,0.0,0.0,0.0,-6.0311,-6.0311,-6.0311,-6.0487,-6.0864,-6.1441,-6.1994,-6.2446,-6.2797,-6.2245,-6.1692,-6.114,-6.0563,-5.9985,-5.9558,-6.0111,-6.0663,-6.124,-6.1617,-6.1768,-6.1768,-5.7524,-5.7399,-5.7374,-5.8504,-5.8704,-5.8529,-5.8001,-5.8805,-5.9282,-5.878,-5.9156,-5.9483,-5.9483,-5.9483,-5.9483,-5.9483,-5.9483,-5.9483,-5.9483,-5.9006,-5.8704,0.0,0.0,-5.7349,-5.6244,-5.5666,-5.4561,-5.2929,0.0,0.0,-4.964,-5.0193,-5.1322,-5.2929,-5.3457,-5.3683,-5.3783,-5.4888,-5.5365,-5.5491,-5.657,-5.7022,-5.7097,-5.765,-5.7876,-5.7876,-5.7876,-5.7876,-5.7876,-5.7901,-5.7876,-5.7876,-5.7876,-5.7876,-5.7876,-5.7901,-5.7901,-5.7901,-5.7901,-5.7901,-5.7901,-5.7901,-5.8278,-5.8679,-5.8704,-5.9533,-6.0311,-6.0311,-5.9433,-5.8679,-5.8679,-5.8252,-5.7876,-5.7851,0.0,0.0,0.0,0.0,0.0,0.0,0.0,-5.6394,-5.6922,0.0,0.0,0.0,0.0,0.0,0.0,0.0,0.0,-5.7876,-5.8428,0.0,-6.0311,-6.0311,-6.0311,-6.0337,-6.0889,-6.1466,-6.2019,-6.2571,-6.2822,-6.2797,-6.2245,-6.1692,-6.114,-6.0563,-5.9985,-5.9558,-6.0111,-6.0663,-6.119,-6.119,-6.119,-6.119,-5.8805,-5.883,-5.8956,-5.9684,-5.9508,-5.9307,-5.9508,-5.9207,-5.9031,-5.9232,-5.9382,-5.9483,-5.9483,-5.9483,-5.9483,0.0,-5.9483,-5.9483,0.0,-5.9332,-5.9257,-5.9257,-5.8755,-5.8303,-5.7926,-5.6997,-5.6068,-5.5164,0.0,0.0,0.0,-5.3155,-5.3532,-5.4059,-5.421,-5.4511,-5.4888,-5.5641,-5.6168,-5.657,-5.7323,-5.7625,-5.765,-5.7826,-5.7901,-5.7901,-5.7901,-5.7901,-5.7951,-5.8328,-5.8453,-5.8529,-5.888,-5.8478,-5.7976,-5.8353,-5.8453,-5.8529,-5.888,-5.8981,-5.9081,-5.9458,-5.9659,-6.001,-6.0788,-6.1215,-6.1366,-6.0989,-6.001,-5.9131,-5.878,-5.8278,-5.7901,-5.7901,-5.76,0.0,0.0,0.0,0.0,0.0,0.0,-5.5164,0.0,-5.6043,0.0,0.0,0.0,0.0,0.0,0.0,0.0,0.0,-5.9156,0.0,-6.0889,-6.0914,-6.0914,-6.0914,-6.109,-6.1667,-6.2571,-6.2747,-6.2822,-6.2822,-6.2647,-6.2245,-6.1692,-6.114,-6.0563,-6.0111,-6.0688,-6.0788,-6.0738,-6.1893,-6.1592,-6.0638,-6.0035,-6.0136,-6.0236,-6.0588,-6.0186,-5.991,-6.0261,-5.9583,-5.9131,-5.9458,-5.9483,-5.9483,-5.9483,-5.9483,0.0,-5.9483,-5.9483,-5.9483,-5.9483,-5.9483,-5.9483,-5.9483,-5.9182,-5.893,-5.873,0.0,0.0,-5.652,-5.6168,-5.5942,-5.5817,-5.5817,-5.5691,-5.5491,-5.5717,-5.5892,-5.6043,-5.662,-5.7047,-5.7399,-5.7976,-5.8202,-5.8227,-5.8428,-5.8504,-5.8504,-5.8504,-5.8504,-5.8554,-5.8905,-5.9006,-5.9056,-5.9382,-5.9031,-5.8579,-5.8905,-5.9006,-5.9081,-5.9408,-5.9483,-5.9583,-5.9935,-6.0161,-6.0563,-6.1492,-6.1868,-6.1793,-6.1014,-6.0462,-5.991,-5.9156,-5.873,-5.8504,-5.8504,-5.8152,-5.7851,-5.7675,0.0,0.0,0.0,0.0,0.0,0.0,-5.6168,0.0,0.0,0.0,0.0,0.0,0.0,0.0,-5.8905,-5.9282,0.0,-6.0537,-6.0964,-6.119,-6.119,-6.1592,-6.2169,-6.2822,-6.2822,-6.2822,-6.2822,-6.2985,-6.2683,-6.1969,-6.1551,-6.1076,-6.0622,-6.1043,-6.1043,-6.1,-6.1898,-6.1542,-6.0638,-6.114,-6.124,-6.124,0.0,-6.0788,0.0,-6.0387,-5.9885,-5.9483,-5.9483,-5.9483,-5.9483,-5.9483,-5.9483,-5.9483,-5.9483,0.0,0.0,0.0,-5.9483,-5.9483,-5.9483,-5.9483,-5.9282,-5.878,-5.8227,-5.7675,-5.7097,-5.7097,-5.7374,-5.7901,-5.7901,-5.76,-5.7123,-5.765,-5.76,-5.7123,-5.77,-5.7951,-5.8001,-5.8554,-5.878,-5.883,-5.9307,-5.9483,-5.9483,-5.9483,-5.9483,-5.9483,-5.9483,-5.9483,-5.9483,-5.9483,-5.9483,-5.9483,-5.9483,-5.9483,-5.9483,-5.9483,-5.9483,-5.9508,-5.9533,-5.996,-6.0512,-6.1065,-6.1592,-6.1642,-6.0588,-6.0738,-6.0763,-5.9734,-5.9458,-5.9382,-5.9433,-5.8604,-5.8127,-5.8604,0.0,0.0,0.0,0.0,0.0,0.0,-5.7198,-5.6118,0.0,0.0,0.0,0.0,0.0,-5.9659,-5.8052,-5.9006,-5.9583,-5.9608,-6.0688,-6.124,-6.124,-6.232,-6.2822,-6.2822,-6.2822,-6.2822,-6.2904,-6.3311,-6.2926,-6.2099,-6.1869,-6.152,-6.1139,-6.1227,-6.1483,-6.1774,-6.1374,-6.1165,-6.0993,0.0,0.0,-6.1943,-6.237,-6.1642,-6.0989,-6.0989,-6.0136,-5.9483,-5.9483,-5.9483,-5.9483,-5.9483,-5.9483,-5.9483,-5.9483,-5.9483,-5.9483,-5.9483,-5.9483,-5.9483,-5.9483,-5.9483,-5.9433,-5.9307,-5.8805,-5.8252,-5.77,-5.77,-5.775,-5.7901,-5.7901,-5.7826,-5.77,-5.7851,-5.7826,-5.7725,-5.8303,-5.8529,-5.8579,-5.9106,-5.9307,-5.9332,-5.9458,-5.9483,-5.9483,-5.9483,-5.9483,-5.9483,-5.9483,-5.9483,-5.9483,-5.9483,-5.9483,-5.9483,-5.9483,-5.9483,-5.9483,-5.9483,-5.9483,-5.9583,-6.001,-6.0563,-6.1014,-6.114,-6.1291,-6.1291,-6.104,-6.0412,-5.9935,-6.0085,-5.9106,-5.8403,-5.883,-5.8704,-5.8428,-5.8127,-5.8227,0.0,0.0,-5.8127,-5.7775,-5.7474,-5.7072,-5.7298,0.0,0.0,0.0,0.0,-6.0978,-6.07,-5.9156,-5.9759,-6.0337,-6.0788,-6.1466,-6.1818,-6.1818,-6.282,-6.3148,-6.2822,-6.3148,-6.3311,-6.3311,-6.3067,-6.2991,-6.3033,-6.2125,-6.1976,-6.2205,-6.1847,-6.1624,-6.1656,-6.1731,-6.1227,-6.0401,-6.232,-6.2395,-6.2471,-6.2772,-6.2119,-6.1466,-6.1215,-6.0437,-5.9784,-5.9533,-5.9483,-5.9483,-5.9483,-5.9483,-5.9483,-5.9483,-5.9483,-5.9483,-5.9483,-5.9483,-5.9483,-5.9483,-5.9483,-5.9483,-5.9483,-5.9207,-5.893,-5.8629,-5.8629,-5.8629,-5.8629,-5.8629,-5.8629,-5.8629,-5.8629,-5.8629,-5.8654,-5.8956,-5.9081,-5.9106,-5.9382,-5.9483,-5.9483,-5.9483,-5.9483,-5.9483,-5.9483,-5.9483,-5.9483,-5.9483,-5.9483,-5.9483,-5.9483,-5.9483,-5.9483,-5.9483,-5.9483,-5.9483,-5.9483,-5.9483,-5.9558,-5.9859,-6.0186,-6.0412,-6.0412,-6.0412,-6.0412,-6.0412,-5.9734,-5.9232,-5.9533,-5.8654,-5.8077,-5.8629,-5.8504,-5.8403,-5.8604,-5.8679,-5.8604,-5.8303,-5.8278,-5.8052,-5.7474,-5.7424,-5.7976,-5.9337,-5.8957,0.0,-6.1264,-6.1236,-6.0801,-6.0221,-6.1135,-6.159,-6.1483,-6.2038,-6.2522,-6.2961,-6.3483,-6.3635,-6.3392,-6.3635,-6.3797,-6.3716,-6.3473,-6.3554,-6.372,-6.2573,-6.2525,-6.3092,-6.2063,-6.2094,-6.2585,-6.185,-6.1391,-6.1145,-6.2822,-6.2822,-6.2822,-6.2822,-6.237,-6.1818,-6.1266,-6.0688,-6.0111,-5.9558,-5.9483,-5.9483,-5.9483,-5.9483,-5.9483,-5.9483,-5.9483,-5.9483,-5.9483,-5.9483,-5.9483,-5.9483,-5.9483,-5.9483,-5.9483,-5.9483,-5.9483,-5.9483,-5.9483,-5.9483,-5.9483,-5.9483,-5.9483,-5.9483,-5.9483,-5.9483,-5.9483,-5.9483,-5.9483,-5.9483,-5.9483,-5.9483,-5.9483,-5.9483,-5.9483,-5.9483,-5.9483,-5.9483,-5.9483,-5.9483,-5.9483,-5.9483,-5.9483,-5.9483,-5.9483,-5.9483,-5.9483,-5.9483,-5.9483,-5.9483,-5.9483,-5.9408,-5.9433,-5.9483,-5.9382,-5.9433,-5.9483,-5.9483,-5.9006,-5.8629,-5.8704,-5.8202,-5.8001,-5.873,-5.8378,-5.8403,-5.9458,0.0,-5.883,-5.883,-5.883,-5.8629,-5.8077,-5.8177,-5.8555,-5.9389,-5.9287,-5.9895,-6.1762,-6.119,-6.1084,-6.1602,-6.2601,-6.2777,-6.2027,-6.2589,-6.3232,-6.4119,-6.4119,-6.4119,-6.4119,-6.4119,-6.4225,-6.42,-6.4119,-6.4145,-6.4123,-6.3045,-6.3179,-6.3906,-6.2405,-6.2612,-6.3648,-6.1681,-6.1528,-6.2096,-6.2822,-6.2822,-6.2822,-6.2822,-6.237,-6.1818,-6.1266,-6.0688,-6.0111,-5.9558,-5.9483,-5.9483,-5.9483,-5.9483,-5.9483,-5.9483,-5.9483,-5.9483,-5.9483,-5.9483,-5.9483,-5.9483,-5.9483,-5.9483,-5.9483,-5.9483,-5.9483,-5.9483,-5.9483,-5.9483,-5.9483,-5.9483,-5.9483,-5.9483,-5.9483,-5.9483,-5.9483,-5.9483,-5.9483,-5.9483,-5.9483,-5.9483,-5.9483,-5.9483,-5.9483,-5.9483,-5.9483,-5.9483,-5.9483,-5.9483,-5.9483,-5.9483,-5.9483,-5.9483,-5.9483,-5.9483,-5.9483,-5.9483,-5.9483,-5.9483,-5.9382,-5.8956,-5.9156,-5.9382,-5.8956,-5.9182,-5.9483,-5.9483,-5.8704,-5.8177,-5.8629,-5.7876,-5.765,-5.9131,-5.893,-5.8956,-6.0035,0.0,-5.9382,-5.9382,-5.9382,-5.9182,-5.8654,-5.9312,-5.9922,-6.0023,-6.0737,-6.1735,-6.2966,-6.3229,-6.3618,-6.4213,-6.2894,-6.2492,-6.322,-6.3618,-6.3962,-6.4119,-6.4547,-6.4441,-6.4119,-6.4547,-6.4707,-6.4707,-6.428,-6.428,-6.4655,-6.3957,-6.4034,-6.4528,-6.3285,-6.3182,-6.3492,-6.1683,-6.1275,-6.1425,-6.3148,-6.2985,-6.2747,-6.2446,-6.2169,-6.1718,-6.0839,-6.0487,-6.0111,-5.9558,-5.9483,-5.9483,-5.9483,-5.9483,-5.9483,-5.9483,-5.9483,-5.9483,-5.9483,-5.9483,-5.9483,-5.9483,-5.9483,-5.9483,-5.9483,-5.9483,-5.9483,-5.9483,-5.9483,-5.9483,-5.9483,-5.9483,-5.9483,-5.9483,-5.9483,-5.9483,-5.9483,-5.9483,-5.9483,-5.9483,-5.9483,-5.9483,-5.9483,-5.9483,-5.9483,-5.9483,-5.9483,-5.9483,-5.9483,-5.9483,-5.9483,-5.9483,-5.9483,-5.9307,-5.9081,-5.9081,-5.9282,-5.9433,-5.9156,-5.9081,-5.8956,-5.8403,-5.8679,-5.9006,-5.878,-5.8905,-5.9156,-5.9433,-5.8403,-5.77,-5.8554,-5.7801,-5.7474,-5.8855,-5.888,-5.8981,-5.9759,-5.9659,-5.9483,-5.9483,-5.9483,-5.9408,-5.9156,-6.0045,-6.0761,-6.0967,-6.1659,-6.2637,-6.3881,-6.367,-6.4086,-6.5053,-6.4023,-6.3863,-6.4521,-6.4521,-6.4601,-6.484,-6.5,-6.5,-6.484,-6.5,-6.5159,-6.5079,-6.4681,-6.4681,-6.5027,-6.4218,-6.422,-6.4507,-6.3363,-6.3257,-6.349,-6.1839,-6.1632,-6.2114,-6.3473,-6.323,-6.2728,-6.2094,-6.1994,-6.1617,-6.0487,-6.0311,-6.0111,-5.9558,-5.9483,-5.9483,-5.9483,-5.9483,-5.9483,-5.9483,-5.9483,-5.9483,-5.9483,-5.9483,-5.9483,-5.9483,-5.9483,-5.9483,-5.9483,-5.9483,-5.9483,-5.9483,-5.9483,-5.9483,-5.9483,-5.9483,-5.9483,-5.9483,-5.9483,-5.9483,-5.9483,-5.9483,-5.9483,-5.9483,-5.9483,-5.9483,-5.9483,-5.9483,-5.9483,-5.9483,-5.9483,-5.9483,-5.9483,-5.9483,-5.9483,-5.9483,-5.9483,-5.9232,-5.8905,-5.8905,-5.9182,-5.9357,-5.8704,-5.8529,-5.8428,-5.8001,-5.8303,-5.873,-5.873,-5.8805,-5.9006,-5.9408,-5.8403,-5.77,-5.8554,-5.8027,-5.7801,-5.8905,-5.8981,-5.9131,-5.9784,-5.9659,-5.9483,-5.9483,-5.9483,-5.9636,-5.9839,-6.0757,-6.1528,-6.2096,-6.2818,-6.3648,-6.4613,-6.4114,-6.4295,-6.5371,-6.5079,-6.5,-6.5238,-6.5235,-6.5209,-6.5371,-6.5528,-6.5528,-6.5371,-6.5371,-6.5371,-6.5397,-6.5079,-6.5079,-6.5345,-6.4585,-6.4403,-6.4613,-6.3463,-6.328,-6.3541,-6.2012,-6.201,-6.2759,-6.3554,-6.3473,-6.3134,-6.2175,-6.1994,-6.1617,-6.0487,-6.0311,-6.0111,-5.9558,-5.9483,-5.9483,-5.9483,-5.9483,-5.9483,-5.9483,-5.9483,-5.9483,-5.9483,-5.9483,-5.9483,-5.9483,-5.9483,-5.9483,-5.9483,-5.9483,-5.9483,-5.9483,-5.9483,-5.9483,-5.9483,-5.9483,-5.9483,-5.9483,-5.9483,-5.9483,-5.9483,-5.9483,-5.9483,-5.9483,-5.9483,-5.9483,-5.9483,-5.9483,-5.9483,-5.9483,-5.9483,-5.9483,-5.9483,-5.9483,-5.9483,-5.9483,-5.9483,-5.9458,-5.9433,-5.9433,-5.9458,-5.9257,-5.8252,-5.7951,-5.7951,-5.7901,-5.8303,-5.873,-5.873,-5.9081,-5.9458,-5.9483,-5.9006,-5.8629,-5.8704,-5.8654,-5.8956,-6.0035,-5.9784,-5.9809,-6.0914,-6.0161,-5.9483,-5.9483,-5.9483,-5.9864,-6.0782,-6.181,-6.2739,-6.3647,-6.4611,-6.5187,-6.5318,-6.5239,-6.5265,-6.5371,-6.5397,-6.5159,-6.4866,-6.5706,-6.5946,-6.5397,-6.5946,-6.592,-6.5371,-6.5371,-6.5371,-6.5371,-6.5397,-6.5397,-6.5371,-6.5345,-6.5318,-6.5214,-6.4064,-6.3646,-6.3541,-6.2012,-6.201,-6.2759,-6.428,-6.4039,-6.3618,-6.2898,-6.2277,-6.1612,-6.0854,-6.0191,-5.9734,-5.9533,-5.9483,-5.9483,-5.9483,-5.9483,-5.9483,-5.9483,-5.9483,-5.9483,-5.9483,-5.9483,-5.9483,-5.9483,-5.9483,-5.9483,-5.9483,-5.9483,-5.9483,-5.9483,-5.9483,-5.9483,-5.9483,-5.9483,-5.9483,-5.9483,-5.9483,-5.9483,-5.9483,-5.9483,-5.9483,-5.9483,-5.9483,-5.9483,-5.9483,-5.9483,-5.9483,-5.9483,-5.9483,-5.9483,-5.9483,-5.9483,-5.9483,-5.9483,-5.9483,-5.9282,-5.8956,-5.8604,-5.8504,-5.8428,-5.8001,-5.8152,-5.8328,-5.7976,-5.8303,-5.873,-5.873,-5.9131,-5.9483,-5.9483,-5.9081,-5.8805,-5.9131,-5.893,-5.8956,-5.9684,-5.9633,-5.9633,-6.0085,-5.9759,-5.9483,-5.9483,-5.974,-6.0199,-6.0936,-6.212,-6.3155,-6.3855,-6.482,-6.5371,-6.5371,-6.5371,-6.5371,-6.5371,-6.5737,-6.5866,-6.5706,-6.6101,-6.6155,-6.5946,-6.6181,-6.5972,-6.5371,-6.5371,-6.5371,-6.5371,-6.5371,-6.5371,-6.5371,-6.5371,-6.5188,-6.477,-6.3985,-6.3463,-6.3097,-6.25,-6.2474,-6.2864,-6.4786,-6.4547,-6.41,-6.3376,-6.2471,-6.1596,-6.1063,-6.0195,-5.9483,-5.9483,-5.9483,-5.9483,-5.9483,-5.9483,-5.9483,-5.9483,-5.9483,-5.9483,-5.9483,-5.9483,-5.9483,-5.9483,-5.9483,-5.9483,-5.9483,-5.9483,-5.9483,-5.9483,-5.9483,-5.9483,-5.9483,-5.9483,-5.9483,-5.9483,-5.9483,-5.9483,-5.9483,-5.9483,-5.9483,-5.9483,-5.9483,-5.9483,-5.9483,-5.9483,-5.9483,-5.9483,-5.9483,-5.9483,-5.9483,-5.9483,-5.9483,-5.9483,-5.9483,-5.9257,-5.888,-5.8504,-5.8403,-5.8403,-5.8403,-5.8679,-5.883,-5.8303,-5.8453,-5.8755,-5.893,-5.9232,-5.9483,-5.9483,-5.9207,-5.9081,-5.9433,-5.9207,-5.9081,-5.9433,-5.9483,-5.9483,-5.9483,-5.9483,-5.9585,-5.9663,-6.0123,-6.0684,-6.158,-6.2689,-6.3648,-6.435,-6.5004,-6.5371,-6.5371,-6.5371,-6.5371,-6.5371,-6.5972,-6.6364,-6.6547,-6.673,-6.6652,-6.6286,-6.6442,-6.6129,-6.5371,-6.5371,-6.5371,-6.5371,-6.5371,-6.5371,-6.5371,-6.5371,-6.5162,-6.4743,-6.4168,-6.3698,-6.3332,-6.3149,-6.3201,-6.3463,-6.4866,-6.4786,-6.4526,-6.3481,-6.2497,-6.1596,-6.1089,-6.0195,-5.9508,-5.9483,-5.9483,-5.9483,-5.9483,-5.9483,-5.9483,-5.9483,-5.9483,-5.9483,-5.9483,-5.9483,-5.9483,-5.9483,-5.9483,-5.9483,-5.9483,-5.9483,-5.9483,-5.9483,-5.9483,-5.9483,-5.9483,-5.9483,-5.9483,-5.9483,-5.9483,-5.9483,-5.9483,-5.9483,-5.9483,-5.9483,-5.9483,-5.9483,-5.9483,-5.9483,-5.9483,-5.9483,-5.9483,-5.9483,-5.9483,-5.9483,-5.9483,-5.9483,-5.9483,-5.9483,-5.9483,-5.9483,-5.9483,-5.9483,-5.9483,-5.9483,-5.9382,-5.8855,-5.873,-5.8855,-5.9382,-5.9483,-5.9483,-5.9483,-5.9483,-5.9483,-5.9483,-5.9483,-5.9483,-5.9483,-5.9483,-5.9483,-5.9483,-5.9483,-5.9663,-6.0048,-6.0632,-6.1528,-6.2949,-6.357,-6.4271,-6.5345,-6.5371,-6.5371,-6.5371,-6.5371,-6.5397,-6.5397,-6.5972,-6.6547,-6.7096,-6.7697,-6.741,-6.6286,-6.6834,-6.6495,-6.5371,-6.5371,-6.5371,-6.5371,-6.5371,-6.5371,-6.5371,-6.5371,-6.5371,-6.5318,-6.477,-6.4534,-6.4456,-6.3881,-6.4038,-6.4534,-6.5238,-6.5238,-6.5027,-6.4474,-6.3481,-6.2601,-6.17,-6.0751,-5.9935,-5.9533,-5.9483,-5.9483,-5.9483,-5.9483,-5.9483,-5.9483,-5.9483,-5.9483,-5.9483,-5.9483,-5.9483,-5.9483,-5.9483,-5.9483,-5.9483,-5.9483,-5.9483,-5.9483,-5.9483,-5.9483,-5.9483,-5.9483,-5.9483,-5.9483,-5.9483,-5.9483,-5.9483,-5.9483,-5.9483,-5.9483,-5.9483,-5.9483,-5.9483,-5.9483,-5.9483,-5.9483,-5.9483,-5.9483,-5.9483,-5.9483,-5.9483,-5.9483,-5.9483,-5.9483,-5.9483,-5.9483,-5.9483,-5.9483,-5.9483,-5.9483,-5.9458,-5.9307,-5.9257,-5.9307,-5.9458,-5.9483,-5.9483,-5.9483,-5.9483,-5.9483,-5.9483,-5.9483,-5.9483,-5.9483,-5.9483,-5.9483,-5.9483,-5.9483,-5.9814,-6.0605,-6.1171,-6.2044,-6.3544,-6.4039,-6.4613,-6.5345,-6.5371,-6.5371,-6.5371,-6.5789,-6.6024,-6.6024,-6.6965,-6.7566,-6.7723,-6.7906,-6.7592,-6.6834,-6.7017,-6.6495,-6.5371,-6.5371,-6.5371,-6.5371,-6.5371,-6.5371,-6.5371,-6.5371,-6.5371,-6.5318,-6.477,-6.4534,-6.4508,-6.4351,-6.4378,-6.4587,-6.5371,-6.5371,-6.5318,-6.5079,-6.4057,-6.3094,-6.2426,-6.116,-6.0189,-5.9815,-5.9585,-5.9483,-5.9483,-5.9483,-5.9483,-5.9483,-5.9483,-5.9483,-5.9483,-5.9483,-5.9483,-5.9483,-5.9483,-5.9483,-5.9483,-5.9483,-5.9483,-5.9483,-5.9483,-5.9483,-5.9483,-5.9483,-5.9483,-5.9483,-5.9483,-5.9483,-5.9483,-5.9483,-5.9483,-5.9483,-5.9483,-5.9483,-5.9483,-5.9483,-5.9483,-5.9483,-5.9483,-5.9483,-5.9483,-5.9483,-5.9483,-5.9483,-5.9483,-5.9483,-5.9483,-5.9483,-5.9483,-5.9483,-5.9483,-5.9483,-5.9483,-5.9483,-5.9483,-5.9483,-5.9483,-5.9483,-5.9483,-5.9483,-5.9483,-5.9483,-5.9483,-5.9483,-5.9483,-5.9483,-5.9483,-5.9483,-5.9483,-5.9839,-6.0349,-6.117,-6.1967,-6.2974,-6.4065,-6.456,-6.5005,-6.5345,-6.5371,-6.5475,-6.5737,-6.6076,-6.639,-6.6599,-6.7514,-6.7985,-6.7985,-6.822,-6.7906,-6.7096,-6.7096,-6.6495,-6.5371,-6.5371,-6.5371,-6.5371,-6.5371,-6.5371,-6.5371,-6.5371,-6.5371,-6.5345,-6.5005,-6.4874,-6.4874,-6.4874,-6.4874,-6.4926,-6.5371,-6.5371,-6.5371,-6.5397,-6.4241,-6.333,-6.3181,-6.155,-6.0342,-6.02,-5.9765,-5.9483,-5.9483,-5.9483,-5.9483,-5.9483,-5.9483,-5.9483,-5.9483,-5.9483,-5.9483,-5.9483,-5.9483,-5.9483,-5.9483,-5.9483,-5.9483,-5.9483,-5.9483,-5.9483,-5.9483,-5.9483,-5.9483,-5.9483,-5.9483,-5.9483,-5.9483,-5.9483,-5.9483,-5.9483,-5.9483,-5.9483,-5.9483,-5.9483,-5.9483,-5.9483,-5.9483,-5.9483,-5.9483,-5.9483,-5.9533,-5.9558,-5.9558,-5.9558,-5.9558,-5.9558,-5.9533,-5.9483,-5.9483,-5.9483,-5.9483,-5.9483,-5.9483,-5.9483,-5.9483,-5.9483,-5.9483,-5.9483,-5.9483,-5.9483,-5.9483,-5.9483,-5.9483,-5.9483,-5.9483,-5.9483,-5.9585,-6.0374,-6.1143,-6.1659,-6.2999,-6.4064,-6.4534,-6.5083,-6.5371,-6.5371,-6.5423,-6.5711,-6.6259,-6.639,-6.6652,-6.7148,-6.7749,-6.8063,-6.8063,-6.8586,-6.8272,-6.7122,-6.7122,-6.6521,-6.5371,-6.5371,-6.5371,-6.5371,-6.5371,-6.5371,-6.5371,-6.5371,-6.5371,-6.5371,-6.5371,-6.5371,-6.5371,-6.5371,-6.5371,-6.5371,-6.5371,-6.5371,-6.5318,-6.5,-6.4683,-6.416,-6.3355,-6.2214,-6.1315,-6.086,-6.0017,-5.9483,-5.9483,-5.9483,-5.9483,-5.9483,-5.9483,-5.9483,-5.9483,-5.9483,-5.9483,-5.9483,-5.9483,-5.9483,-5.9483,-5.9483,-5.9483,-5.9483,-5.9483,-5.9483,-5.9483,-5.9483,-5.9483,-5.9483,-5.9483,-5.9483,-5.9483,-5.9483,-5.9483,-5.9483,-5.9483,-5.9483,-5.9483,-5.9483,-5.9483,-5.9483,-5.9483,-5.9483,-5.9483,-5.9483,-5.9784,-6.0136,-6.0136,-6.0136,-6.0136,-6.0136,-5.9834,-5.9483,-5.9483,-5.9483,-5.9483,-5.9483,-5.9483,-5.9483,-5.9483,-5.9483,-5.9483,-5.9483,-5.9483,-5.9483,-5.9483,-5.9483,-5.9483,-5.9483,-5.9483,-5.9585,-5.9971,-6.0529,-6.1451,-6.2612,-6.3414,-6.422,-6.5162,-6.5318,-6.5371,-6.5371,-6.5815,-6.6155,-6.6286,-6.7148,-6.7671,-6.7802,-6.835,-6.8664,-6.8664,-6.8711,-6.8246,-6.7096,-6.7096,-6.6495,-6.5371,-6.5371,-6.5371,-6.5371,-6.5371,-6.5371,-6.5371,-6.5371,-6.5371,-6.5371,-6.5371,-6.5371,-6.5371,-6.5371,-6.5371,-6.5371,-6.5371,-6.5371,-6.5318,-6.5159,-6.4761,-6.426,-6.3668,-6.2392,-6.1438,-6.1297,-6.0248,-5.956,-5.9817,-5.9637,-5.9483,-5.9483,-5.9483,-5.9483,-5.9483,-5.9483,-5.9483,-5.9483,-5.9483,-5.9483,-5.9483,-5.9483,-5.9483,-5.9483,-5.9483,-5.9483,-5.9483,-5.9483,-5.9483,-5.9483,-5.9483,-5.9483,-5.9483,-5.9483,-5.9483,-5.9483,-5.9483,-5.9483,-5.9483,-5.9483,-5.9483,-5.9483,-5.9483,-5.9483,-5.9533,-5.9809,-6.0085,-6.0362,-6.0638,-6.0738,-6.0738,-6.0738,-6.0337,-5.9885,-5.9885,-5.9684,-5.9483,-5.9483,-5.9483,-5.9483,-5.9483,-5.9483,-5.9483,-5.9483,-5.9483,-5.9483,-5.9483,-5.9483,-5.9483,-5.9483,-5.9483,-5.9738,-6.0402,-6.1168,-6.2145,-6.3336,-6.4116,-6.482,-6.5345,-6.5371,-6.5501,-6.5789,-6.6103,-6.6521,-6.707,-6.7671,-6.8115,-6.8377,-6.869,-6.8764,-6.8764,-6.8764,-6.8272,-6.7122,-6.7096,-6.6495,-6.5371,-6.5371,-6.5371,-6.5371,-6.5371,-6.5371,-6.5371,-6.5371,-6.5371,-6.5371,-6.5371,-6.5371,-6.5371,-6.5371,-6.5371,-6.5371,-6.5371,-6.5371,-6.5371,-6.5371,-6.484,-6.4286,-6.4114,-6.2624,-6.159,-6.1735,-6.0529,-5.9763,-6.0048,-5.974,-5.9483,-5.9483,-5.9483,-5.9483,-5.9483,-5.9483,-5.9483,-5.9483,-5.9483,-5.9483,-5.9483,-5.9483,-5.9483,-5.9483,-5.9483,-5.9483,-5.9483,-5.9483,-5.9483,-5.9483,-5.9483,-5.9483,-5.9483,-5.9483,-5.9483,-5.9483,-5.9483,-5.9483,-5.9483,-5.9483,-5.9483,-5.9483,-5.9483,-5.9558,-5.9709,-6.0161,-6.0437,-6.0688,-6.1165,-6.1316,-6.1316,-6.1316,-6.0914,-6.0462,-6.0462,-6.0136,-5.9759,-5.9659,-5.9633,-5.9608,-5.9508,-5.9483,-5.9483,-5.9483,-5.9483,-5.9483,-5.9483,-5.9483,-5.9533,-5.9608,-5.9711,-6.0067,-6.1116,-6.2067,-6.3076,-6.3907,-6.4794,-6.5371,-6.5371,-6.5371,-6.5632,-6.6233,-6.6364,-6.6887,-6.7932,-6.8089,-6.835,-6.8821,-6.8764,-6.8764,-6.8764,-6.8764,-6.8272,-6.7122,-6.7096,-6.6495,-6.5371,-6.5371,-6.5371,-6.5371,-6.5371,-6.5371,-6.5371,-6.5371,-6.5371,-6.5371,-6.5371,-6.5371,-6.5371,-6.5371,-6.5371,-6.5371,-6.5371,-6.5371,-6.5371,-6.5371,-6.5292,-6.5133,-6.4737,-6.3689,-6.2808,-6.2377,-6.1112,-6.0191,-6.0098,-5.974,-5.9483,-5.9483,-5.9483,-5.9483,-5.9483,-5.9483,-5.9483,-5.9483,-5.9483,-5.9483,-5.9483,-5.9483,-5.9483,-5.9483,-5.9483,-5.9483,-5.9483,-5.9483,-5.9483,-5.9483,-5.9483,-5.9483,-5.9483,-5.9483,-5.9483,-5.9483,-5.9483,-5.9483,-5.9483,-5.9483,-5.9483,-5.9483,-5.9483,-5.9809,-6.0211,-6.0286,-6.0964,-6.1793,-6.1868,-6.1893,-6.1893,-6.1893,-6.1492,-6.1065,-6.1065,-6.1014,-6.0839,-6.0337,-6.0211,-6.0085,-5.9608,-5.9483,-5.9483,-5.9483,-5.9483,-5.9483,-5.9483,-5.9483,-5.9659,-6.0136,-6.0549,-6.1141,-6.2067,-6.3101,-6.3882,-6.4352,-6.5031,-6.5371,-6.5371,-6.5371,-6.5632,-6.6233,-6.6704,-6.7279,-6.7958,-6.8455,-6.8769,-6.8764,-6.8764,-6.8764,-6.8764,-6.8764,-6.8246,-6.7096,-6.7096,-6.6495,-6.5371,-6.5371,-6.5371,-6.5371,-6.5371,-6.5371,-6.5371,-6.5371,-6.5371,-6.5371,-6.5371,-6.5371,-6.5371,-6.5371,-6.5371,-6.5371,-6.5371,-6.5371,-6.5371,-6.5371,-6.5238,-6.5,-6.4866,-6.3977,-6.3148,-6.2792,-6.1552,-6.0603,-6.0482,-5.9894,-5.9483,-5.9483,-5.9483,-5.9483,-5.9483,-5.9483,-5.9483,-5.9483,-5.9483,-5.9483,-5.9483,-5.9483,-5.9483,-5.9483,-5.9483,-5.9483,-5.9483,-5.9483,-5.9483,-5.9483,-5.9483,-5.9483,-5.9483,-5.9483,-5.9483,-5.9483,-5.9483,-5.9483,-5.9483,-5.9483,-5.9483,-5.9483,-5.9483,-5.9859,-6.0362,-6.0688,-6.1341,-6.2069,-6.237,-6.2471,-6.2471,-6.2471,-6.2069,-6.1642,-6.1642,-6.1416,-6.1115,-6.0864,-6.0788,-6.0738,-6.0487,-6.0437,-6.0261,-5.9633,-5.9483,-5.9583,-5.991,-5.996,-6.0314,-6.1432,-6.1821,-6.2443,-6.4029,-6.4345,-6.4531,-6.4926,-6.524,-6.5371,-6.5371,-6.5684,-6.6129,-6.6704,-6.7279,-6.7854,-6.8429,-6.8716,-6.8764,-6.8764,-6.8764,-6.8764,-6.8764,-6.8764,-6.8246,-6.7096,-6.7096,-6.6495,-6.5371,-6.5371,-6.5371,-6.5371,-6.5371,-6.5371,-6.5371,-6.5371,-6.5371,-6.5371,-6.5371,-6.5371,-6.5371,-6.5371,-6.5371,-6.5371]},{"header":{"parameterUnit":"m.s-1","parameterCategory":1,"la1":30.6,"la2":28.766,"lo1":-90.7593,"lo2":-88.6598,"dx":0.0162,"dy":0.0183,"nx":116,"ny":114,"refTime":"2022-12-26T06:00:00:Z","depth":0,"parameterNumber":3,"parameterNumberName":"V-component_of_WINDS"},"data":[0.0,0.0,0.0,0.0,0.0,0.0,0.0,0.0,0.0,0.0,0.0,0.0,0.0,0.0,0.0,0.0,0.0,0.0,0.0,0.0,0.0,0.0,0.0,0.0,0.0,0.0,0.0,0.0,0.0,0.0,0.0,0.0,0.0,0.0,0.0,0.0,0.0,0.0,0.0,0.0,0.0,0.0,0.0,0.0,0.0,0.0,0.0,0.0,0.0,0.0,0.0,0.0,0.0,0.0,0.0,0.0,0.0,0.0,0.0,0.0,0.0,0.0,0.0,0.0,0.0,0.0,0.0,0.0,0.0,0.0,0.0,0.0,0.0,0.0,0.0,0.0,0.0,0.0,0.0,0.0,0.0,0.0,0.0,0.0,0.0,0.0,0.0,0.0,0.0,0.0,0.0,0.0,0.0,0.0,0.0,0.0,0.0,0.0,0.0,0.0,0.0,0.0,0.0,0.0,0.0,0.0,0.0,0.0,0.0,0.0,0.0,0.0,0.0,0.0,0.0,0.0,0.0,0.0,0.0,0.0,0.0,0.0,0.0,0.0,0.0,0.0,0.0,0.0,0.0,0.0,0.0,0.0,0.0,0.0,0.0,0.0,0.0,0.0,0.0,0.0,0.0,0.0,0.0,0.0,0.0,0.0,0.0,0.0,0.0,0.0,0.0,0.0,0.0,0.0,0.0,0.0,0.0,0.0,0.0,0.0,0.0,0.0,0.0,0.0,0.0,0.0,0.0,0.0,0.0,0.0,0.0,0.0,0.0,0.0,0.0,0.0,0.0,0.0,0.0,0.0,0.0,0.0,0.0,0.0,0.0,0.0,0.0,0.0,0.0,0.0,0.0,0.0,0.0,0.0,0.0,0.0,0.0,0.0,0.0,0.0,0.0,0.0,0.0,0.0,0.0,0.0,0.0,0.0,0.0,0.0,0.0,0.0,0.0,0.0,0.0,0.0,0.0,0.0,0.0,0.0,0.0,0.0,0.0,0.0,0.0,0.0,0.0,0.0,0.0,0.0,0.0,0.0,0.0,0.0,0.0,0.0,0.0,0.0,0.0,0.0,0.0,0.0,0.0,0.0,0.0,0.0,0.0,0.0,0.0,0.0,0.0,0.0,0.0,0.0,0.0,0.0,0.0,0.0,0.0,0.0,0.0,0.0,0.0,0.0,0.0,0.0,0.0,0.0,0.0,0.0,0.0,0.0,0.0,0.0,0.0,0.0,0.0,0.0,0.0,0.0,0.0,0.0,0.0,0.0,0.0,0.0,0.0,0.0,0.0,0.0,0.0,0.0,0.0,0.0,0.0,0.0,0.0,0.0,0.0,0.0,0.0,0.0,0.0,0.0,0.0,0.0,0.0,0.0,0.0,0.0,0.0,0.0,0.0,0.0,0.0,0.0,0.0,0.0,0.0,0.0,0.0,0.0,0.0,0.0,0.0,0.0,0.0,0.0,0.0,0.0,0.0,0.0,0.0,0.0,0.0,0.0,0.0,0.0,0.0,0.0,0.0,0.0,0.0,0.0,0.0,0.0,0.0,0.0,0.0,0.0,0.0,0.0,0.0,0.0,0.0,0.0,0.0,0.0,0.0,0.0,0.0,0.0,0.0,0.0,0.0,0.0,0.0,0.0,0.0,0.0,0.0,0.0,0.0,0.0,0.0,0.0,0.0,0.0,0.0,0.0,0.0,0.0,0.0,0.0,0.0,0.0,0.0,0.0,0.0,0.0,0.0,0.0,0.0,0.0,0.0,0.0,0.0,0.0,0.0,0.0,0.0,0.0,0.0,0.0,0.0,0.0,0.0,0.0,0.0,0.0,0.0,0.0,0.0,0.0,0.0,0.0,0.0,0.0,0.0,0.0,0.0,0.0,0.0,0.0,0.0,0.0,0.0,0.0,0.0,0.0,0.0,0.0,0.0,0.0,0.0,0.0,0.0,0.0,0.0,0.0,0.0,0.0,0.0,0.0,0.0,0.0,0.0,0.0,0.0,0.0,0.0,0.0,0.0,0.0,0.0,0.0,0.0,0.0,0.0,0.0,0.0,0.0,0.0,0.0,0.0,0.0,0.0,0.0,0.0,0.0,0.0,0.0,0.0,0.0,0.0,0.0,0.0,0.0,0.0,0.0,0.0,0.0,0.0,0.0,0.0,0.0,0.0,0.0,0.0,0.0,0.0,0.0,0.0,0.0,0.0,0.0,0.0,0.0,0.0,0.0,0.0,0.0,0.0,0.0,0.0,0.0,0.0,0.0,0.0,0.0,0.0,0.0,0.0,0.0,0.0,0.0,0.0,0.0,0.0,0.0,0.0,0.0,0.0,0.0,0.0,0.0,0.0,0.0,0.0,0.0,0.0,0.0,0.0,0.0,0.0,0.0,0.0,0.0,0.0,0.0,0.0,0.0,0.0,0.0,0.0,0.0,0.0,0.0,0.0,0.0,0.0,0.0,0.0,0.0,0.0,0.0,0.0,0.0,0.0,0.0,0.0,0.0,0.0,0.0,0.0,0.0,0.0,0.0,0.0,0.0,0.0,0.0,0.0,0.0,0.0,0.0,0.0,0.0,0.0,0.0,0.0,0.0,0.0,0.0,0.0,0.0,0.0,0.0,0.0,0.0,0.0,0.0,0.0,0.0,0.0,0.0,0.0,0.0,0.0,0.0,0.0,0.0,0.0,0.0,0.0,0.0,0.0,0.0,0.0,0.0,0.0,0.0,0.0,0.0,0.0,0.0,0.0,0.0,0.0,0.0,0.0,0.0,0.0,0.0,0.0,0.0,0.0,0.0,0.0,0.0,0.0,0.0,0.0,0.0,0.0,0.0,0.0,0.0,0.0,0.0,0.0,0.0,0.0,0.0,0.0,0.0,0.0,0.0,0.0,0.0,0.0,0.0,0.0,0.0,0.0,0.0,0.0,0.0,0.0,0.0,0.0,0.0,0.0,0.0,0.0,0.0,0.0,0.0,0.0,0.0,0.0,0.0,0.0,0.0,0.0,0.0,0.0,0.0,0.0,0.0,0.0,0.0,0.0,0.0,0.0,0.0,0.0,0.0,0.0,0.0,0.0,0.0,0.0,0.0,0.0,0.0,0.0,0.0,0.0,0.0,0.0,0.0,0.0,0.0,0.0,0.0,0.0,0.0,0.0,0.0,0.0,0.0,0.0,0.0,0.0,0.0,0.0,0.0,0.0,0.0,0.0,0.0,0.0,0.0,0.0,0.0,0.0,0.0,0.0,0.0,0.0,0.0,0.0,0.0,0.0,0.0,0.0,0.0,0.0,0.0,0.0,0.0,0.0,0.0,0.0,0.0,0.0,0.0,0.0,0.0,0.0,0.0,0.0,0.0,0.0,0.0,0.0,0.0,0.0,0.0,0.0,0.0,0.0,0.0,0.0,0.0,0.0,0.0,0.0,0.0,0.0,0.0,0.0,0.0,0.0,0.0,0.0,0.0,0.0,0.0,0.0,0.0,0.0,0.0,0.0,0.0,0.0,0.0,0.0,0.0,0.0,0.0,0.0,0.0,0.0,0.0,0.0,0.0,0.0,0.0,0.0,0.0,0.0,0.0,0.0,0.0,0.0,0.0,0.0,0.0,0.0,0.0,0.0,0.0,0.0,0.0,0.0,0.0,0.0,0.0,0.0,0.0,0.0,0.0,0.0,0.0,0.0,0.0,0.0,0.0,0.0,0.0,0.0,0.0,0.0,0.0,0.0,0.0,0.0,0.0,0.0,0.0,0.0,0.0,0.0,0.0,0.0,0.0,0.0,0.0,0.0,0.0,0.0,0.0,0.0,0.0,0.0,0.0,0.0,0.0,0.0,0.0,0.0,0.0,0.0,0.0,0.0,0.0,0.0,0.0,0.0,0.0,0.0,0.0,0.0,0.0,0.0,0.0,0.0,0.0,0.0,0.0,0.0,0.0,0.0,0.0,0.0,0.0,0.0,0.0,0.0,0.0,0.0,0.0,0.0,0.0,0.0,0.0,0.0,0.0,0.0,0.0,0.0,0.0,0.0,0.0,0.0,0.0,0.0,0.0,0.0,0.0,0.0,0.0,0.0,0.0,0.0,0.0,0.0,0.0,0.0,0.0,0.0,0.0,0.0,0.0,0.0,0.0,0.0,0.0,0.0,0.0,0.0,0.0,0.0,0.0,0.0,0.0,0.0,0.0,0.0,0.0,0.0,0.0,0.0,0.0,0.0,0.0,0.0,0.0,0.0,0.0,0.0,0.0,0.0,0.0,0.0,0.0,0.0,0.0,0.0,0.0,0.0,0.0,0.0,0.0,0.0,0.0,0.0,0.0,0.0,0.0,0.0,0.0,0.0,0.0,0.0,0.0,0.0,0.0,0.0,0.0,0.0,0.0,0.0,0.0,0.0,0.0,0.0,0.0,0.0,0.0,0.0,0.0,0.0,0.0,0.0,0.0,0.0,0.0,0.0,0.0,0.0,0.0,0.0,0.0,0.0,0.0,0.0,0.0,0.0,0.0,0.0,0.0,0.0,0.0,0.0,0.0,0.0,0.0,0.0,0.0,0.0,0.0,0.0,0.0,0.0,0.0,0.0,0.0,0.0,0.0,0.0,0.0,0.0,0.0,0.0,0.0,0.0,0.0,0.0,0.0,0.0,0.0,0.0,0.0,0.0,0.0,0.0,0.0,0.0,0.0,0.0,0.0,0.0,0.0,0.0,0.0,0.0,0.0,0.0,0.0,0.0,0.0,0.0,0.0,0.0,0.0,0.0,0.0,0.0,0.0,0.0,0.0,0.0,0.0,0.0,0.0,0.0,0.0,0.0,0.0,0.0,0.0,0.0,0.0,0.0,0.0,0.0,0.0,0.0,0.0,0.0,0.0,0.0,0.0,0.0,0.0,0.0,0.0,0.0,0.0,0.0,0.0,0.0,0.0,0.0,0.0,0.0,0.0,0.0,0.0,0.0,0.0,0.0,0.0,0.0,0.0,0.0,0.0,0.0,0.0,0.0,0.0,0.0,0.0,0.0,0.0,0.0,0.0,0.0,0.0,0.0,0.0,0.0,0.0,0.0,0.0,0.0,0.0,0.0,0.0,0.0,0.0,0.0,0.0,0.0,0.0,0.0,0.0,0.0,0.0,0.0,0.0,0.0,0.0,0.0,0.0,0.0,0.0,0.0,0.0,0.0,0.0,0.0,0.0,0.0,0.0,0.0,0.0,0.0,0.0,0.0,0.0,0.0,0.0,0.0,0.0,0.0,0.0,0.0,0.0,0.0,0.0,0.0,0.0,0.0,0.0,0.0,0.0,0.0,0.0,0.0,0.0,0.0,0.0,0.0,0.0,0.0,0.0,0.0,0.0,0.0,0.0,0.0,0.0,0.0,0.0,0.0,0.0,0.0,0.0,0.0,0.0,0.0,0.0,0.0,0.0,0.0,0.0,0.0,0.0,0.0,0.0,0.0,0.0,0.0,0.0,0.0,0.0,0.0,0.0,0.0,0.0,0.0,0.0,0.0,0.0,0.0,0.0,0.0,0.0,0.0,0.0,0.0,0.0,0.0,0.0,0.0,0.0,0.0,0.0,0.0,0.0,0.0,0.0,0.0,0.0,0.0,0.0,0.0,0.0,0.0,0.0,0.0,0.0,0.0,0.0,0.0,0.0,0.0,0.0,0.0,0.0,0.0,0.0,0.0,0.0,0.0,0.0,0.0,0.0,0.0,0.0,0.0,0.0,0.0,0.0,0.0,0.0,0.0,0.0,0.0,0.0,0.0,0.0,0.0,0.0,0.0,0.0,0.0,0.0,0.0,0.0,0.0,0.0,0.0,0.0,0.0,0.0,0.0,0.0,0.0,0.0,0.0,0.0,0.0,0.0,0.0,0.0,0.0,0.0,0.0,0.0,0.0,0.0,0.0,0.0,0.0,0.0,0.0,0.0,0.0,0.0,0.0,0.0,0.0,0.0,0.0,0.0,0.0,0.0,0.0,0.0,0.0,0.0,0.0,0.0,0.0,0.0,0.0,0.0,0.0,0.0,0.0,0.0,0.0,0.0,0.0,0.0,0.0,0.0,0.0,0.0,0.0,0.0,0.0,0.0,0.0,0.0,0.0,0.0,0.0,0.0,0.0,0.0,0.0,0.0,0.0,0.0,5.0371,0.0,0.0,0.0,0.0,0.0,0.0,0.0,0.0,0.0,0.0,0.0,0.0,0.0,0.0,0.0,0.0,0.0,0.0,0.0,0.0,0.0,0.0,0.0,0.0,0.0,0.0,0.0,0.0,0.0,0.0,0.0,0.0,0.0,0.0,0.0,0.0,0.0,3.0313,3.1958,3.2587,3.4262,3.6776,3.54,3.3574,3.1448,0.0,0.0,0.0,0.0,0.0,0.0,0.0,0.0,0.0,0.0,0.0,0.0,0.0,0.0,0.0,0.0,0.0,0.0,0.0,0.0,0.0,0.0,0.0,0.0,0.0,0.0,0.0,0.0,0.0,0.0,0.0,0.0,0.0,0.0,0.0,0.0,0.0,0.0,0.0,0.0,0.0,0.0,0.0,0.0,0.0,0.0,0.0,0.0,0.0,0.0,0.0,0.0,0.0,0.0,0.0,0.0,0.0,0.0,0.0,0.0,0.0,0.0,0.0,0.0,0.0,0.0,0.0,0.0,0.0,0.0,0.0,5.1894,0.0,0.0,0.0,0.0,0.0,0.0,0.0,0.0,0.0,0.0,0.0,0.0,0.0,0.0,0.0,0.0,0.0,0.0,0.0,0.0,0.0,0.0,0.0,0.0,2.9026,2.9711,2.9146,2.9086,0.0,0.0,0.0,0.0,0.0,0.0,0.0,0.0,3.2198,3.5013,3.6237,3.8372,4.131,4.1769,3.9691,3.5567,3.4972,0.0,0.0,0.0,0.0,0.0,0.0,0.0,0.0,0.0,0.0,0.0,0.0,0.0,0.0,0.0,0.0,0.0,0.0,0.0,0.0,0.0,0.0,0.0,0.0,0.0,0.0,0.0,0.0,0.0,0.0,0.0,0.0,0.0,0.0,0.0,0.0,0.0,0.0,0.0,0.0,0.0,0.0,0.0,0.0,0.0,0.0,0.0,0.0,0.0,0.0,0.0,0.0,0.0,0.0,0.0,0.0,0.0,0.0,0.0,0.0,0.0,0.0,0.0,5.663,5.6934,5.7408,5.8017,5.9302,6.0892,5.7171,5.5818,5.6122,5.4126,0.0,0.0,0.0,0.0,0.0,0.0,0.0,0.0,0.0,0.0,0.0,0.0,0.0,0.0,0.0,0.0,0.0,0.0,0.0,0.0,0.0,2.8996,2.9714,3.0342,2.9804,2.9983,0.0,0.0,0.0,0.0,0.0,0.0,0.0,3.2198,3.3814,3.7015,4.0539,4.318,4.4887,4.4403,4.4134,4.3881,4.0944,0.0,0.0,0.0,0.0,0.0,0.0,0.0,0.0,0.0,0.0,0.0,0.0,0.0,0.0,0.0,0.0,0.0,0.0,0.0,0.0,0.0,0.0,0.0,0.0,0.0,0.0,0.0,0.0,0.0,0.0,0.0,0.0,0.0,0.0,0.0,0.0,0.0,0.0,0.0,0.0,0.0,0.0,0.0,4.7768,4.8694,0.0,0.0,0.0,0.0,0.0,0.0,0.0,0.0,0.0,0.0,0.0,0.0,0.0,5.6596,5.7442,5.822,5.8896,5.9539,6.0216,6.025,5.9674,5.9776,5.9979,6.0216,5.9641,0.0,5.849,5.7543,0.0,0.0,0.0,0.0,0.0,0.0,0.0,0.0,0.0,0.0,0.0,0.0,0.0,0.0,0.0,0.0,0.0,0.0,0.0,0.0,0.0,3.2377,3.3724,3.4322,3.4472,3.4472,3.4322,3.3694,0.0,0.0,0.0,0.0,3.4173,3.525,3.7793,4.1833,4.4706,4.6653,4.7667,4.7406,4.7406,4.7619,4.5813,4.351,4.0865,4.0448,0.0,0.0,0.0,0.0,0.0,0.0,0.0,0.0,0.0,0.0,0.0,0.0,0.0,0.0,0.0,0.0,0.0,0.0,0.0,0.0,0.0,0.0,0.0,0.0,0.0,0.0,0.0,0.0,0.0,0.0,0.0,0.0,0.0,0.0,0.0,0.0,0.0,0.0,0.0,4.7436,4.8729,5.066,5.0493,5.0627,0.0,0.0,0.0,0.0,0.0,0.0,0.0,0.0,0.0,5.707,5.8118,5.9235,6.0419,5.9877,6.0013,6.0791,6.1129,6.1569,6.2042,6.2448,6.3091,6.3835,6.299,6.2448,6.2042,6.0452,5.9607,5.9336,0.0,0.0,0.0,0.0,5.7848,5.7712,0.0,0.0,0.0,0.0,0.0,0.0,0.0,0.0,0.0,0.0,0.0,0.0,3.3215,3.534,3.6985,3.7614,3.8093,3.8123,3.7524,3.6866,0.0,0.0,0.0,3.6058,3.6746,3.8841,4.1798,4.5645,4.7769,4.9239,5.0095,5.0409,5.0364,5.008,4.9993,4.7921,4.449,4.4429,4.3067,0.0,0.0,0.0,0.0,0.0,0.0,0.0,0.0,0.0,0.0,0.0,0.0,0.0,0.0,0.0,0.0,0.0,0.0,0.0,0.0,0.0,0.0,0.0,0.0,0.0,0.0,0.0,0.0,0.0,0.0,0.0,0.0,0.0,0.0,0.0,0.0,0.0,0.0,4.9261,5.0359,5.284,5.2971,5.3544,0.0,0.0,0.0,0.0,0.0,0.0,5.8186,5.9268,5.9979,6.0148,6.0892,6.1873,6.3226,6.211,6.1839,6.2415,6.2415,6.2922,6.3802,6.4343,6.5189,6.6203,6.5087,6.4816,6.4986,6.2584,6.1704,6.1839,6.167,6.1231,6.0655,6.0283,6.0047,6.0013,0.0,0.0,0.0,0.0,0.0,0.0,0.0,0.0,0.0,0.0,0.0,3.4592,3.528,3.6567,3.7614,3.8272,3.8362,3.8901,4.0127,3.9589,3.9738,4.0935,3.9828,3.9469,4.0127,4.2701,4.481,4.6542,4.8933,5.0864,5.2348,5.3321,5.3278,5.2362,5.3541,5.2236,4.9166,4.6724,4.6431,4.7109,0.0,0.0,0.0,0.0,0.0,0.0,0.0,0.0,0.0,0.0,0.0,0.0,0.0,0.0,0.0,0.0,0.0,0.0,0.0,0.0,0.0,0.0,0.0,0.0,0.0,0.0,0.0,0.0,0.0,0.0,0.0,0.0,0.0,0.0,0.0,0.0,0.0,0.0,0.0,5.578,5.613,0.0,0.0,0.0,0.0,5.981,5.9302,5.9844,6.1975,6.2178,6.255,6.326,6.4005,6.4749,6.5527,6.5459,6.5425,6.5459,6.5459,6.5155,6.4546,6.458,6.4647,6.4715,6.4647,6.5392,6.6474,6.3531,6.2753,6.3328,6.2618,6.2313,6.2347,6.3024,6.2821,6.2415,0.0,0.0,0.0,0.0,0.0,2.6273,2.738,2.8517,2.9864,3.1569,3.3754,3.5549,3.6626,3.8661,4.0217,4.0943,4.2102,4.2851,4.291,4.309,4.303,4.2641,4.1773,4.2013,4.3509,4.5304,4.7289,4.9565,5.0829,5.2017,5.298,5.3326,5.328,5.2967,5.3641,5.3373,5.2282,5.0575,4.9083,4.7756,4.6057,4.4691,0.0,0.0,0.0,0.0,0.0,0.0,0.0,0.0,0.0,0.0,0.0,0.0,0.0,0.0,0.0,0.0,0.0,0.0,0.0,0.0,0.0,0.0,0.0,0.0,0.0,0.0,0.0,0.0,0.0,0.0,0.0,0.0,0.0,0.0,0.0,0.0,0.0,5.754,5.8178,0.0,6.0617,6.0791,6.14,6.2888,6.2313,6.2685,6.441,6.4512,6.485,6.5628,6.5899,6.6373,6.7117,6.6643,6.6406,6.6406,6.6406,6.6508,6.6711,6.6711,6.7015,6.7489,6.7489,6.7793,6.8199,6.7151,6.688,6.7083,6.6812,6.6711,6.6745,6.7015,6.6948,6.6779,0.0,0.0,0.0,0.0,2.6333,2.7405,2.8727,2.9684,3.1031,3.3245,3.525,3.6985,3.8272,4.0786,4.2551,4.301,4.4616,4.5454,4.5005,4.5185,4.5095,4.4665,4.4047,4.4526,4.6262,4.7399,4.9045,5.1229,5.2336,5.3114,5.3582,5.4413,5.4364,5.3552,5.4468,5.4276,5.3299,5.2867,5.1527,4.9648,4.9333,4.8189,4.6389,0.0,0.0,0.0,0.0,0.0,0.0,0.0,0.0,0.0,0.0,0.0,0.0,0.0,0.0,0.0,0.0,0.0,0.0,0.0,0.0,0.0,0.0,0.0,0.0,0.0,0.0,0.0,0.0,0.0,0.0,0.0,0.0,0.0,0.0,0.0,5.6616,5.9084,6.0158,6.1351,6.295,6.3125,6.3632,6.4884,6.4512,6.4783,6.6,6.6068,6.6305,6.6779,6.6812,6.7151,6.7895,6.7421,6.732,6.759,6.7827,6.8199,6.8673,6.8944,6.935,6.9857,6.9857,6.9992,7.0195,7.0195,7.0364,7.05,6.9755,6.962,6.9857,6.9857,6.9857,6.9857,0.0,0.0,0.0,2.5794,2.6752,2.8094,2.9442,3.0731,3.2497,3.522,3.7225,3.8931,4.0307,4.2761,4.4317,4.4317,4.5574,4.6339,4.6279,4.5723,4.5963,4.7219,4.6711,4.701,4.8327,4.903,4.9972,5.1319,5.3264,5.4221,5.4301,5.6823,5.665,5.437,5.6279,5.5348,5.2472,5.357,5.3817,5.3364,5.191,5.0916,4.9955,0.0,0.0,0.0,0.0,0.0,0.0,0.0,0.0,0.0,0.0,0.0,0.0,0.0,0.0,0.0,0.0,0.0,0.0,0.0,0.0,0.0,0.0,0.0,0.0,0.0,0.0,0.0,0.0,0.0,0.0,0.0,0.0,0.0,5.6012,5.7166,5.8864,6.0638,6.2213,6.3593,6.4573,6.4715,6.4986,6.5696,6.5764,6.6068,6.6779,6.6812,6.6812,6.6846,6.6846,6.7218,6.7963,6.7963,6.8368,6.918,6.9891,7.0229,7.0297,7.1007,7.1379,7.1379,7.1413,7.1819,7.2462,7.2496,7.2902,7.3341,7.1142,7.0737,7.1379,7.1379,7.1379,7.1345,2.7375,2.7315,2.7255,2.7076,2.8154,2.9322,3.0133,3.139,3.3334,3.6477,3.7764,3.926,4.1602,4.3329,4.4317,4.4317,4.6411,4.7339,4.6339,4.704,4.7219,4.6621,4.7339,4.8356,4.9628,5.0331,5.1558,5.3384,5.3952,5.4461,5.494,5.5659,5.5944,5.6005,5.7277,5.7417,5.6797,5.7316,5.6449,5.4672,5.3342,5.2407,5.1578,0.0,0.0,0.0,0.0,0.0,0.0,0.0,0.0,0.0,0.0,0.0,0.0,0.0,0.0,0.0,0.0,0.0,0.0,0.0,0.0,0.0,0.0,0.0,0.0,0.0,0.0,0.0,0.0,0.0,0.0,0.0,0.0,5.9496,5.8899,6.0263,6.1932,6.3609,6.4396,6.5345,6.688,6.6981,6.7083,6.7286,6.7286,6.7151,6.6846,6.6812,6.7049,6.759,6.759,6.8233,6.9553,6.9553,6.9958,7.0703,7.0906,7.1278,7.1785,7.2022,7.2394,7.2902,7.3477,7.3815,7.4052,7.4559,7.4897,7.4931,7.324,7.2699,7.2902,7.2902,7.2563,7.2191,2.7585,2.7585,2.7585,2.7585,2.8933,3.0193,3.0793,3.2317,3.4412,3.7434,3.8392,3.9709,4.2141,4.3539,4.4436,4.4706,4.6411,4.7249,4.677,4.7698,4.8177,4.7924,4.8955,5.0122,5.1439,5.2127,5.3054,5.4221,5.4491,5.482,5.5179,5.5872,5.6293,5.6492,5.7735,5.8421,5.8582,5.8517,5.7956,5.6983,5.5408,5.394,5.2659,5.1834,5.0916,4.9988,4.969,4.9558,4.9525,4.9226,0.0,0.0,0.0,0.0,0.0,0.0,0.0,0.0,0.0,0.0,0.0,0.0,0.0,0.0,0.0,0.0,0.0,0.0,0.0,0.0,0.0,0.0,0.0,0.0,6.0655,6.1815,6.1848,6.2704,6.3848,6.5316,6.589,6.6776,6.8258,6.8402,6.8267,6.7929,6.8199,6.8064,6.732,6.759,6.8098,6.8842,6.8842,6.9586,7.1109,7.1109,7.1481,7.2225,7.2529,7.2935,7.3341,7.3646,7.4018,0.0,7.4864,7.5067,7.51,7.5506,7.5912,0.0,0.0,0.0,0.0,0.0,7.4356,7.4289,2.7585,2.7585,2.7585,2.7585,2.9205,3.0731,3.1391,3.3215,3.5492,3.8242,3.908,4.0247,4.25,4.3658,4.4616,4.5334,4.6112,4.68,4.7369,4.7967,4.8835,5.0016,5.09,5.1947,5.3264,5.3892,5.4251,5.4311,5.491,5.5179,5.5259,5.6735,5.704,5.6423,5.7942,5.872,5.8826,5.8484,5.876,5.9273,5.7705,5.5692,5.3597,5.3535,5.2738,5.1578,5.1015,5.0817,5.075,5.0154,0.0,0.0,0.0,0.0,0.0,0.0,0.0,0.0,0.0,0.0,0.0,0.0,0.0,0.0,0.0,0.0,0.0,0.0,0.0,0.0,0.0,0.0,0.0,0.0,6.2974,6.4365,6.4465,6.4564,6.5039,6.6153,6.6943,6.7856,6.9103,6.9214,6.8944,6.8199,6.8808,6.891,6.8199,0.0,0.0,0.0,0.0,7.0973,7.2394,7.2394,7.2766,7.351,7.4153,7.4525,7.4627,7.527,7.5608,7.5709,7.5811,7.5845,7.5845,7.5912,7.6386,7.6961,7.6251,7.5912,7.5845,7.5845,7.6217,7.6657,2.7585,2.7585,2.7585,2.7585,2.9205,3.0731,3.1391,3.3215,3.5851,3.9529,3.9679,4.0786,4.4347,4.4496,4.4796,4.6022,4.7219,4.7967,4.8087,4.8207,4.8626,4.9434,5.1109,5.2636,5.3982,5.4132,5.4461,5.4999,5.5119,5.5179,5.5209,5.6092,5.6769,5.737,5.8212,5.9037,5.9835,6.0014,5.9434,5.8478,5.91,5.8025,5.5886,5.4717,5.4129,5.3964,5.4357,5.4556,5.4589,5.509,5.4626,5.3864,5.3732,0.0,0.0,0.0,0.0,0.0,0.0,0.0,0.0,0.0,0.0,0.0,0.0,0.0,0.0,0.0,0.0,0.0,0.0,0.0,0.0,6.1715,6.3305,6.4564,6.5127,6.5724,6.6334,6.6956,6.7846,6.884,6.9891,6.9992,6.9925,6.9755,6.9891,6.9891,6.9755,6.9891,7.0331,7.1075,7.1109,7.1515,7.2394,7.2394,7.2766,7.3477,0.0,0.0,7.4627,7.4762,7.5134,7.5743,7.6386,7.6657,7.6724,7.7299,7.7638,7.7773,7.7604,7.7198,7.6657,7.6657,7.6352,7.5912,2.7675,2.7585,2.7585,2.7585,2.9205,3.0731,3.1391,3.3215,3.5582,3.8512,3.8901,3.9918,4.2551,4.315,4.3748,4.4695,4.6352,4.7429,4.7788,4.8087,4.9015,5.0661,5.1678,5.2995,5.467,5.47,5.485,5.5179,5.5179,5.5179,5.5209,5.5867,5.6624,5.7355,5.8052,5.9124,6.0378,6.0198,5.9933,5.9617,5.9177,5.8398,5.7421,5.6519,5.5918,5.5587,5.5582,5.5852,5.6216,5.6581,5.668,5.6647,5.6282,5.5421,5.4162,0.0,0.0,0.0,0.0,0.0,0.0,0.0,0.0,0.0,0.0,0.0,0.0,0.0,0.0,5.8336,0.0,0.0,6.1583,6.3083,6.3945,6.4498,6.4862,6.5823,6.6965,6.8194,6.8764,6.9525,7.0624,7.0737,7.0737,7.0737,7.1075,7.1278,7.1278,7.165,7.2191,7.2935,7.2969,7.3308,7.4052,7.4052,7.4221,7.4593,7.4593,7.4796,7.5168,7.5574,7.5946,7.6352,7.7096,7.7435,7.7502,7.8247,7.8111,7.7502,7.8247,7.8348,7.7976,7.7604,7.7435,7.7367,2.8094,2.7974,2.7914,2.7645,2.9205,3.0702,3.1212,3.3006,3.5011,3.6985,3.7704,3.8691,4.0397,4.1572,4.262,4.3589,4.5263,4.6548,4.7249,4.7908,4.9344,5.1708,5.1947,5.2965,5.497,5.4999,5.5059,5.5179,5.5179,5.5179,5.5209,5.5867,5.6436,5.6944,5.7633,5.8791,6.0175,5.9799,6.0109,6.0746,5.9301,5.869,5.8615,5.8338,5.7574,5.6647,5.6349,5.6547,5.6912,5.7077,5.7906,5.8767,5.8038,5.7376,5.6514,5.4427,5.4125,0.0,0.0,0.0,0.0,0.0,0.0,0.0,0.0,0.0,5.6846,5.7442,5.8734,6.0291,6.2122,6.2553,6.2941,6.4001,6.4399,6.4597,6.4597,6.5735,6.7243,6.8985,6.9377,6.9894,7.0906,7.13,7.1515,7.1515,7.2191,7.2665,7.2834,7.3375,7.4052,7.4796,7.483,7.51,7.5676,7.5709,7.5709,7.5709,7.5709,7.5709,7.5743,7.6521,7.6893,7.6961,7.7807,7.828,7.845,7.9058,7.8551,7.7468,7.8653,7.9025,7.8822,7.8044,7.8145,7.8585,2.9382,2.9382,2.8992,2.7794,2.9205,3.0522,3.0612,3.2317,3.4322,3.6327,3.6656,3.7853,4.0935,4.1414,4.2462,4.4855,4.5843,4.6548,4.7249,4.7908,4.8925,5.0345,5.0973,5.2276,5.4281,5.4311,5.461,5.5179,5.5179,5.5179,5.5209,5.5867,5.6248,5.6368,5.6944,5.7626,5.8467,5.9337,5.9706,5.9897,6.0897,6.0509,5.9393,5.9655,5.8469,5.6846,5.8071,5.8171,5.7773,5.8436,5.8767,5.8767,5.8038,5.774,5.7376,5.5819,0.0,5.4295,5.3334,5.3301,5.3864,5.5118,5.5984,5.6614,0.0,0.0,6.0523,6.0589,6.1781,6.2884,6.315,6.3637,6.3935,6.3471,6.4465,6.5293,6.5293,6.6201,6.7179,6.8057,6.8985,6.9614,6.9906,7.1345,7.2293,7.2293,7.2969,7.3646,7.4322,7.4458,7.483,7.554,7.5574,7.5608,7.5709,7.5709,7.5709,7.5709,7.5709,7.5709,7.5743,7.6521,7.6893,7.6995,7.8382,7.9363,7.9972,8.004,7.96,7.8889,7.9058,7.872,7.801,7.7299,7.7063,7.7029,2.9681,2.9621,2.9442,2.8873,2.9714,3.0642,3.1002,3.2138,3.3514,3.51,3.6031,3.7015,3.8392,3.9559,4.0995,4.2851,4.3988,4.4814,4.5514,4.6561,4.7908,4.9583,4.9942,5.102,5.2995,5.3054,5.3563,5.461,5.461,5.482,5.5209,5.5478,5.5807,5.6248,5.6436,5.6915,5.7513,5.8006,5.8001,5.7628,5.7826,5.7386,5.6703,5.7396,5.6959,5.6039,5.7086,5.7544,0.0,0.0,5.7377,5.7352,5.7687,5.7456,5.6807,5.5864,5.6017,0.0,5.7111,5.6614,5.6316,5.7806,5.8734,5.9231,5.9098,6.0456,6.1715,6.1715,6.2875,6.3868,6.3902,6.4167,6.4266,0.0,6.4432,6.4829,6.4829,6.5514,6.6123,6.6467,6.8111,6.952,7.015,7.0846,7.1892,7.3345,7.3716,7.4317,7.5202,7.5236,7.5371,7.5676,7.5709,7.5709,7.5709,7.5709,7.5709,7.5709,7.5709,7.5709,7.5743,7.6961,7.801,7.8855,7.9464,7.9904,8.0175,7.9735,7.9126,7.8416,7.7976,7.7367,7.6724,7.7299,7.7536,7.7468,3.0223,3.0133,3.0133,3.0133,3.0492,3.0881,3.1182,3.178,3.2647,3.3784,3.4771,3.5729,3.6656,3.8003,3.9559,4.1235,4.2252,4.324,4.4257,4.5214,4.6741,4.894,4.888,4.9643,5.1618,5.1648,5.2217,5.3384,5.3563,5.3892,5.4371,5.4551,5.488,5.5359,5.5359,5.5718,5.6286,5.6286,5.6137,5.5888,5.5501,5.5074,5.4715,5.5705,5.5611,5.5122,5.6081,5.6649,0.0,0.0,5.59,5.605,5.6613,5.6653,5.6376,5.5719,5.6453,5.7773,5.9032,5.8767,5.8403,5.9694,6.0721,6.1251,6.0721,6.1748,6.2818,6.2818,6.3769,6.4564,6.4399,6.4531,6.4597,6.4399,6.4531,6.4664,6.4664,6.5138,6.5603,6.5989,6.7675,6.9356,7.0784,7.1225,7.2183,7.408,7.4383,7.4849,7.5676,7.5709,7.5709,7.5709,7.5709,7.5709,7.5709,7.5709,7.5709,7.5709,7.5912,7.6014,7.6082,7.7604,7.8991,8.0209,8.0209,8.0209,8.0141,7.9397,7.8788,7.8213,7.7502,7.686,7.6454,7.757,7.7705,7.7401,3.1451,3.1451,3.1451,3.1451,3.1451,3.1241,3.0642,3.1092,3.178,3.2467,3.2617,3.3813,3.7045,3.7434,3.8512,4.1145,4.1452,4.2252,4.4197,4.4347,4.5544,4.8207,4.7698,4.8297,5.0196,5.0255,5.0584,5.1319,5.1947,5.2276,5.2306,5.2935,5.3264,5.3264,5.3264,5.3653,5.4311,5.4311,5.464,5.525,5.5529,5.5284,5.4715,5.5781,5.534,5.4359,5.5947,0.0,0.0,0.0,5.4768,5.5295,5.4465,5.5336,5.6486,5.5595,5.5988,5.6879,5.7641,5.8336,5.9032,5.9827,6.1086,6.2188,6.2155,6.3239,6.4299,6.4299,6.4895,6.516,6.4432,6.4895,6.516,6.4498,6.4962,6.5392,6.5392,6.5603,6.6224,6.738,6.7829,6.9084,0.0,7.3038,7.386,7.4181,7.4854,7.5388,7.5676,7.5709,7.5709,7.5709,7.5709,7.5709,7.5709,7.5709,7.5709,7.5709,7.6487,7.686,7.6927,7.8416,7.9498,8.0209,8.0209,8.0209,8.0141,7.9397,7.9092,7.8991,7.8247,7.7942,7.7908,7.7976,7.7029,7.5879,3.1511,3.1511,3.1511,3.1511,3.1511,3.1421,3.1182,3.1361,3.157,3.1809,3.1839,0.0,0.0,0.0,0.0,0.0,3.932,4.0546,4.1654,4.297,4.4287,4.5603,4.6292,4.716,4.8267,4.8716,4.9464,5.0524,5.0734,5.1109,5.1558,5.1768,5.1887,5.1887,5.1887,5.2007,5.2217,5.2217,5.2097,5.1887,5.1994,5.1923,5.1864,5.3265,5.3233,5.253,0.0,0.0,0.0,0.0,0.0,5.1704,5.3656,5.4176,5.4348,5.6153,5.6904,5.7568,5.9465,6.0191,6.0655,6.1881,6.2908,6.3637,6.3603,6.4365,6.5061,6.5061,6.4895,6.4664,6.4399,6.4564,6.4664,6.4432,6.4962,6.5591,6.6088,6.663,6.7339,6.8208,6.9727,0.0,0.0,0.0,0.0,7.4597,7.4948,7.5277,7.5709,7.5709,7.5709,7.5709,7.5709,7.5709,7.5709,7.6217,7.6487,7.6521,7.7266,7.7874,7.8382,7.8889,7.9498,8.0209,8.0209,8.0209,8.0141,7.9397,7.9126,7.9025,7.828,7.7976,7.8044,7.8551,7.8416,7.7874,3.1511,3.1511,3.1511,3.1511,3.1511,0.0,0.0,0.0,0.0,0.0,0.0,0.0,0.0,0.0,0.0,0.0,0.0,3.8841,3.9978,4.1474,4.2701,4.3569,4.4436,4.5334,4.6232,4.6651,4.7519,4.879,4.903,4.9523,5.0182,5.0421,5.0511,5.0511,5.0511,5.0511,5.0511,5.0511,5.0541,5.0495,4.9823,4.9777,5.0258,5.0834,5.0645,0.0,0.0,0.0,0.0,0.0,4.9252,4.9491,5.2187,5.3461,5.4415,5.6755,5.805,5.9114,6.0985,6.1881,6.251,6.3438,6.42,6.473,6.4697,6.5061,6.5425,6.5425,6.5061,6.4763,6.4763,6.4763,6.4763,6.4763,6.5127,6.5657,6.6419,6.7102,6.8076,6.9334,7.0958,7.2216,0.0,0.0,0.0,7.4902,7.5018,7.5179,7.5662,7.5709,7.5709,7.5709,7.5709,7.5845,7.6115,7.6893,7.7671,7.8483,7.8957,7.9566,8.0276,8.0276,8.0547,8.0987,8.0716,8.0581,8.0513,7.9532,7.9261,7.9431,7.8686,7.872,7.9228,7.9701,7.9904,7.9701,3.154,3.154,3.1511,0.0,0.0,0.0,0.0,0.0,0.0,0.0,0.0,0.0,0.0,0.0,0.0,0.0,0.0,0.0,3.9074,3.9918,0.0,4.2201,4.2351,4.298,4.4137,4.4227,4.4885,4.607,4.677,4.7429,4.8057,4.876,4.906,4.906,4.909,4.912,4.912,4.912,4.9793,5.075,4.8835,4.8835,4.9807,4.8596,0.0,0.0,0.0,0.0,0.0,4.7249,4.7922,4.8954,5.0425,5.3428,5.6663,5.7524,5.9353,6.1342,6.2146,6.3382,6.4399,6.4432,6.4929,6.5425,6.5425,6.5392,6.5359,6.5359,6.5326,6.5326,0.0,0.0,6.5359,6.5392,6.5425,6.569,6.6519,6.7281,6.8539,0.0,0.0,0.0,0.0,0.0,0.0,7.4886,0.0,7.5179,7.5594,7.5676,7.5676,7.5642,7.5709,7.6149,7.6961,7.7739,7.9228,8.1359,8.1359,8.1731,8.2408,8.2408,8.2408,8.2306,8.1629,8.1291,8.1122,7.9769,7.96,8.0141,7.9464,8.004,8.1224,8.1325,8.1325,8.119,0.0,0.0,0.0,0.0,0.0,0.0,0.0,0.0,0.0,0.0,0.0,0.0,0.0,0.0,0.0,0.0,0.0,0.0,3.6477,3.8482,0.0,0.0,0.0,0.0,0.0,0.0,0.0,4.3359,4.4018,4.4396,4.4575,4.5274,4.5574,4.5603,4.6082,4.6292,4.6292,4.6292,4.6501,4.6711,0.0,4.5813,4.6531,0.0,0.0,0.0,0.0,0.0,0.0,4.6232,4.8134,5.0623,5.3796,5.6107,5.8186,6.0748,6.156,6.2068,6.4057,6.4498,6.4498,6.5028,6.5293,6.5425,6.5425,6.5028,6.463,6.463,6.42,6.3968,0.0,0.0,0.0,6.5326,6.5425,0.0,6.7877,6.8771,0.0,7.2283,0.0,7.3773,7.4188,7.4221,0.0,0.0,7.4569,7.4847,7.4613,7.531,7.5439,7.4897,7.598,7.6961,7.7705,7.9532,8.1021,8.2137,8.2137,8.2238,8.2408,8.2408,8.2103,8.1596,8.1968,8.1494,8.0479,8.0648,8.0513,8.0242,8.0581,8.0615,8.0615,8.1697,8.1765,8.1325,0.0,0.0,0.0,0.0,0.0,0.0,0.0,0.0,0.0,0.0,0.0,0.0,0.0,0.0,0.0,0.0,0.0,0.0,0.0,3.6985,0.0,0.0,0.0,0.0,0.0,0.0,0.0,0.0,0.0,0.0,4.291,4.3569,4.3858,4.3898,4.4287,4.4436,4.4436,4.4436,0.0,0.0,0.0,0.0,0.0,0.0,0.0,0.0,0.0,0.0,0.0,4.7431,4.9634,5.1819,5.3849,5.6294,5.8936,6.1116,6.209,6.2872,6.4856,6.5012,6.4675,6.5258,6.5425,6.5326,6.5028,6.4664,6.4299,6.3968,6.3614,6.357,6.4597,6.4564,0.0,0.0,0.0,0.0,6.8407,6.9599,7.0991,0.0,7.374,0.0,7.4221,7.4221,7.4106,0.0,7.4237,7.4579,7.4719,7.5026,7.5506,7.6082,7.6623,7.7705,7.9397,8.1291,8.2644,8.3389,8.3389,8.3389,8.3355,8.305,8.2644,8.2272,0.0,8.1765,8.0716,8.1122,8.0851,8.0242,8.0648,8.075,8.0784,8.1441,8.1711,8.1626,0.0,0.0,0.0,0.0,0.0,0.0,0.0,0.0,0.0,0.0,0.0,0.0,0.0,0.0,0.0,0.0,0.0,0.0,0.0,0.0,0.0,0.0,0.0,0.0,0.0,0.0,0.0,0.0,0.0,0.0,0.0,0.0,0.0,0.0,0.0,0.0,0.0,0.0,0.0,0.0,0.0,0.0,0.0,0.0,0.0,0.0,0.0,0.0,0.0,4.9176,5.123,5.2474,5.2863,5.5745,5.9207,6.0424,6.1943,6.3585,6.5246,6.5245,6.4911,6.542,6.5492,6.5227,6.4531,6.4299,6.4001,6.3173,6.2974,6.3405,6.473,6.4564,6.473,6.6287,0.0,6.6949,6.8606,6.9931,7.1355,7.2912,7.374,7.4221,7.4221,7.4221,7.4188,7.4089,7.3905,7.4195,7.5108,7.5026,7.5946,7.8213,7.7773,7.8822,8.1562,8.2949,8.3964,8.464,8.464,8.464,8.4606,8.3828,8.3456,8.3321,8.2626,0.0,8.1156,8.1257,8.0851,8.0209,8.031,8.0682,8.1105,8.105,8.1316,8.1615,0.0,0.0,0.0,0.0,0.0,0.0,0.0,0.0,0.0,0.0,3.6896,3.6118,0.0,0.0,0.0,0.0,0.0,0.0,0.0,0.0,0.0,0.0,0.0,0.0,0.0,0.0,0.0,0.0,0.0,0.0,0.0,0.0,0.0,0.0,0.0,0.0,0.0,0.0,0.0,0.0,0.0,0.0,0.0,0.0,0.0,0.0,0.0,0.0,0.0,0.0,4.9945,5.2104,5.5907,5.7868,5.9376,6.2427,6.334,6.3857,6.6527,6.6031,6.5008,6.6047,6.5856,6.5227,6.4531,6.3902,6.3073,6.1748,6.1483,6.1748,6.2577,6.3183,6.4133,6.6187,6.6022,6.6552,6.9235,6.9831,7.0759,0.0,0.0,0.0,0.0,0.0,0.0,0.0,0.0,7.3864,7.4079,7.5638,7.7536,7.9735,8.0276,8.1359,8.3084,8.3998,8.4505,8.464,8.464,8.464,8.4606,8.3828,8.3186,8.2577,8.2214,0.0,8.0445,8.0849,8.0647,8.0242,8.0851,8.0716,8.019,8.135,8.0957,7.9909,0.0,0.0,0.0,0.0,0.0,0.0,0.0,4.0277,4.0965,4.2342,4.2252,4.0905,3.7883,3.6926,3.5699,0.0,0.0,0.0,0.0,0.0,0.0,0.0,0.0,0.0,0.0,0.0,0.0,0.0,0.0,0.0,0.0,0.0,0.0,0.0,0.0,0.0,0.0,0.0,0.0,0.0,0.0,0.0,0.0,0.0,0.0,0.0,0.0,0.0,0.0,0.0,4.9075,5.1369,5.535,5.7198,5.8441,6.1482,6.2237,6.261,6.4784,6.5012,6.4705,6.5078,6.5548,6.5624,6.4133,6.3282,6.2278,6.0821,6.0225,6.0423,6.1923,6.2146,0.0,6.5525,6.5657,6.632,6.8871,0.0,0.0,0.0,0.0,0.0,0.0,0.0,0.0,0.0,0.0,7.4286,7.4433,7.6332,7.8111,7.96,8.0716,8.2002,8.349,8.4234,8.464,8.464,8.464,8.4403,8.3998,8.3253,8.2543,8.1832,8.2083,0.0,8.0276,8.1083,8.0967,8.0192,8.0275,8.0104,7.9817,8.0263,7.9852,7.916,0.0,0.0,0.0,0.0,0.0,0.0,0.0,4.2821,4.3519,4.5992,4.604,4.4515,4.1055,3.9499,3.7614,0.0,0.0,0.0,0.0,0.0,0.0,0.0,0.0,0.0,0.0,0.0,0.0,0.0,0.0,0.0,0.0,0.0,0.0,0.0,0.0,0.0,0.0,0.0,0.0,0.0,0.0,0.0,0.0,0.0,0.0,0.0,0.0,0.0,4.3499,4.6202,4.8207,5.0076,5.3174,5.5299,5.7174,5.9614,6.0495,6.1091,6.3056,6.3868,6.4247,6.4481,6.5237,6.5486,6.3692,6.2547,6.1438,5.9852,5.9065,5.9198,6.0962,6.102,6.1715,0.0,6.4862,6.579,0.0,0.0,0.0,0.0,0.0,0.0,0.0,0.0,0.0,0.0,0.0,0.0,7.5301,7.7021,7.8483,7.9532,8.0851,8.2238,8.3727,8.4336,8.464,8.464,8.464,8.4234,8.3456,8.2746,8.2002,8.1325,8.1779,0.0,0.0,8.1163,8.0979,8.0006,7.9544,7.9492,7.951,7.9094,7.8883,7.8777,0.0,0.0,0.0,0.0,0.0,0.0,0.0,4.294,4.4018,4.6052,4.5244,4.4556,4.4736,4.3629,4.0846,0.0,0.0,0.0,0.0,0.0,0.0,0.0,0.0,0.0,0.0,0.0,0.0,0.0,0.0,0.0,0.0,0.0,0.0,0.0,0.0,0.0,0.0,0.0,0.0,0.0,0.0,0.0,0.0,0.0,0.0,0.0,0.0,4.1871,4.289,4.5514,4.692,4.7938,4.9986,5.2845,5.5852,5.8185,5.9097,6.0059,6.3401,6.39,6.3911,6.6158,6.5432,6.3975,6.3429,6.1994,6.0218,5.8375,5.7939,5.7939,5.8171,5.9231,0.0,0.0,0.0,0.0,0.0,0.0,0.0,0.0,0.0,0.0,0.0,0.0,0.0,0.0,7.4423,0.0,7.6286,7.7389,7.8923,8.1021,8.1866,8.3016,8.4505,8.4606,8.464,8.464,8.464,8.4234,8.3456,8.2746,8.2002,8.1291,8.0875,0.0,0.0,8.0067,7.9881,7.944,7.9388,7.9232,7.8988,7.8936,7.8777,7.8511,0.0,0.0,0.0,0.0,0.0,0.0,4.306,4.3129,4.4088,4.7638,4.7279,4.6501,4.5963,4.5454,4.2851,3.7135,0.0,0.0,0.0,0.0,0.0,0.0,0.0,0.0,0.0,0.0,0.0,0.0,0.0,0.0,0.0,0.0,0.0,0.0,0.0,0.0,0.0,0.0,0.0,0.0,0.0,0.0,0.0,0.0,0.0,0.0,0.0,0.0,4.2141,4.4347,4.5544,4.6441,4.8446,5.0242,5.2282,5.561,5.7518,5.9014,6.1195,6.3173,6.4449,6.394,6.42,6.4114,6.2154,6.0098,5.8278,5.6783,5.6117,5.5819,5.5819,5.7376,5.9164,0.0,0.0,0.0,0.0,0.0,0.0,0.0,0.0,0.0,0.0,0.0,7.4221,7.4221,7.4423,0.0,7.5354,7.6659,7.8388,8.0326,8.154,8.296,8.4606,8.464,8.464,8.464,8.464,8.3892,8.2585,8.2439,8.1558,8.0221,8.0762,0.0,0.0,8.0106,7.9953,7.9336,7.9022,7.8883,7.8883,7.8724,7.8564,7.8511,0.0,0.0,0.0,0.0,0.0,3.9798,4.3958,4.3509,4.4148,4.8191,4.8117,4.7279,4.6142,4.5514,4.3299,3.8691,3.7195,0.0,0.0,0.0,0.0,0.0,0.0,0.0,0.0,0.0,3.4113,3.4771,3.4322,0.0,0.0,0.0,0.0,0.0,0.0,0.0,0.0,0.0,0.0,0.0,0.0,0.0,0.0,0.0,0.0,0.0,0.0,0.0,0.0,0.0,0.0,4.5244,4.6651,4.7848,4.9509,5.3443,5.5867,5.7573,5.9099,6.1721,6.3693,6.2359,6.2613,6.2699,6.0703,5.842,5.6353,5.5188,5.456,5.4195,5.4195,5.5819,5.7641,0.0,0.0,0.0,0.0,0.0,0.0,0.0,0.0,7.2581,0.0,7.4221,7.4221,7.4221,7.4372,0.0,7.4473,7.6422,7.818,7.9614,8.1398,8.3038,8.4446,8.4587,8.464,8.464,8.4297,8.3414,8.1989,8.1858,8.0927,7.9422,8.0576,0.0,0.0,8.0053,7.9867,7.9074,7.8671,7.8617,7.8777,7.8564,7.8511,7.8511,0.0,0.0,0.0,0.0,0.0,0.0,4.4586,4.4167,4.4246,4.698,4.6741,4.6082,4.5394,4.3609,4.1901,4.0487,3.8003,0.0,0.0,0.0,0.0,0.0,0.0,0.0,0.0,0.0,3.4801,3.5489,3.5489,3.5489,3.5519,3.5489,0.0,0.0,0.0,0.0,0.0,0.0,0.0,0.0,0.0,0.0,3.6567,0.0,0.0,0.0,0.0,0.0,0.0,0.0,0.0,0.0,0.0,4.5723,4.8087,5.2037,5.4162,5.5658,5.7603,5.9409,6.1092,6.2417,6.0753,5.8923,5.9422,5.7113,5.4645,5.3625,5.3434,5.3434,5.3434,5.4589,5.6117,0.0,0.0,0.0,0.0,0.0,0.0,0.0,0.0,7.2581,7.4089,7.4221,7.4221,7.4221,7.4221,0.0,7.4221,7.692,7.8777,7.9388,8.1797,8.347,8.4211,8.448,8.464,8.4553,8.3597,8.2696,8.1989,8.0953,8.0091,0.0,0.0,0.0,0.0,7.9735,7.9388,7.8511,7.8511,7.8511,7.8511,7.8511,7.8511,7.8511,0.0,0.0,0.0,0.0,0.0,0.0,0.0,4.1594,4.2102,4.4276,4.4366,4.4336,4.4586,4.3309,4.1692,3.9888,0.0,0.0,0.0,0.0,0.0,0.0,0.0,0.0,0.0,0.0,3.5699,3.6806,3.7255,3.7255,3.6806,3.7255,3.7105,3.6447,0.0,0.0,0.0,0.0,0.0,0.0,0.0,3.6148,3.7135,0.0,0.0,0.0,0.0,0.0,0.0,0.0,0.0,0.0,0.0,0.0,0.0,4.8386,5.105,5.3593,5.5568,5.7395,5.8558,5.7779,5.7198,5.659,5.5834,5.4157,5.264,5.2046,5.2373,5.2407,5.1413,5.403,5.668,5.7641,0.0,0.0,0.0,0.0,0.0,6.8837,7.1686,7.3873,0.0,0.0,7.4221,7.4221,7.4221,0.0,7.49,7.6258,7.7747,7.9321,8.2107,8.3758,8.4211,8.448,8.4426,8.4048,8.3383,8.2483,8.137,8.0795,7.9388,0.0,0.0,0.0,0.0,7.7409,7.712,7.5963,7.6846,7.7213,7.7213,7.7213,7.7741,7.8511,0.0,0.0,0.0,0.0,0.0,0.0,0.0,4.0756,4.1205,4.2432,4.2581,4.2851,4.3509,4.268,4.1422,3.9918,0.0,0.0,0.0,0.0,0.0,0.0,0.0,0.0,3.5549,3.6507,3.7734,3.929,3.9918,4.0038,3.9679,4.0098,3.9529,3.8153,3.7764,3.6956,0.0,0.0,0.0,0.0,3.522,3.6028,3.7404,0.0,0.0,0.0,0.0,0.0,0.0,0.0,0.0,0.0,0.0,0.0,0.0,0.0,4.7997,5.0541,5.3025,5.4824,5.5792,5.472,5.4268,5.3991,5.3589,5.2398,5.1407,5.1325,5.168,5.1678,5.0783,5.35,5.6282,5.7574,6.0299,0.0,0.0,0.0,0.0,6.9699,0.0,0.0,0.0,7.4487,7.4221,7.4221,7.4221,0.0,7.4884,7.5794,7.7063,7.8764,8.1511,8.326,8.3851,8.4339,8.415,8.3373,8.2818,8.192,8.0668,7.9525,7.8135,0.0,0.0,0.0,0.0,7.5842,7.5669,7.4767,7.5528,7.6066,7.6201,7.6002,7.6556,7.7404,0.0,0.0,0.0,0.0,0.0,0.0,0.0,4.1235,4.1265,4.1212,4.1302,4.1542,4.2051,4.1572,4.0876,4.0187,0.0,0.0,0.0,0.0,0.0,0.0,0.0,0.0,3.7434,3.8751,4.0367,4.2321,4.3,4.3329,4.3329,4.3419,4.2102,3.9619,3.9493,3.8362,3.6417,0.0,0.0,0.0,3.4801,3.5699,0.0,0.0,0.0,0.0,0.0,0.0,0.0,0.0,0.0,0.0,0.0,0.0,0.0,0.0,0.0,0.0,0.0,5.1798,5.2845,5.2845,5.1917,5.1272,5.2266,5.1578,0.0,5.1122,5.138,5.1514,5.1415,5.3301,5.5587,5.7608,6.0324,0.0,0.0,6.632,0.0,0.0,7.331,0.0,7.4354,7.4288,7.4221,7.4221,7.4221,0.0,7.4288,7.5463,7.6727,7.8003,8.0128,8.1863,8.3232,8.4123,8.3928,8.2716,8.1892,8.0996,7.994,7.7604,7.6484,0.0,0.0,0.0,0.0,7.4794,7.4735,7.441,7.4593,7.5002,7.5507,7.4908,7.5157,7.5659,0.0,0.0,0.0,0.0,0.0,0.0,0.0,0.0,0.0,0.0,4.0008,4.0307,3.9409,3.917,3.8631,0.0,0.0,0.0,0.0,0.0,0.0,0.0,0.0,0.0,3.8123,3.899,4.0127,4.1662,4.2761,4.309,4.268,4.3629,4.324,4.1662,4.0606,3.8811,3.6477,3.6148,0.0,0.0,3.534,3.6118,0.0,0.0,0.0,0.0,3.9373,4.0277,0.0,0.0,0.0,0.0,0.0,0.0,0.0,0.0,4.4526,4.5065,4.6352,0.0,4.9434,4.9434,4.9194,4.9086,0.0,4.9828,5.008,5.0265,5.2138,5.3434,5.234,5.5719,5.8899,5.9396,6.0986,6.2917,6.4895,0.0,0.0,7.3243,7.3475,7.4005,7.5662,7.48,7.4221,7.4221,7.4221,7.4487,7.4999,7.48,7.6078,7.9148,7.8486,7.9463,8.2466,8.3473,8.3619,8.2843,8.1251,8.0043,7.904,7.6912,7.5094,0.0,0.0,0.0,7.1855,7.2922,7.2736,7.198,7.3446,7.4098,7.4283,7.4686,7.5495,7.6385,0.0,0.0,0.0,0.0,0.0,0.0,0.0,0.0,0.0,0.0,0.0,0.0,0.0,0.0,0.0,0.0,0.0,0.0,0.0,0.0,0.0,0.0,0.0,3.7943,3.929,4.0277,4.1564,4.318,4.4197,4.4377,4.3718,4.4766,4.4197,4.2321,4.0666,3.8811,3.6866,3.6297,3.5818,3.5489,3.516,0.0,0.0,0.0,0.0,0.0,3.9373,4.0277,0.0,4.1782,4.2491,4.3349,0.0,0.0,0.0,0.0,4.4077,4.4377,4.4736,4.6082,4.7399,4.7399,4.7848,4.844,4.8917,5.0174,5.1374,5.1881,5.3864,5.5388,5.4957,5.7972,6.0523,6.0523,6.2577,0.0,0.0,0.0,7.0693,7.3376,7.3641,7.4038,0.0,7.4635,7.4221,7.4221,7.4221,7.4133,7.3947,7.4115,7.4733,7.5936,7.6173,7.8285,8.2477,8.2787,8.2392,8.1467,8.0304,7.8978,7.7302,7.5292,7.3817,0.0,0.0,0.0,7.0954,7.1601,7.1503,7.0984,7.2089,7.283,7.3408,7.3468,7.4286,7.5327,0.0,0.0,0.0,0.0,0.0,0.0,0.0,0.0,0.0,0.0,0.0,0.0,0.0,0.0,0.0,0.0,0.0,0.0,0.0,0.0,0.0,0.0,0.0,3.9768,4.0546,4.1961,4.3579,4.5304,4.6202,4.6322,4.5753,4.6232,4.5065,4.247,4.0666,3.902,3.7494,3.6297,3.5699,3.5459,3.4861,0.0,0.0,0.0,0.0,0.0,0.0,0.0,0.0,4.2021,4.2641,4.326,4.3958,0.0,0.0,0.0,0.0,0.0,4.4287,4.5364,4.6441,4.6309,4.7309,4.8561,4.95,0.0,5.3091,5.4277,5.5817,5.7186,5.7873,5.986,6.1417,6.1285,0.0,0.0,6.9169,7.0295,7.1455,7.2945,7.3641,0.0,7.4354,7.4288,7.4221,7.4221,0.0,7.3492,7.2432,7.3201,7.3087,7.1914,7.3834,7.7196,8.1976,8.1491,8.0678,7.9694,7.9069,7.7682,7.5514,7.3571,7.261,7.2455,0.0,0.0,7.0889,7.0889,7.0889,7.0919,7.1009,7.1816,7.2864,7.2385,7.2984,7.3941,0.0,0.0,0.0,0.0,0.0,0.0,0.0,0.0,0.0,0.0,0.0,0.0,0.0,0.0,0.0,0.0,0.0,0.0,0.0,0.0,0.0,0.0,3.896,3.9978,4.1205,4.306,4.4436,4.5304,4.71,4.7938,4.7818,4.7369,4.5753,4.321,4.2351,4.0583,3.8182,3.7434,3.6507,3.5489,3.54,0.0,0.0,0.0,0.0,0.0,0.0,0.0,0.0,4.1362,4.2021,4.268,4.323,0.0,0.0,0.0,0.0,0.0,4.4167,4.5693,4.701,4.6471,4.7309,4.8681,5.0211,5.1135,0.0,0.0,0.0,0.0,0.0,6.1053,6.2742,6.2155,0.0,6.685,0.0,0.0,7.1455,7.2945,0.0,7.374,7.4999,7.4586,7.4221,7.4221,0.0,7.2624,7.2379,7.1593,7.1593,7.2578,7.2373,7.4085,7.7776,7.826,7.8679,7.9032,7.7277,7.596,7.4962,7.2945,7.1723,7.1212,0.0,7.0889,7.0889,7.0889,7.0889,7.0949,7.1517,7.2206,7.2984,7.3432,7.4061,7.4629,0.0,0.0,0.0,0.0,0.0,0.0,0.0,0.0,0.0,0.0,0.0,0.0,0.0,0.0,0.0,0.0,0.0,0.0,0.0,0.0,3.7853,3.8901,3.9918,4.1085,4.2402,4.4018,4.5185,4.5843,4.7848,4.8446,4.7728,4.6711,4.5214,4.3329,4.2351,4.0756,3.8871,3.7853,3.6866,3.5998,0.0,0.0,0.0,0.0,0.0,0.0,0.0,0.0,0.0,0.0,4.1871,4.253,4.312,0.0,0.0,0.0,0.0,0.0,4.4137,4.5244,4.6501,4.7638,4.9434,5.1129,5.1864,5.3774,0.0,0.0,0.0,0.0,0.0,0.0,6.4002,6.4223,0.0,6.6865,6.7797,6.9298,7.0991,0.0,0.0,7.3257,7.3678,7.343,7.294,7.2325,0.0,0.0,7.0456,7.0543,7.0318,6.972,7.0307,7.1629,7.3627,7.3934,7.5177,7.7242,7.5952,7.4633,7.3248,7.1964,7.1188,7.0889,0.0,7.0889,7.0889,7.0889,7.0889,7.0919,7.1248,7.1996,7.3043,7.4061,7.4629,7.4839,0.0,0.0,0.0,0.0,0.0,0.0,0.0,0.0,0.0,0.0,0.0,0.0,0.0,0.0,0.0,0.0,0.0,0.0,0.0,0.0,3.8242,3.9589,4.0905,4.2222,4.3499,4.5005,4.6172,4.701,4.8835,4.8985,4.7519,4.6621,4.5364,4.3778,4.2432,4.1115,3.9768,3.8272,3.7285,3.6656,0.0,0.0,0.0,0.0,0.0,0.0,0.0,0.0,0.0,0.0,0.0,0.0,0.0,0.0,0.0,4.329,4.3409,4.3678,4.4377,4.5364,4.683,4.9359,5.1349,5.2972,5.3814,5.607,5.8128,0.0,0.0,0.0,0.0,6.3273,6.4028,6.5191,6.5763,6.6612,6.8011,6.9238,7.0759,7.2614,7.2729,7.2602,7.242,7.2165,7.1593,0.0,0.0,0.0,6.8825,6.9406,6.8914,6.706,6.8698,7.0034,7.0889,7.1068,7.2586,7.5422,7.4565,7.3408,7.1876,7.1218,7.0889,7.0889,7.0889,7.0889,7.0889,7.0889,7.0889,7.0889,7.0889,7.1727,7.3043,7.421,7.4749,7.4869,0.0,0.0,0.0,0.0,0.0,0.0,0.0,0.0,0.0,0.0,0.0,0.0,0.0,0.0,0.0,0.0,0.0,0.0,3.6417,3.7614,3.8931,4.0277,4.1632,4.291,4.4227,4.6172,4.7788,4.909,5.0421,5.0092,4.8237,4.879,4.7652,4.5095,4.3738,4.2462,4.1115,3.914,3.7943,3.7285,3.6656,0.0,0.0,0.0,0.0,0.0,0.0,0.0,0.0,0.0,0.0,0.0,0.0,0.0,4.329,4.329,4.3738,4.4377,4.5035,4.707,4.9509,5.1468,5.1678,5.2214,5.5595,5.6354,5.7061,5.9471,0.0,0.0,0.0,6.1359,6.1897,6.3273,6.4351,6.5772,6.783,0.0,7.1123,7.1985,7.1676,7.1707,7.2314,7.1374,7.0711,0.0,0.0,0.0,6.8825,6.7819,6.7152,6.6999,6.838,6.9606,7.0889,7.1517,7.2571,7.4016,7.2763,7.2068,7.1876,7.1218,7.0889,7.0889,7.0889,7.0889,7.0889,7.0889,7.0889,7.0889,7.0889,7.1727,7.3013,7.3702,7.436,7.4869,0.0,0.0,0.0,0.0,0.0,0.0,0.0,0.0,0.0,0.0,0.0,0.0,0.0,0.0,0.0,0.0,0.0,0.0,3.7045,3.7883,3.917,4.0935,4.1542,4.294,4.5514,4.7519,4.8985,4.9883,5.078,5.0631,4.9494,4.8506,4.707,4.5244,4.3888,4.2611,4.1302,3.9709,3.8631,3.7913,3.6896,3.7015,0.0,0.0,0.0,0.0,0.0,0.0,0.0,0.0,4.0217,4.0876,4.1572,4.1923,4.2282,4.305,4.3768,4.4646,4.6142,4.7878,4.9988,5.2755,5.3264,5.3871,5.6838,5.7775,5.8324,5.9518,6.0043,0.0,0.0,0.0,6.3701,6.2487,6.4303,6.5969,6.6371,6.7989,6.9581,7.0757,7.0726,7.0503,7.0192,6.9751,0.0,0.0,0.0,0.0,6.7668,6.7274,6.6999,6.6999,6.7478,6.8375,6.9722,6.9961,7.0739,7.2026,7.1936,7.1667,7.1278,7.1009,7.0889,7.0889,7.0889,7.0889,7.0889,7.0889,7.0889,7.0949,7.1368,7.2086,7.2984,7.3642,7.43,7.4869,0.0,0.0,0.0,0.0,0.0,0.0,0.0,0.0,0.0,0.0,0.0,0.0,0.0,0.0,0.0,0.0,0.0,0.0,3.7704,3.8332,3.9529,4.1294,4.1602,4.303,4.5933,4.7938,4.9374,5.0196,5.0853,5.0661,4.9583,4.8027,4.68,4.5843,4.4067,4.2851,4.1923,4.0367,3.9349,3.8631,3.7524,3.7345,0.0,0.0,0.0,0.0,0.0,0.0,0.0,0.0,3.9529,4.0247,4.1115,4.1422,4.1624,4.2901,4.4067,4.5334,4.713,4.9015,5.1246,5.4102,5.467,5.5209,5.7842,5.862,5.8864,5.9088,5.9853,6.0552,6.0803,0.0,0.0,0.0,6.3933,6.5596,6.568,6.6786,6.8183,6.9995,6.9583,6.9051,6.8818,6.8444,0.0,0.0,0.0,0.0,0.0,6.6999,6.6999,6.6999,6.7178,6.7837,6.9004,6.9213,6.9842,7.0919,7.1368,7.1338,7.0889,7.0889,7.0889,7.0889,7.0889,7.0889,7.0889,7.0889,7.0889,7.0949,7.1398,7.2116,7.2984,7.3432,7.4121,7.4869,0.0,0.0,0.0,0.0,0.0,0.0,0.0,0.0,0.0,0.0,0.0,0.0,0.0,0.0,0.0,0.0,0.0,0.0,3.8392,3.902,4.0008,4.1324,4.2051,4.3309,4.5244,4.7249,4.8925,5.0196,5.09,5.0212,4.8267,4.7608,4.7309,0.0,0.0,0.0,0.0,0.0,0.0,3.9379,3.8661,3.8392,3.8332,0.0,0.0,0.0,0.0,0.0,0.0,0.0,3.8841,3.9649,4.0965,4.1422,4.1624,4.2901,4.4695,4.6578,4.7938,5.069,5.3683,5.5709,5.5688,5.5867,5.8501,5.859,5.8112,5.8141,5.9189,6.0086,6.0086,6.0655,0.0,6.2002,6.3041,6.4375,6.6122,6.6375,6.7303,6.984,6.81,6.7289,6.8643,0.0,0.0,0.0,0.0,0.0,0.0,6.6999,6.6999,6.6999,6.7627,6.8286,6.8974,6.9632,7.029,7.0889,7.0889,7.0889,7.0889,7.0889,7.0889,7.0889,7.0889,7.0889,7.0889,7.0889,7.0889,7.0889,7.0889,7.1727,7.2924,7.2924,7.3762,7.4869,0.0,0.0,0.0,0.0,0.0,0.0,0.0,0.0,0.0,0.0,0.0,0.0,0.0,0.0,0.0,0.0,0.0,0.0,3.8332,3.8571,3.929,4.0636,4.1324,4.2372,4.3858,4.5873,4.7997,5.0196,5.0375,4.9523,4.7578,4.7399,0.0,4.5185,0.0,0.0,0.0,0.0,0.0,3.9978,3.8362,3.7973,3.8212,0.0,0.0,0.0,0.0,0.0,0.0,0.0,0.0,0.0,4.0277,4.0696,4.0935,4.2252,4.4377,4.6711,4.8506,5.1379,5.4251,5.5807,5.6017,5.6196,0.0,5.7543,0.0,0.0,6.0439,6.1133,6.0881,0.0,0.0,6.2175,6.2792,6.3746,6.5032,6.5196,6.5802,6.7558,6.7131,6.6885,6.7487,0.0,0.0,0.0,0.0,0.0,0.0,6.6999,6.6999,6.6999,6.7178,6.7388,6.7597,6.8734,6.9393,6.9572,7.047,7.0889,7.0889,7.0889,7.0889,7.0889,7.0889,7.0889,7.0889,7.0889,7.0889,7.0889,7.0889,7.1727,7.2924,7.2924,7.3762,7.4869,0.0,0.0,0.0,0.0,0.0,0.0,0.0,0.0,3.926,3.8841,3.8571,3.8093,0.0,0.0,0.0,3.6866,3.7345,3.7853,3.8362,3.8631,3.929,4.0337,4.0786,4.1713,4.326,4.4994,4.683,4.8641,4.891,4.8327,4.692,0.0,0.0,4.5514,0.0,4.5125,0.0,0.0,0.0,4.0636,3.8901,3.8272,3.8242,0.0,0.0,0.0,0.0,0.0,0.0,0.0,0.0,0.0,3.9589,4.0187,4.0816,4.295,4.5214,4.7698,5.0481,5.3264,5.5628,5.6675,5.6735,5.6645,5.7004,0.0,0.0,0.0,6.0814,6.148,6.1485,6.2565,0.0,6.2595,6.281,6.3478,6.4568,6.432,6.4697,6.6467,6.6308,6.6304,0.0,0.0,0.0,0.0,0.0,0.0,0.0,6.6999,6.6999,6.6999,6.6999,6.6999,6.6999,6.8315,6.9004,6.9004,7.029,7.0889,7.0889,7.0889,7.0889,7.0889,7.0889,7.0889,7.0889,7.0889,7.0889,7.0889,7.0889,7.1727,7.2924,7.2924,7.3762,7.4869,0.0,0.0,0.0,0.0,0.0,0.0,0.0,3.9373,3.9373,3.9373,3.8871,3.8422,0.0,0.0,0.0,3.7375,3.8482,3.896,3.8332,3.896,3.9589,4.0187,4.0397,4.1354,4.317,4.4407,4.5364,4.601,4.689,4.695,0.0,0.0,4.7249,4.713,0.0,4.6501,0.0,0.0,4.25,4.1348,3.9835,3.8906,3.8317,3.7528,0.0,0.0,0.0,0.0,0.0,0.0,0.0,0.0,3.8901,3.9865,4.107,4.4088,4.6531,4.9105,5.2845,5.5388,5.7184,5.7872,5.7603,5.7184,5.7184,5.7752,5.865,5.9907,0.0,6.1343,6.2061,6.266,6.3079,6.3079,6.3079,6.3451,6.4432,6.3706,6.399,6.6269,6.5613,0.0,0.0,0.0,0.0,0.0,0.0,0.0,0.0,6.6999,6.6999,6.6999,6.6999,6.6999,6.6999,6.8315,6.9004,6.9004,7.029,7.0889,7.0889,7.0889,7.0889,7.0889,7.0889,7.0889,7.0889,7.0889,7.0889,7.0889,7.0889,7.1727,7.2924,7.2924,7.3762,7.4869,0.0,0.0,0.0,0.0,0.0,0.0,3.9373,3.9373,3.9373,3.9373,3.9254,3.8781,3.7734,3.8093,0.0,3.6776,3.7404,3.7764,3.7614,3.8242,3.8691,3.8811,4.0337,4.1662,4.259,4.289,4.3329,4.3947,4.6202,4.6681,0.0,0.0,0.0,4.5753,0.0,4.6082,0.0,4.2791,4.1934,4.1931,3.9028,3.8077,3.8274,3.6559,3.5759,0.0,0.0,0.0,0.0,0.0,0.0,0.0,3.8357,3.9768,4.1273,4.2016,4.5095,4.8686,5.0571,5.3683,5.6526,5.7154,5.7603,5.7902,5.7902,5.883,5.9907,6.0715,6.1014,6.1463,6.266,6.2989,6.3079,6.3079,6.3079,6.3194,6.3394,6.3222,6.3674,6.5199,0.0,0.0,0.0,0.0,0.0,0.0,0.0,0.0,6.6999,6.6999,6.6999,6.6999,6.6999,6.6999,6.6999,6.8315,6.9004,0.0,7.029,7.0889,7.0889,7.0889,7.0889,7.0889,7.0889,7.0889,7.0889,7.0889,7.0889,7.0889,7.0889,7.1727,7.2924,7.2924,7.3762,7.4869,0.0,0.0,0.0,0.0,0.0,0.0,0.0,0.0,3.9373,3.9373,3.9373,3.914,3.8452,3.8661,0.0,0.0,3.8003,3.8242,3.7913,3.8512,3.8871,3.8871,3.9888,4.0756,4.1452,4.1782,4.2372,4.329,4.4695,4.5214,0.0,0.0,0.0,4.5334,0.0,4.6411,0.0,4.3629,4.2814,4.2637,3.9914,3.8843,3.8762,3.7391,3.6686,3.642,3.6388,0.0,0.0,0.0,0.0,0.0,0.0,0.0,4.1117,4.2385,4.4706,4.7549,5.078,5.3174,5.5059,5.6346,0.0,5.8052,5.7693,5.865,5.9907,6.0894,6.1373,6.1882,6.2899,6.3079,6.3079,6.3079,6.3079,6.3079,6.3079,6.3079,6.3558,0.0,0.0,0.0,0.0,0.0,0.0,0.0,0.0,6.6999,6.6999,6.6999,6.6999,6.6999,6.6999,6.6999,6.6999,6.7986,6.8675,6.9004,6.9991,7.062,7.0889,7.0889,7.0889,7.0889,7.0889,7.0889,7.0889,7.0889,7.0889,7.0889,7.0889,7.1727,7.2924,7.2924,7.3762,7.4869,0.0,0.0,0.0,0.0,0.0,0.0,0.0,0.0,0.0,3.9373,3.9373,3.9379,3.926,3.9313,3.914,0.0,0.0,0.0,3.8422,3.8931,3.9349,3.9589,3.9553,3.9858,4.0397,4.0935,4.1743,4.2781,4.2901,4.3389,0.0,0.0,0.0,4.5334,0.0,0.0,0.0,4.4766,4.3918,4.3407,4.1362,4.0231,3.9679,3.8846,3.8153,3.7563,3.756,3.7124,3.6487,3.6562,0.0,0.0,0.0,0.0,4.0804,4.3111,4.4488,4.6381,5.1319,5.3264,5.4281,5.6077,5.7244,0.0,5.7363,5.8231,5.9488,6.0835,6.1553,6.2151,6.2929,6.3079,6.3079,6.3079,6.3079,6.3079,6.3079,6.3169,0.0,0.0,0.0,0.0,0.0,0.0,0.0,0.0,0.0,6.6999,6.6999,6.6999,6.6999,6.6999,6.6999,6.6999,6.6999,6.7627,6.8315,6.9004,6.9782,7.041,7.0889,7.0889,7.0889,7.0889,7.0889,7.0889,7.0889,7.0889,7.0889,7.0889,7.0889,7.1727,7.2924,7.2924,7.3762,7.4869,0.0,0.0,0.0,0.0,0.0,0.0,0.0,0.0,0.0,0.0,3.9373,3.92,3.8601,3.905,3.914,3.8452,3.902,3.914,3.8422,0.0,0.0,4.0217,4.0277,4.0307,4.0397,4.0487,4.0606,4.0786,4.1354,0.0,0.0,0.0,0.0,4.5304,0.0,0.0,0.0,0.0,0.0,4.4083,4.207,4.1224,4.1,3.9751,3.8841,3.8277,3.8257,3.7507,3.6577,3.7082,3.7344,0.0,0.0,0.0,4.0499,4.1418,4.3408,4.6082,4.9628,0.0,5.6765,0.0,5.7543,5.7363,0.0,0.0,5.9488,0.0,6.1194,6.1613,6.2839,6.3079,6.3079,6.3079,6.3079,6.3079,6.3079,0.0,0.0,0.0,0.0,0.0,0.0,0.0,0.0,0.0,6.7358,6.6999,6.6999,6.6999,6.6999,6.6999,6.6999,6.6999,6.6999,6.7627,6.8315,6.9004,7.0201,7.0829,7.0889,7.0889,7.0889,7.0889,7.0889,7.0889,7.0889,7.0889,7.0889,7.0889,7.0889,7.1727,7.2924,7.2924,7.3762,7.4869,0.0,0.0,0.0,0.0,0.0,0.0,0.0,0.0,0.0,0.0,0.0,3.932,3.899,3.923,3.929,3.899,3.926,3.9254,3.899,3.896,3.923,3.9828,3.9858,3.9858,3.9858,3.9858,4.0038,4.0397,4.0696,0.0,0.0,4.4466,4.4736,0.0,0.0,0.0,0.0,0.0,0.0,0.0,0.0,0.0,0.0,0.0,0.0,0.0,0.0,0.0,4.0016,4.0261,3.9556,3.8528,3.8466,0.0,0.0,0.0,4.1581,4.4077,4.8506,5.2247,5.5239,0.0,5.7064,5.7274,5.7962,0.0,5.8919,6.0266,6.0835,6.1523,6.2839,6.3079,6.3079,6.3079,6.3378,6.3588,0.0,0.0,0.0,0.0,0.0,0.0,0.0,0.0,0.0,0.0,6.7358,6.6999,6.6999,6.6999,6.6999,6.6999,6.6999,6.6999,6.6999,6.7268,6.7956,6.9004,7.029,7.0889,7.0889,7.0889,7.0889,7.0889,7.0889,7.0889,7.0889,7.0889,7.0889,7.0889,7.0889,7.1727,7.2924,7.2924,7.3762,7.4869,0.0,0.0,0.0,0.0,0.0,0.0,0.0,0.0,0.0,0.0,0.0,3.9373,3.9373,0.0,0.0,0.0,3.9373,3.9373,3.9373,3.926,3.917,3.917,3.899,3.8865,3.8865,3.908,3.9409,3.9888,0.0,0.0,4.4077,4.4407,4.4736,0.0,4.4706,0.0,0.0,0.0,0.0,0.0,0.0,0.0,0.0,0.0,0.0,0.0,0.0,0.0,4.3132,4.2713,4.1435,3.9832,3.9154,3.915,0.0,0.0,0.0,4.3539,0.0,0.0,5.3384,5.5209,5.6137,5.6795,0.0,0.0,5.8441,0.0,6.0386,6.1253,6.26,6.2959,6.3079,6.3079,6.3588,0.0,0.0,0.0,0.0,0.0,0.0,0.0,0.0,0.0,0.0,0.0,6.7268,6.6999,6.6999,6.6999,6.6999,6.6999,6.6999,6.6999,6.6999,6.7328,6.8106,6.9273,7.038,7.0889,7.0889,7.0889,7.0889,7.0889,7.0889,7.0889,7.0889,7.0889,7.0889,7.0919,7.1098,7.1876,7.2924,7.3103,7.3881,7.4869,0.0,0.0,0.0,0.0,0.0,0.0,0.0,0.0,0.0,0.0,0.0,3.9373,3.9373,3.9373,3.9373,3.9373,3.9373,3.9373,3.9373,3.8811,3.8452,3.8452,3.7853,0.0,3.7524,3.8123,3.8452,0.0,0.0,0.0,4.3379,4.4646,4.5933,4.71,4.5813,4.5274,4.5304,0.0,0.0,0.0,0.0,0.0,0.0,0.0,0.0,0.0,0.0,0.0,0.0,4.2786,4.1956,0.0,0.0,0.0,0.0,0.0,0.0,0.0,0.0,4.9793,0.0,5.3952,5.482,0.0,0.0,0.0,0.0,5.9009,5.9668,6.0535,6.1882,6.266,6.3079,6.3079,0.0,0.0,0.0,0.0,0.0,0.0,0.0,0.0,0.0,0.0,0.0,0.0,6.6999,6.6999,6.6999,6.6999,6.6999,6.6999,6.6999,6.6999,6.6999,6.8256,6.9243,6.9931,7.059,7.0889,7.0889,7.0889,7.0889,7.0889,7.0889,7.0889,7.0889,7.0889,7.0889,7.0949,7.1577,7.2265,7.2984,7.3612,7.427,7.4869,0.0,0.0,0.0,0.0,0.0,0.0,0.0,0.0,0.0,0.0,0.0,0.0,0.0,3.9373,3.9373,3.9373,3.9373,3.9373,3.9373,3.8781,3.8392,3.8392,3.7764,3.7404,3.7404,3.8063,0.0,0.0,0.0,4.0786,4.2731,4.3629,4.4526,4.5394,4.5783,4.5963,4.5933,4.5484,0.0,0.0,0.0,0.0,0.0,0.0,0.0,0.0,0.0,0.0,0.0,0.0,0.0,0.0,0.0,0.0,0.0,0.0,0.0,0.0,0.0,0.0,0.0,5.2157,5.3414,5.4311,5.5888,5.6526,5.7304,5.88,5.9279,5.9877,6.1224,6.2002,6.26,0.0,0.0,0.0,0.0,0.0,0.0,0.0,0.0,0.0,0.0,0.0,0.0,0.0,0.0,6.6999,6.6999,6.6999,6.6999,6.6999,6.6999,6.7208,6.7627,6.8525,6.9303,6.9961,7.059,7.0889,7.0889,7.0889,7.0889,7.0889,7.0889,7.0889,7.0889,7.0889,7.0889,7.0979,7.1637,7.2295,7.2984,7.3642,7.43,7.4869,0.0,0.0,0.0,3.9373,0.0,3.9738,3.9738,3.9948,4.0068,0.0,0.0,0.0,0.0,0.0,3.9978,3.9768,3.9559,3.9373,3.9373,3.8571,3.8063,3.8063,3.7225,3.6776,3.6776,0.0,0.0,0.0,0.0,0.0,0.0,4.2701,4.3479,4.4347,4.5005,4.5412,0.0,0.0,0.0,4.6202,0.0,0.0,5.0108,0.0,0.0,0.0,0.0,0.0,0.0,0.0,0.0,0.0,0.0,0.0,0.0,0.0,0.0,0.0,4.4456,0.0,0.0,0.0,0.0,5.3264,5.482,0.0,5.7064,5.7932,5.8471,5.9129,6.0236,6.0805,0.0,0.0,0.0,0.0,0.0,0.0,0.0,0.0,0.0,0.0,0.0,0.0,0.0,0.0,0.0,0.0,6.6999,6.6999,6.6999,6.6999,6.7208,6.7657,6.8315,6.9004,6.9632,7.026,7.0709,7.0889,7.0889,7.0889,7.0889,7.0889,7.0889,7.0889,7.0889,7.0889,7.1038,7.1308,7.1966,7.2654,7.3313,7.3971,7.451,7.4869,0.0,3.9439,3.9469,3.9469,4.0008,4.0427,4.0427,4.0965,4.1422,4.1422,0.0,0.0,0.0,0.0,0.0,4.0457,3.9828,3.9469,3.9373,3.8182,3.7434,3.7404,0.0,0.0,0.0,0.0,0.0,0.0,0.0,0.0,0.0,0.0,4.301,4.4167,4.3529,4.3618,4.4287,0.0,4.4706,4.5574,0.0,4.9912,4.9719,0.0,0.0,0.0,5.2576,5.2846,0.0,0.0,0.0,0.0,0.0,0.0,0.0,0.0,0.0,0.0,0.0,0.0,0.0,0.0,0.0,0.0,5.2995,0.0,5.7723,5.6466,5.7244,5.8321,5.8979,0.0,0.0,0.0,0.0,0.0,0.0,0.0,0.0,0.0,0.0,0.0,0.0,0.0,0.0,0.0,6.6999,6.6999,6.6999,6.6999,6.6999,6.6999,6.7627,6.8315,6.9004,6.9662,7.029,7.0889,7.0889,7.0889,7.0889,7.0889,7.0889,7.0889,7.0889,7.0889,7.0889,7.0889,7.1308,7.1966,7.2654,7.3313,7.3971,7.4629,7.4869,7.4869,4.0038,4.0127,4.0277,4.0756,4.0995,4.1115,4.1115,4.1265,4.1422,0.0,0.0,0.0,0.0,0.0,0.0,4.0487,4.0666,4.0427,3.9433,3.8601,3.7913,3.7434,3.6626,3.5998,0.0,0.0,0.0,0.0,0.0,0.0,0.0,0.0,0.0,0.0,4.1773,4.2551,4.3618,4.4616,0.0,0.0,4.9942,5.1259,0.0,0.0,0.0,0.0,0.0,5.5,5.3935,0.0,5.1219,4.8437,0.0,0.0,0.0,0.0,0.0,0.0,4.256,0.0,0.0,0.0,0.0,0.0,0.0,0.0,0.0,5.7453,5.7872,0.0,0.0,0.0,0.0,0.0,0.0,0.0,0.0,0.0,0.0,0.0,0.0,0.0,0.0,0.0,0.0,0.0,6.6999,6.6999,6.6999,6.6999,6.6999,6.6999,6.7627,6.8315,6.9004,6.9662,7.029,7.0889,7.0889,7.0889,7.0889,7.0889,7.0889,7.0889,7.0889,7.0889,7.0889,7.0889,7.1308,7.1966,7.2654,7.3313,7.3971,7.4629,7.4869,7.4869,4.0337,4.0636,4.0935,4.1324,4.1833,4.2102,4.1871,4.2252,4.2611,0.0,0.0,0.0,0.0,0.0,0.0,0.0,4.1324,4.0935,3.9888,3.92,3.8512,3.7853,3.6956,3.6297,3.5938,0.0,0.0,0.0,0.0,0.0,0.0,0.0,0.0,0.0,0.0,0.0,0.0,0.0,0.0,0.0,4.9434,0.0,0.0,5.4491,5.5927,0.0,0.0,0.0,5.5029,5.5029,5.2576,0.0,0.0,0.0,0.0,0.0,0.0,0.0,0.0,0.0,0.0,0.0,0.0,0.0,0.0,0.0,0.0,0.0,0.0,0.0,0.0,0.0,0.0,0.0,0.0,0.0,0.0,0.0,0.0,0.0,0.0,0.0,0.0,6.5592,6.5772,6.6131,6.643,6.67,6.6969,6.6999,6.6999,6.6999,6.7897,6.8585,6.9004,6.9901,7.056,7.0889,7.0889,7.0889,7.0889,7.0889,7.0889,7.0889,7.0889,7.1068,7.1308,7.1308,7.1697,7.2385,7.3073,7.3732,7.436,7.4749,7.4869,7.4869,0.0,4.1025,4.1572,4.1683,4.2671,4.3299,4.292,4.3718,4.4436,0.0,0.0,0.0,0.0,0.0,0.0,0.0,4.2013,4.1354,4.0546,3.9948,3.929,3.8542,3.7434,3.6716,3.6477,3.5342,0.0,0.0,0.0,0.0,0.0,0.0,0.0,0.0,3.9828,4.1205,0.0,0.0,0.0,4.6082,4.888,5.0212,0.0,0.0,5.5957,0.0,5.6376,5.6346,5.6308,5.6158,5.4201,0.0,0.0,0.0,0.0,0.0,4.288,0.0,0.0,0.0,0.0,0.0,0.0,0.0,0.0,0.0,0.0,0.0,0.0,0.0,0.0,0.0,0.0,0.0,0.0,0.0,0.0,0.0,0.0,0.0,0.0,0.0,6.4755,6.4814,6.4874,6.5024,6.5562,6.6161,6.6759,6.6849,6.6909,6.6999,6.8286,6.9034,6.9123,7.029,7.0889,7.0889,7.0889,7.0889,7.0889,7.0889,7.0889,7.0889,7.0979,7.1338,7.1906,7.2056,7.2475,7.3073,7.3582,7.418,7.4749,7.4689,7.4659,7.4659,4.1085,4.1752,4.253,4.3569,4.3958,4.4436,4.5394,4.5304,4.5304,4.5843,0.0,0.0,0.0,0.0,0.0,0.0,0.0,0.0,4.1294,4.1055,4.0457,3.926,3.899,3.8093,3.6507,3.6237,3.5968,0.0,0.0,0.0,0.0,0.0,0.0,0.0,0.0,0.0,0.0,0.0,0.0,4.9508,5.2755,0.0,5.3803,5.7094,5.8082,5.7752,5.7752,5.7393,5.6765,0.0,5.5409,5.4879,0.0,0.0,0.0,0.0,0.0,0.0,0.0,0.0,0.0,0.0,0.0,0.0,0.0,0.0,0.0,0.0,0.0,0.0,0.0,0.0,0.0,0.0,0.0,0.0,0.0,0.0,0.0,0.0,0.0,0.0,6.3408,6.3468,6.3887,6.4934,6.5144,6.5263,6.5413,6.5922,6.643,6.6969,6.8286,6.9243,6.9782,7.053,7.0889,7.0889,7.0889,7.0889,7.0889,7.0889,7.0889,7.0919,7.1457,7.1757,7.1966,7.3043,7.3582,7.3672,7.3253,7.3492,7.4031,7.3492,7.3283,7.3373,4.1841,4.2402,4.315,4.4137,4.4855,4.5663,4.6651,4.68,4.713,0.0,0.0,0.0,0.0,0.0,0.0,0.0,0.0,0.0,4.3479,4.3658,4.297,4.0965,4.0247,3.929,3.7973,3.7285,3.6626,3.5998,0.0,0.0,0.0,0.0,0.0,0.0,0.0,0.0,0.0,0.0,4.7698,5.0794,5.2187,0.0,5.5448,5.7752,5.862,5.862,5.862,5.7962,5.6944,5.6017,5.53,0.0,0.0,5.2279,5.1622,0.0,4.704,4.6651,0.0,0.0,0.0,4.3269,0.0,0.0,0.0,0.0,0.0,0.0,0.0,0.0,0.0,0.0,0.0,0.0,0.0,0.0,0.0,0.0,0.0,0.0,0.0,0.0,6.254,6.2301,6.263,6.3947,6.4336,6.4665,6.4994,6.5652,6.6311,6.6969,6.8286,6.9303,6.9961,7.059,7.0889,7.0889,7.0889,7.0889,7.0889,7.0889,7.1068,7.1398,7.1727,7.2265,7.2954,7.3612,7.3881,7.3851,7.3522,7.3402,7.3373,7.3043,7.2924,7.2954,4.241,4.288,4.3499,4.4197,4.5304,4.6381,4.7189,4.7878,4.8745,0.0,0.0,0.0,0.0,0.0,0.0,0.0,0.0,0.0,0.0,4.6711,4.6022,4.3638,4.1983,4.0846,4.0187,3.8751,3.7494,3.6477,0.0,0.0,0.0,0.0,0.0,0.0,0.0,0.0,0.0,0.0,0.0,5.1947,0.0,5.3533,5.6885,5.8351,5.9069,5.9249,5.9009,5.8201,5.7244,5.7004,0.0,5.4102,5.3982,5.3294,0.0,0.0,0.0,0.0,0.0,0.0,0.0,0.0,0.0,4.4246,0.0,0.0,0.0,0.0,0.0,0.0,0.0,0.0,0.0,0.0,0.0,0.0,0.0,0.0,0.0,0.0,0.0,0.0,0.0,6.1792,6.2151,6.2839,6.3827,6.4455,6.4635,6.5383,6.6191,6.6969,6.8286,6.9363,7.0141,7.0649,7.0889,7.0889,7.0889,7.0889,7.0889,7.1038,7.1398,7.1906,7.2146,7.2894,7.3881,7.3881,7.3821,7.3702,7.3702,7.3313,7.2684,7.2565,7.2535,7.2535,4.253,4.288,4.3499,4.4197,4.4915,4.5843,4.713,4.7878,4.8745,0.0,0.0,0.0,0.0,0.0,0.0,0.0,0.0,0.0,4.906,0.0,0.0,4.7668,4.5214,4.3569,4.297,4.1055,3.8901,3.6477,0.0,0.0,0.0,0.0,0.0,0.0,4.4646,0.0,0.0,0.0,5.2965,0.0,5.5299,5.6825,0.0,6.0924,6.0954,5.9817,5.865,5.8141,5.8171,0.0,5.871,5.7453,0.0,5.6974,0.0,0.0,0.0,0.0,0.0,0.0,0.0,0.0,4.5005,0.0,0.0,0.0,0.0,0.0,0.0,0.0,0.0,0.0,0.0,0.0,0.0,0.0,0.0,0.0,0.0,0.0,0.0,0.0,0.0,6.2899,6.3917,6.2331,6.4425,6.5054,6.3378,6.4485,6.5712,6.6939,6.8286,6.9572,7.0799,7.0859,7.0889,7.0889,7.0889,7.0889,7.0919,7.1517,7.1816,7.1966,7.3163,7.3762,7.3881,7.3881,7.3552,7.3013,7.3013,7.2595,7.1936,7.1338,7.1128,7.1218,4.312,4.315,4.3618,4.4706,4.5753,4.704,4.8701,5.0541,5.1768,0.0,0.0,0.0,0.0,0.0,0.0,0.0,0.0,5.5239,0.0,0.0,0.0,0.0,4.707,4.5394,4.3958,4.2731,4.0995,3.8751,3.9409,0.0,0.0,0.0,0.0,0.0,4.6711,0.0,4.9912,0.0,5.5299,0.0,0.0,0.0,0.0,6.0775,6.0236,5.9967,5.9039,5.868,5.871,0.0,5.859,0.0,0.0,0.0,0.0,0.0,0.0,0.0,0.0,0.0,0.0,0.0,0.0,0.0,4.5633,0.0,4.5263,0.0,0.0,0.0,0.0,0.0,0.0,0.0,0.0,0.0,0.0,0.0,0.0,0.0,0.0,0.0,0.0,0.0,0.0,0.0,6.3947,6.4755,6.3169,6.4306,6.5622,6.6939,6.8286,6.9602,7.0889,7.0889,7.0889,7.0889,7.0889,7.1098,7.1487,7.1757,7.2295,7.3073,7.3642,7.4121,7.442,7.4061,7.3492,7.2864,7.2475,7.1906,7.1278,7.1009,7.0889,7.0949,4.3798,0.0,4.3958,4.5095,4.6112,4.7489,4.9643,5.2067,5.3533,0.0,0.0,0.0,5.5897,5.6645,0.0,0.0,5.862,5.8201,0.0,0.0,5.47,5.1828,4.9553,0.0,0.0,4.4904,4.3,4.0666,0.0,0.0,0.0,0.0,0.0,0.0,0.0,5.0152,5.1858,0.0,0.0,5.886,5.9219,6.0805,6.272,6.0685,6.0116,6.0296,5.9817,5.9668,5.9608,5.9308,5.8979,0.0,5.7543,0.0,0.0,0.0,0.0,0.0,5.084,0.0,0.0,0.0,0.0,0.0,0.0,0.0,0.0,0.0,0.0,0.0,0.0,0.0,0.0,0.0,0.0,0.0,0.0,0.0,0.0,0.0,0.0,0.0,0.0,0.0,0.0,0.0,0.0,0.0,6.2899,6.4216,6.5622,6.6939,6.8286,6.9602,7.0889,7.0889,7.0889,7.0889,7.0889,7.1248,7.1906,7.2086,7.2804,7.3911,7.4091,7.433,7.454,7.3881,7.3223,7.2565,7.1876,7.1338,7.0889,7.0889,7.0889,7.0919,4.4407,4.4287,4.4496,4.5185,4.5334,4.6232,4.894,5.099,5.2486,0.0,0.0,0.0,0.0,0.0,0.0,0.0,0.0,6.1224,5.7274,0.0,5.7962,5.7842,5.3503,5.1349,0.0,0.0,4.4616,4.1392,0.0,0.0,0.0,0.0,0.0,0.0,0.0,4.9643,5.0584,5.5786,5.8082,5.8261,5.9548,6.0116,6.0356,0.0,6.1613,6.1074,6.1044,0.0,0.0,6.1762,6.1104,0.0,0.0,0.0,0.0,0.0,0.0,0.0,0.0,0.0,0.0,5.2366,0.0,0.0,0.0,0.0,4.9508,0.0,0.0,0.0,0.0,0.0,0.0,0.0,0.0,0.0,0.0,0.0,0.0,0.0,0.0,0.0,0.0,0.0,0.0,0.0,0.0,0.0,6.2301,6.3977,6.5622,6.6939,6.8286,6.9602,7.0889,7.0889,7.0889,7.0889,7.0889,7.1248,7.1906,7.2565,7.3253,7.3941,7.4569,7.448,7.3881,7.3223,7.2535,7.1846,7.1188,7.0919,7.0889,7.0889,7.0889,7.0979,0.0,0.0,4.5035,4.5244,4.6022,4.7519,5.0152,5.2247,0.0,0.0,5.6346,0.0,0.0,6.0356,6.1613,0.0,0.0,6.251,6.1134,6.0446,0.0,0.0,0.0,5.2875,0.0,0.0,0.0,0.0,0.0,0.0,0.0,0.0,0.0,0.0,0.0,5.0511,0.0,0.0,0.0,0.0,0.0,6.2061,6.2032,0.0,0.0,6.1702,6.1283,6.1403,0.0,6.1523,6.1433,6.1253,6.0356,5.9937,5.9488,5.8171,5.7453,0.0,0.0,0.0,5.6825,5.4192,0.0,0.0,0.0,0.0,0.0,0.0,0.0,0.0,0.0,0.0,0.0,0.0,0.0,0.0,0.0,0.0,0.0,0.0,0.0,0.0,0.0,0.0,0.0,0.0,0.0,0.0,0.0,6.3947,6.5443,6.6311,6.8076,6.9423,7.029,7.0709,7.0889,7.0889,7.0889,7.1487,7.2565,7.2804,7.3522,7.454,7.4779,7.4749,7.445,7.3373,7.2774,7.2445,7.1338,7.0889,7.0889,7.0889,7.0889,7.1068,4.6561,4.5753,4.5454,4.5933,4.7489,4.9254,5.096,0.0,0.0,0.0,5.7782,0.0,6.0146,0.0,6.2839,0.0,6.3558,6.3408,6.3408,6.2181,0.0,6.0535,5.7812,0.0,0.0,0.0,0.0,0.0,0.0,4.4855,0.0,0.0,0.0,0.0,0.0,0.0,5.3054,0.0,5.8471,0.0,0.0,6.272,0.0,0.0,6.2391,6.272,0.0,6.2421,6.272,6.2271,6.2271,6.2241,6.1164,6.0625,6.0296,5.9428,5.886,5.8321,5.7453,5.8321,0.0,5.6256,5.7543,0.0,5.5628,0.0,0.0,0.0,0.0,0.0,0.0,0.0,0.0,0.0,0.0,0.0,0.0,0.0,0.0,0.0,0.0,0.0,0.0,0.0,0.0,0.0,0.0,0.0,0.0,0.0,6.5323,6.5981,6.7956,6.9303,6.9961,7.059,7.0889,7.0889,7.0889,7.1607,7.2924,7.2924,7.3642,7.4869,7.4869,7.4599,7.4121,7.3283,7.2624,7.2116,7.1248,7.0889,7.0889,7.0889,7.1218,7.1727,4.686,4.5933,4.5903,4.7249,4.9583,5.1289,0.0,0.0,5.6338,0.0,5.9189,6.1493,6.2121,6.3887,6.5024,6.5024,6.4395,6.4006,6.4036,6.2869,0.0,0.0,6.1224,5.9877,5.9219,0.0,0.0,0.0,0.0,0.0,0.0,0.0,0.0,0.0,4.6471,0.0,5.4251,5.494,5.7513,6.1164,6.1882,6.2211,6.2421,6.3588,6.4096,6.4126,6.4066,6.4036,6.4036,6.4036,6.3647,6.3079,6.2421,6.1792,6.1253,6.1253,6.1224,6.0894,5.9608,5.9697,5.9817,5.8501,0.0,0.0,0.0,0.0,5.7842,0.0,0.0,0.0,0.0,0.0,0.0,0.0,0.0,0.0,0.0,0.0,0.0,0.0,0.0,0.0,0.0,0.0,0.0,0.0,0.0,0.0,0.0,0.0,6.5353,6.5951,6.7926,6.9303,6.9931,7.059,7.0889,7.0889,7.0889,7.1607,7.2924,7.2924,7.3642,7.4869,7.4839,7.4121,7.2954,7.2894,7.2116,7.0949,7.0919,7.0889,7.0889,7.0949,7.1787,7.2924,4.8805,4.8356,4.8656,4.9972,5.1169,5.2127,0.0,0.0,0.0,0.0,6.1224,6.3318,6.3498,6.4425,6.5024,6.5024,6.4395,0.0,0.0,0.0,0.0,6.3767,6.2361,6.1283,6.0625,5.7184,0.0,5.2426,0.0,0.0,4.4796,0.0,0.0,0.0,0.0,0.0,5.4281,5.5448,5.7932,6.1224,6.2361,6.3707,0.0,0.0,6.5353,6.6101,6.5114,6.4755,6.4755,6.4755,6.4665,6.4485,6.4336,6.3827,6.3258,6.3258,6.26,6.1762,6.1433,6.1104,6.0535,5.9189,5.9847,6.0625,0.0,0.0,0.0,0.0,0.0,0.0,0.0,0.0,0.0,0.0,0.0,0.0,0.0,0.0,0.0,0.0,0.0,0.0,0.0,0.0,0.0,0.0,0.0,0.0,0.0,0.0,0.0,6.5293,6.7687,6.9093,6.9243,7.035,7.0889,7.0889,7.0889,7.1607,7.2924,7.2924,7.3642,7.4839,7.436,7.3941,7.3582,7.2565,7.1936,7.1577,7.1098,7.0889,7.0949,7.1457,7.2176,7.2984,5.0002,5.0152,0.0,5.1528,0.0,0.0,5.4521,5.6795,0.0,6.1014,6.2839,0.0,6.5622,6.5562,6.5682,6.6251,6.5443,0.0,6.6251,0.0,0.0,6.4455,6.3468,6.275,6.2391,5.9727,0.0,5.488,0.0,0.0,4.6142,0.0,0.0,0.0,0.0,5.093,0.0,5.7274,5.9578,6.1642,6.2959,0.0,0.0,6.5383,6.5922,6.649,6.6041,6.5712,6.5473,6.5473,6.5473,6.5413,6.5114,6.4755,6.4455,6.4455,6.3947,6.3318,6.3019,6.2869,6.245,6.0805,6.1194,6.1732,6.0745,6.0535,6.0416,0.0,0.0,0.0,0.0,0.0,0.0,0.0,0.0,0.0,0.0,0.0,0.0,0.0,0.0,0.0,0.0,0.0,0.0,0.0,0.0,0.0,0.0,0.0,0.0,6.5024,6.7627,6.9004,6.9004,7.056,7.1188,7.0889,7.0889,7.1607,7.2924,7.2924,7.3642,7.4839,7.418,7.3732,7.3373,7.2325,7.1727,7.1427,7.1038,7.1068,7.1427,7.2086,7.2595,7.3013,5.1212,5.1798,0.0,0.0,0.0,0.0,0.0,5.8471,0.0,6.3617,0.0,6.5173,6.7597,6.6759,6.646,6.7627,0.0,6.637,6.7508,6.6071,6.5114,6.5024,6.4545,6.4216,6.4126,6.2241,0.0,0.0,0.0,0.0,0.0,0.0,0.0,0.0,0.0,0.0,0.0,5.9757,6.1702,0.0,6.3617,6.4186,6.4395,6.5652,6.6131,6.6221,6.6789,6.664,6.6131,6.6131,6.6131,6.6041,6.5473,6.5293,6.5293,6.5293,6.5233,6.5024,6.4425,6.4635,6.4605,6.278,6.278,6.2899,6.1762,6.1493,6.1642,6.2121,6.1343,6.1074,0.0,0.0,0.0,0.0,0.0,0.0,0.0,0.0,0.0,0.0,0.0,0.0,0.0,0.0,0.0,0.0,0.0,0.0,0.0,0.0,0.0,6.4994,6.7448,0.0,6.9004,0.0,7.1398,7.0889,7.0889,7.1607,7.2924,7.2924,7.3642,7.4839,7.4091,7.3432,7.2864,7.2086,7.1427,7.0889,7.0889,7.1308,7.1966,7.2654,7.2984,7.3133,5.4491,0.0,0.0,0.0,0.0,5.88,6.0745,6.1822,6.278,6.3857,6.4964,6.6041,6.7059,6.646,6.6101,6.634,6.5652,0.0,0.0,0.0,0.0,6.4994,6.5443,6.5413,6.4874,6.2929,6.1433,0.0,0.0,0.0,0.0,0.0,0.0,0.0,0.0,0.0,5.862,6.1523,0.0,6.3019,6.4336,6.5173,6.5742,6.652,6.6819,6.6819,6.6939,6.6909,6.6819,6.6819,6.6819,6.6789,6.67,6.664,6.664,6.664,6.6251,6.5802,6.5682,6.5353,6.4814,6.3887,6.3767,6.3767,6.3558,6.3498,6.3378,6.2989,6.3109,6.3109,6.2391,0.0,0.0,0.0,0.0,0.0,0.0,0.0,0.0,0.0,0.0,0.0,0.0,0.0,0.0,0.0,0.0,0.0,0.0,0.0,0.0,0.0,6.652,0.0,0.0,0.0,7.05,7.0889,7.0889,7.1607,7.2924,7.2924,7.3642,7.4809,7.3612,7.3013,7.2834,7.1577,7.1009,7.0889,7.0889,7.1308,7.1966,7.2654,7.3253,7.3821,5.5688,0.0,0.0,0.0,0.0,0.0,0.0,6.4186,6.4964,6.5922,6.5742,6.6131,6.7837,6.7119,6.652,6.652,6.655,6.64,6.6071,6.6011,6.5862,6.5562,6.5173,0.0,6.5024,6.3438,6.2121,6.1104,0.0,0.0,0.0,0.0,0.0,0.0,0.0,5.7034,0.0,0.0,0.0,6.3647,6.4635,6.5413,6.6071,6.6729,6.6999,6.6999,6.6999,6.6999,6.6999,6.6999,6.6999,6.6999,6.6999,6.6999,6.6999,6.6999,6.6759,6.652,6.652,6.6281,6.5892,6.5203,6.5054,6.4964,6.4605,6.4545,6.4455,6.4156,6.4336,6.4246,6.3258,6.281,0.0,0.0,0.0,0.0,0.0,0.0,0.0,0.0,0.0,0.0,0.0,0.0,0.0,0.0,0.0,0.0,0.0,0.0,0.0,0.0,0.0,0.0,0.0,0.0,0.0,7.0889,7.0889,7.1607,7.2924,7.2924,7.3642,7.4809,7.3851,7.3223,7.2804,7.1457,7.0889,7.0889,7.0889,7.1517,7.2445,7.2804,7.3552,7.445,0.0,5.8261,0.0,0.0,6.2839,0.0,6.5144,6.5922,6.6759,6.7657,6.652,6.652,6.8764,6.8046,6.7418,6.7418,6.7897,6.7956,6.7448,6.6789,6.643,6.643,6.5144,6.4605,6.5024,6.3887,6.263,0.0,0.0,0.0,0.0,0.0,0.0,0.0,0.0,0.0,0.0,0.0,6.2181,6.4276,6.4964,6.5622,6.6281,6.6789,6.6999,6.6999,6.6999,6.6999,6.6999,6.6999,6.6999,6.6999,6.6999,6.6999,6.6999,6.6999,6.6999,6.6999,6.6999,6.6999,6.6879,6.634,6.6221,6.6071,6.5562,6.5562,6.5592,6.5293,6.5114,6.4904,6.4515,6.4306,0.0,0.0,0.0,0.0,0.0,0.0,0.0,0.0,0.0,0.0,0.0,0.0,0.0,0.0,0.0,0.0,0.0,0.0,0.0,0.0,0.0,6.8435,6.9393,0.0,7.1427,7.0889,7.1038,7.1757,7.2924,7.3073,7.3762,7.4839,7.418,7.3432,7.2595,7.1398,7.0889,7.0889,7.0889,7.1727,7.2924,7.2924,7.3672,7.4689,0.0,0.0,0.0,0.0,0.0,0.0,6.5802,6.6969,6.7627,6.7148,6.7448,6.8016,6.8914,6.8884,6.8824,6.8824,6.8884,6.8884,6.8824,6.8166,6.7777,6.7777,6.652,6.5562,6.5054,6.4306,6.3288,0.0,0.0,0.0,0.0,0.0,0.0,0.0,0.0,0.0,0.0,6.3169,6.4126,6.4994,6.5652,6.6311,6.6909,6.6969,6.6999,6.6999,6.6999,6.6999,6.6999,6.6999,6.6999,6.6999,6.6999,6.6999,6.6999,6.6999,6.6999,6.6999,6.6999,6.6999,6.6969,6.6909,6.6909,6.6879,6.6819,6.7268,6.7358,6.6161,6.5443,6.5203,6.5712,6.5323,6.4874,0.0,0.0,0.0,0.0,0.0,0.0,0.0,0.0,0.0,0.0,0.0,0.0,0.0,0.0,0.0,0.0,0.0,0.0,6.6759,0.0,6.8854,7.0709,7.0889,7.0949,7.0919,7.1517,7.2176,7.2924,7.3522,7.421,7.4839,7.418,7.3163,7.1936,7.1188,7.0889,7.0889,7.0889,7.1727,7.2924,7.2924,7.3373,7.4061,0.0,0.0,0.0,0.0,0.0,0.0,0.0,6.8136,6.8166,6.8704,6.8675,6.8704,6.8974,6.9363,6.9423,6.9034,6.9363,6.9423,6.9034,6.8734,6.8585,6.8585,6.7298,6.646,6.6221,6.4755,6.3737,0.0,0.0,0.0,0.0,0.0,0.0,0.0,0.0,6.1642,6.3258,6.3378,6.4276,6.5652,6.5892,6.64,6.6999,6.6999,6.6999,6.6999,6.6999,6.6999,6.7059,6.7448,6.7328,6.6999,6.6999,6.6999,6.7059,6.7478,6.7567,6.7657,6.8076,6.8196,6.8196,6.8196,6.8196,6.8315,6.8704,6.9004,6.9034,6.8495,6.7238,6.6161,6.6041,6.6131,6.5951,0.0,0.0,0.0,0.0,0.0,0.0,0.0,0.0,0.0,0.0,0.0,0.0,0.0,0.0,0.0,0.0,0.0,0.0,6.8166,0.0,6.9512,7.1457,7.1487,7.1487,7.1487,7.1757,7.2235,7.2924,7.3582,7.424,7.4839,7.418,7.3373,7.2445,7.1787,7.1248,7.0949,7.1338,7.2086,7.2954,7.3343,7.3672,7.3941,6.5263,0.0,6.6311,0.0,6.8256,6.8824,6.9572,6.9213,6.9123,6.9871,6.9722,6.9572,6.9572,6.9961,7.0051,6.9602,6.9991,7.0051,6.9602,6.9393,6.9303,6.9303,6.8196,0.0,6.6999,6.5413,6.4306,6.3737,6.3468,0.0,0.0,6.1642,0.0,0.0,6.2091,6.272,6.4006,6.3947,6.4755,6.6041,6.643,6.6879,6.7298,6.7508,6.7597,6.7597,6.7597,6.7597,6.7657,6.8106,6.7956,6.7597,6.7597,6.7597,6.7657,6.8136,6.8256,6.8375,6.8854,6.9004,6.9004,6.9004,6.9123,6.9393,6.9871,7.026,7.053,7.053,6.9123,6.7717,6.7268,6.7388,6.7268,6.634,0.0,0.0,0.0,0.0,0.0,0.0,0.0,0.0,0.0,0.0,0.0,0.0,0.0,0.0,0.0,0.0,0.0,0.0,0.0,0.0,0.0,7.1876,7.1876,7.1876,7.2086,7.2535,7.3223,7.3881,7.442,7.4839,7.418,7.3522,7.2864,7.2176,7.1487,7.0979,7.1637,7.2295,7.2984,7.3432,7.3612,7.3612,6.8555,6.8405,6.8375,6.9722,6.9961,6.9752,6.9123,7.0081,7.0649,7.0051,7.05,7.0889,7.0889,7.0889,7.0889,7.0889,7.0889,7.0889,7.0889,7.032,6.9961,0.0,0.0,6.8345,6.7029,6.634,6.5024,6.3079,0.0,0.0,5.9159,5.9817,6.1164,6.3079,6.3707,6.3977,6.4096,6.5413,6.5981,6.6131,6.7418,6.7956,6.8046,6.8704,6.8974,6.8974,6.8974,6.8974,6.8974,6.9004,6.8974,6.8974,6.8974,6.8974,6.8974,6.9004,6.9004,6.9004,6.9004,6.9004,6.9004,6.9004,6.9453,6.9931,6.9961,7.0949,7.1876,7.1876,7.0829,6.9931,6.9931,6.9423,6.8974,6.8944,0.0,0.0,0.0,0.0,0.0,0.0,0.0,6.7208,6.7837,0.0,0.0,0.0,0.0,0.0,0.0,0.0,0.0,6.8974,6.9632,0.0,7.1876,7.1876,7.1876,7.1906,7.2565,7.3253,7.3911,7.4569,7.4869,7.4839,7.418,7.3522,7.2864,7.2176,7.1487,7.0979,7.1637,7.2295,7.2924,7.2924,7.2924,7.2924,7.0081,7.0111,7.026,7.1128,7.0919,7.0679,7.0919,7.056,7.035,7.059,7.0769,7.0889,7.0889,7.0889,7.0889,0.0,7.0889,7.0889,0.0,7.0709,7.062,7.062,7.0021,6.9482,6.9034,6.7926,6.6819,6.5742,0.0,0.0,0.0,6.3348,6.3797,6.4425,6.4605,6.4964,6.5413,6.6311,6.6939,6.7418,6.8315,6.8675,6.8704,6.8914,6.9004,6.9004,6.9004,6.9004,6.9064,6.9512,6.9662,6.9752,7.0171,6.9692,6.9093,6.9542,6.9662,6.9752,7.0171,7.029,7.041,7.0859,7.1098,7.1517,7.2445,7.2954,7.3133,7.2684,7.1517,7.047,7.0051,6.9453,6.9004,6.9004,6.8645,0.0,0.0,0.0,0.0,0.0,0.0,6.5742,0.0,6.6789,0.0,0.0,0.0,0.0,0.0,0.0,0.0,0.0,7.05,0.0,7.2565,7.2595,7.2595,7.2595,7.2804,7.3492,7.4569,7.4779,7.4869,7.4869,7.4659,7.418,7.3522,7.2864,7.2176,7.1637,7.2325,7.2445,7.2385,7.3762,7.3402,7.2265,7.1547,7.1667,7.1787,7.2206,7.1727,7.1398,7.1816,7.1009,7.047,7.0859,7.0889,7.0889,7.0889,7.0889,0.0,7.0889,7.0889,7.0889,7.0889,7.0889,7.0889,7.0889,7.053,7.0231,6.9991,0.0,0.0,6.7358,6.6939,6.667,6.652,6.652,6.637,6.6131,6.64,6.661,6.6789,6.7478,6.7986,6.8405,6.9093,6.9363,6.9393,6.9632,6.9722,6.9722,6.9722,6.9722,6.9782,7.0201,7.032,7.038,7.0769,7.035,6.9812,7.0201,7.032,7.041,7.0799,7.0889,7.1009,7.1427,7.1697,7.2176,7.3283,7.3732,7.3642,7.2714,7.2056,7.1398,7.05,6.9991,6.9722,6.9722,6.9303,6.8944,6.8734,0.0,0.0,0.0,0.0,0.0,0.0,6.6939,0.0,0.0,0.0,0.0,0.0,0.0,0.0,7.0201,7.0649,0.0,7.2146,7.2654,7.2924,7.2924,7.3402,7.4091,7.4869,7.4869,7.4869,7.4869,7.4731,7.4373,7.3851,7.3029,7.2305,7.1768,7.2588,7.2588,7.2216,7.3604,7.3343,7.2265,7.2864,7.2984,7.2984,0.0,7.2445,0.0,7.1966,7.1368,7.0889,7.0889,7.0889,7.0889,7.0889,7.0889,7.0889,7.0889,0.0,0.0,0.0,7.0889,7.0889,7.0889,7.0889,7.0649,7.0051,6.9393,6.8734,6.8046,6.8046,6.8375,6.9004,6.9004,6.8645,6.8076,6.8704,6.8645,6.8076,6.8764,6.9064,6.9123,6.9782,7.0051,7.0111,7.0679,7.0889,7.0889,7.0889,7.0889,7.0889,7.0889,7.0889,7.0889,7.0889,7.0889,7.0889,7.0889,7.0889,7.0889,7.0889,7.0889,7.0919,7.0949,7.1457,7.2116,7.2774,7.3402,7.3462,7.2206,7.2385,7.2415,7.1188,7.0859,7.0769,7.0829,6.9842,6.9273,6.9842,0.0,0.0,0.0,0.0,0.0,0.0,6.8166,6.6879,0.0,0.0,0.0,0.0,0.0,7.1098,6.9183,7.032,7.1009,7.1038,7.2325,7.2984,7.2984,7.427,7.4869,7.4869,7.4869,7.4869,7.48,7.4456,7.4168,7.3843,7.276,7.203,7.1585,7.2484,7.2626,7.2328,7.282,7.2894,7.2528,0.0,0.0,7.3821,7.433,7.3462,7.2684,7.2684,7.1667,7.0889,7.0889,7.0889,7.0889,7.0889,7.0889,7.0889,7.0889,7.0889,7.0889,7.0889,7.0889,7.0889,7.0889,7.0889,7.0829,7.0679,7.0081,6.9423,6.8764,6.8764,6.8824,6.9004,6.9004,6.8914,6.8764,6.8944,6.8914,6.8794,6.9482,6.9752,6.9812,7.044,7.0679,7.0709,7.0859,7.0889,7.0889,7.0889,7.0889,7.0889,7.0889,7.0889,7.0889,7.0889,7.0889,7.0889,7.0889,7.0889,7.0889,7.0889,7.0889,7.1009,7.1517,7.2176,7.2714,7.2864,7.3043,7.3043,7.2744,7.1996,7.1427,7.1607,7.044,6.9602,7.0111,6.9961,6.9632,6.9273,6.9393,0.0,0.0,6.9273,6.8854,6.8495,6.8016,6.8286,0.0,0.0,0.0,0.0,7.203,7.1702,7.05,7.1218,7.1906,7.2445,7.3253,7.3672,7.3672,7.4206,7.4594,7.4869,7.4594,7.4456,7.4456,7.4663,7.4573,7.4129,7.29,7.2565,7.2832,7.2573,7.1993,7.1398,7.3081,7.2484,7.1034,7.427,7.436,7.445,7.4809,7.4031,7.3253,7.2954,7.2026,7.1248,7.0949,7.0889,7.0889,7.0889,7.0889,7.0889,7.0889,7.0889,7.0889,7.0889,7.0889,7.0889,7.0889,7.0889,7.0889,7.0889,7.056,7.0231,6.9871,6.9871,6.9871,6.9871,6.9871,6.9871,6.9871,6.9871,6.9871,6.9901,7.026,7.041,7.044,7.0769,7.0889,7.0889,7.0889,7.0889,7.0889,7.0889,7.0889,7.0889,7.0889,7.0889,7.0889,7.0889,7.0889,7.0889,7.0889,7.0889,7.0889,7.0889,7.0889,7.0979,7.1338,7.1727,7.1996,7.1996,7.1996,7.1996,7.1996,7.1188,7.059,7.0949,6.9901,6.9213,6.9871,6.9722,6.9602,6.9842,6.9931,6.9842,6.9482,6.9453,6.9183,6.8495,6.8435,6.894,7.0092,7.0106,0.0,7.1889,7.2016,7.1821,7.1135,7.1897,7.2432,7.2626,7.3282,7.3691,7.3881,7.4001,7.4179,7.4387,7.4179,7.404,7.411,7.4318,7.4248,7.3951,7.262,7.2403,7.2739,7.2028,7.1588,7.1522,7.2417,7.2038,7.0962,7.4869,7.4869,7.4869,7.4869,7.433,7.3672,7.3013,7.2325,7.1637,7.0979,7.0889,7.0889,7.0889,7.0889,7.0889,7.0889,7.0889,7.0889,7.0889,7.0889,7.0889,7.0889,7.0889,7.0889,7.0889,7.0889,7.0889,7.0889,7.0889,7.0889,7.0889,7.0889,7.0889,7.0889,7.0889,7.0889,7.0889,7.0889,7.0889,7.0889,7.0889,7.0889,7.0889,7.0889,7.0889,7.0889,7.0889,7.0889,7.0889,7.0889,7.0889,7.0889,7.0889,7.0889,7.0889,7.0889,7.0889,7.0889,7.0889,7.0889,7.0889,7.0799,7.0829,7.0889,7.0769,7.0829,7.0889,7.0889,7.032,6.9871,6.9961,6.9363,6.9123,6.9991,6.9572,6.9602,7.0859,0.0,7.0111,7.0111,7.0111,6.9871,6.9213,6.918,6.9321,6.9535,6.9878,7.0439,7.1049,7.1644,7.1837,7.1651,7.2492,7.2856,7.2625,7.3121,7.3547,7.3761,7.3761,7.3761,7.3761,7.3761,7.372,7.3691,7.3761,7.379,7.3603,7.2366,7.2041,7.2233,7.1317,7.1395,7.1941,7.1584,7.1406,7.1276,7.4869,7.4869,7.4869,7.4869,7.433,7.3672,7.3013,7.2325,7.1637,7.0979,7.0889,7.0889,7.0889,7.0889,7.0889,7.0889,7.0889,7.0889,7.0889,7.0889,7.0889,7.0889,7.0889,7.0889,7.0889,7.0889,7.0889,7.0889,7.0889,7.0889,7.0889,7.0889,7.0889,7.0889,7.0889,7.0889,7.0889,7.0889,7.0889,7.0889,7.0889,7.0889,7.0889,7.0889,7.0889,7.0889,7.0889,7.0889,7.0889,7.0889,7.0889,7.0889,7.0889,7.0889,7.0889,7.0889,7.0889,7.0889,7.0889,7.0889,7.0769,7.026,7.05,7.0769,7.026,7.053,7.0889,7.0889,6.9961,6.9333,6.9871,6.8974,6.8704,7.047,7.0231,7.026,7.1547,0.0,7.0769,7.0769,7.0769,7.053,6.9901,7.0062,7.0159,7.0278,7.0489,7.1175,7.2434,7.2257,7.2383,7.29,7.3477,7.3819,7.4021,7.3833,7.3742,7.3761,7.3439,7.348,7.3761,7.3439,7.3298,7.3298,7.3621,7.3621,7.324,7.2449,7.2537,7.2935,7.1688,7.1101,7.0981,7.1272,7.0644,6.9734,7.4594,7.4731,7.4779,7.442,7.4091,7.3552,7.2505,7.2086,7.1637,7.0979,7.0889,7.0889,7.0889,7.0889,7.0889,7.0889,7.0889,7.0889,7.0889,7.0889,7.0889,7.0889,7.0889,7.0889,7.0889,7.0889,7.0889,7.0889,7.0889,7.0889,7.0889,7.0889,7.0889,7.0889,7.0889,7.0889,7.0889,7.0889,7.0889,7.0889,7.0889,7.0889,7.0889,7.0889,7.0889,7.0889,7.0889,7.0889,7.0889,7.0889,7.0889,7.0889,7.0889,7.0679,7.041,7.041,7.0649,7.0829,7.05,7.041,7.026,6.9602,6.9931,7.032,7.0051,7.0201,7.05,7.0829,6.9602,6.8764,6.9782,6.8884,6.8495,7.0141,7.0171,7.029,7.1218,7.1098,7.0889,7.0889,7.0889,7.0799,7.05,7.0772,7.0829,7.06,7.1086,7.1581,7.2204,7.2442,7.2596,7.2886,7.3327,7.3466,7.341,7.341,7.334,7.3128,7.2986,7.2986,7.3128,7.2986,7.2844,7.2915,7.3269,7.3269,7.2857,7.2426,7.2269,7.2274,7.0992,7.0563,7.0668,7.0359,6.9969,6.9593,7.4318,7.4525,7.4591,7.4001,7.3881,7.3432,7.2086,7.1876,7.1637,7.0979,7.0889,7.0889,7.0889,7.0889,7.0889,7.0889,7.0889,7.0889,7.0889,7.0889,7.0889,7.0889,7.0889,7.0889,7.0889,7.0889,7.0889,7.0889,7.0889,7.0889,7.0889,7.0889,7.0889,7.0889,7.0889,7.0889,7.0889,7.0889,7.0889,7.0889,7.0889,7.0889,7.0889,7.0889,7.0889,7.0889,7.0889,7.0889,7.0889,7.0889,7.0889,7.0889,7.0889,7.059,7.0201,7.0201,7.053,7.0739,6.9961,6.9752,6.9632,6.9123,6.9482,6.9991,6.9991,7.0081,7.032,7.0799,6.9602,6.8764,6.9782,6.9153,6.8884,7.0201,7.029,7.047,7.1248,7.1098,7.0889,7.0889,7.0889,7.0914,7.0998,7.1295,7.1406,7.112,7.163,7.1941,7.1917,7.2467,7.2672,7.2602,7.2915,7.2986,7.2773,7.309,7.3061,7.2602,7.2776,7.2776,7.2602,7.2602,7.2602,7.2631,7.2915,7.2915,7.2573,7.2362,7.2158,7.176,7.0482,7.0279,7.057,6.9632,6.9476,6.9854,7.4248,7.4318,7.4248,7.3933,7.3881,7.3432,7.2086,7.1876,7.1637,7.0979,7.0889,7.0889,7.0889,7.0889,7.0889,7.0889,7.0889,7.0889,7.0889,7.0889,7.0889,7.0889,7.0889,7.0889,7.0889,7.0889,7.0889,7.0889,7.0889,7.0889,7.0889,7.0889,7.0889,7.0889,7.0889,7.0889,7.0889,7.0889,7.0889,7.0889,7.0889,7.0889,7.0889,7.0889,7.0889,7.0889,7.0889,7.0889,7.0889,7.0889,7.0889,7.0889,7.0889,7.0859,7.0829,7.0829,7.0859,7.062,6.9423,6.9064,6.9064,6.9004,6.9482,6.9991,6.9991,7.041,7.0859,7.0889,7.032,6.9871,6.9961,6.9901,7.026,7.1547,7.1248,7.1278,7.2595,7.1697,7.0889,7.0889,7.0889,7.1028,7.1325,7.1576,7.1855,7.2098,7.2391,7.2557,7.2544,7.2615,7.2644,7.2602,7.2631,7.2844,7.3157,7.3456,7.324,7.2631,7.324,7.3211,7.2602,7.2602,7.2602,7.2602,7.2631,7.2631,7.2602,7.2573,7.2544,7.2427,7.115,7.0686,7.057,6.9632,6.9476,6.9854,7.3621,7.3831,7.3833,7.3319,7.3079,7.2619,7.1725,7.1416,7.1188,7.0949,7.0889,7.0889,7.0889,7.0889,7.0889,7.0889,7.0889,7.0889,7.0889,7.0889,7.0889,7.0889,7.0889,7.0889,7.0889,7.0889,7.0889,7.0889,7.0889,7.0889,7.0889,7.0889,7.0889,7.0889,7.0889,7.0889,7.0889,7.0889,7.0889,7.0889,7.0889,7.0889,7.0889,7.0889,7.0889,7.0889,7.0889,7.0889,7.0889,7.0889,7.0889,7.0889,7.0889,7.0649,7.026,6.9842,6.9722,6.9632,6.9123,6.9303,6.9512,6.9093,6.9482,6.9991,6.9991,7.047,7.0889,7.0889,7.041,7.0081,7.047,7.0231,7.026,7.1128,7.1068,7.1068,7.1607,7.1218,7.0889,7.0889,7.0724,7.0796,7.1347,7.1461,7.1698,7.2175,7.2466,7.2602,7.2602,7.2602,7.2602,7.2602,7.3008,7.3312,7.3456,7.3574,7.3472,7.324,7.3501,7.3269,7.2602,7.2602,7.2602,7.2602,7.2602,7.2602,7.2602,7.2602,7.2398,7.1934,7.1063,7.0482,7.0076,6.9719,6.969,6.9971,7.3228,7.3439,7.3415,7.2906,7.2501,7.212,7.1496,7.1106,7.0889,7.0889,7.0889,7.0889,7.0889,7.0889,7.0889,7.0889,7.0889,7.0889,7.0889,7.0889,7.0889,7.0889,7.0889,7.0889,7.0889,7.0889,7.0889,7.0889,7.0889,7.0889,7.0889,7.0889,7.0889,7.0889,7.0889,7.0889,7.0889,7.0889,7.0889,7.0889,7.0889,7.0889,7.0889,7.0889,7.0889,7.0889,7.0889,7.0889,7.0889,7.0889,7.0889,7.0889,7.0889,7.062,7.0171,6.9722,6.9602,6.9602,6.9602,6.9931,7.0111,6.9482,6.9662,7.0021,7.0231,7.059,7.0889,7.0889,7.056,7.041,7.0829,7.056,7.041,7.0829,7.0889,7.0889,7.0889,7.0889,7.0854,7.0789,7.0706,7.0895,7.131,7.1483,7.1783,7.2257,7.2511,7.2602,7.2602,7.2602,7.2602,7.2602,7.3269,7.3705,7.3908,7.4111,7.4024,7.3618,7.3792,7.3443,7.2602,7.2602,7.2602,7.2602,7.2602,7.2602,7.2602,7.2602,7.2369,7.1905,7.1266,7.0744,7.0337,7.0134,7.0192,7.0482,7.3157,7.3228,7.3093,7.2866,7.2531,7.212,7.1526,7.1106,7.0919,7.0889,7.0889,7.0889,7.0889,7.0889,7.0889,7.0889,7.0889,7.0889,7.0889,7.0889,7.0889,7.0889,7.0889,7.0889,7.0889,7.0889,7.0889,7.0889,7.0889,7.0889,7.0889,7.0889,7.0889,7.0889,7.0889,7.0889,7.0889,7.0889,7.0889,7.0889,7.0889,7.0889,7.0889,7.0889,7.0889,7.0889,7.0889,7.0889,7.0889,7.0889,7.0889,7.0889,7.0889,7.0889,7.0889,7.0889,7.0889,7.0889,7.0889,7.0889,7.0769,7.0141,6.9991,7.0141,7.0769,7.0889,7.0889,7.0889,7.0889,7.0889,7.0889,7.0889,7.0889,7.0889,7.0889,7.0889,7.0889,7.0889,7.0789,7.0462,7.0991,7.1406,7.1307,7.1853,7.2327,7.2573,7.2602,7.2602,7.2602,7.2602,7.2631,7.2631,7.3269,7.3908,7.4518,7.5185,7.4866,7.3618,7.4227,7.385,7.2602,7.2602,7.2602,7.2602,7.2602,7.2602,7.2602,7.2602,7.2602,7.2544,7.1934,7.1673,7.1586,7.0947,7.1121,7.1673,7.2773,7.2773,7.2857,7.3035,7.2866,7.2492,7.2082,7.1762,7.1427,7.0949,7.0889,7.0889,7.0889,7.0889,7.0889,7.0889,7.0889,7.0889,7.0889,7.0889,7.0889,7.0889,7.0889,7.0889,7.0889,7.0889,7.0889,7.0889,7.0889,7.0889,7.0889,7.0889,7.0889,7.0889,7.0889,7.0889,7.0889,7.0889,7.0889,7.0889,7.0889,7.0889,7.0889,7.0889,7.0889,7.0889,7.0889,7.0889,7.0889,7.0889,7.0889,7.0889,7.0889,7.0889,7.0889,7.0889,7.0889,7.0889,7.0889,7.0889,7.0859,7.0679,7.062,7.0679,7.0859,7.0889,7.0889,7.0889,7.0889,7.0889,7.0889,7.0889,7.0889,7.0889,7.0889,7.0889,7.0889,7.0889,7.0968,7.1116,7.0992,7.1217,7.1824,7.1907,7.2075,7.2573,7.2602,7.2602,7.2602,7.3066,7.3327,7.3327,7.4372,7.504,7.5214,7.5417,7.5069,7.4227,7.443,7.385,7.2602,7.2602,7.2602,7.2602,7.2602,7.2602,7.2602,7.2602,7.2602,7.2544,7.1934,7.1673,7.1644,7.1469,7.1498,7.1731,7.2602,7.2602,7.2702,7.2915,7.2882,7.2582,7.1972,7.1926,7.1571,7.0813,7.0854,7.0889,7.0889,7.0889,7.0889,7.0889,7.0889,7.0889,7.0889,7.0889,7.0889,7.0889,7.0889,7.0889,7.0889,7.0889,7.0889,7.0889,7.0889,7.0889,7.0889,7.0889,7.0889,7.0889,7.0889,7.0889,7.0889,7.0889,7.0889,7.0889,7.0889,7.0889,7.0889,7.0889,7.0889,7.0889,7.0889,7.0889,7.0889,7.0889,7.0889,7.0889,7.0889,7.0889,7.0889,7.0889,7.0889,7.0889,7.0889,7.0889,7.0889,7.0889,7.0889,7.0889,7.0889,7.0889,7.0889,7.0889,7.0889,7.0889,7.0889,7.0889,7.0889,7.0889,7.0889,7.0889,7.0889,7.0998,7.1129,7.1148,7.1285,7.1493,7.1936,7.2017,7.2195,7.2573,7.2602,7.2718,7.3008,7.3385,7.3734,7.3966,7.4982,7.5504,7.5504,7.5766,7.5417,7.4518,7.4518,7.385,7.2602,7.2602,7.2602,7.2602,7.2602,7.2602,7.2602,7.2602,7.2602,7.2573,7.2195,7.205,7.205,7.205,7.205,7.2108,7.2602,7.2602,7.2602,7.2631,7.2771,7.2532,7.1571,7.1748,7.1595,7.0641,7.0754,7.0889,7.0889,7.0889,7.0889,7.0889,7.0889,7.0889,7.0889,7.0889,7.0889,7.0889,7.0889,7.0889,7.0889,7.0889,7.0889,7.0889,7.0889,7.0889,7.0889,7.0889,7.0889,7.0889,7.0889,7.0889,7.0889,7.0889,7.0889,7.0889,7.0889,7.0889,7.0889,7.0889,7.0889,7.0889,7.0889,7.0889,7.0889,7.0889,7.0949,7.0979,7.0979,7.0979,7.0979,7.0979,7.0949,7.0889,7.0889,7.0889,7.0889,7.0889,7.0889,7.0889,7.0889,7.0889,7.0889,7.0889,7.0889,7.0889,7.0889,7.0889,7.0889,7.0889,7.0889,7.0889,7.0854,7.1159,7.1273,7.0931,7.1679,7.2094,7.183,7.2282,7.2602,7.2602,7.266,7.2979,7.3589,7.3734,7.4024,7.4576,7.5243,7.5592,7.5592,7.6172,7.5824,7.4547,7.4547,7.3879,7.2602,7.2602,7.2602,7.2602,7.2602,7.2602,7.2602,7.2602,7.2602,7.2602,7.2602,7.2602,7.2602,7.2602,7.2602,7.2602,7.2602,7.2602,7.2702,7.2986,7.3111,7.2999,7.2562,7.2362,7.1949,7.1258,7.1052,7.0889,7.0889,7.0889,7.0889,7.0889,7.0889,7.0889,7.0889,7.0889,7.0889,7.0889,7.0889,7.0889,7.0889,7.0889,7.0889,7.0889,7.0889,7.0889,7.0889,7.0889,7.0889,7.0889,7.0889,7.0889,7.0889,7.0889,7.0889,7.0889,7.0889,7.0889,7.0889,7.0889,7.0889,7.0889,7.0889,7.0889,7.0889,7.0889,7.1248,7.1667,7.1667,7.1667,7.1667,7.1667,7.1308,7.0889,7.0889,7.0889,7.0889,7.0889,7.0889,7.0889,7.0889,7.0889,7.0889,7.0889,7.0889,7.0889,7.0889,7.0889,7.0889,7.0889,7.0889,7.0854,7.0528,7.1027,7.1317,7.1239,7.1834,7.2269,7.2369,7.2544,7.2602,7.2602,7.3095,7.3472,7.3618,7.4576,7.5156,7.5301,7.5911,7.6259,7.6259,7.6479,7.5795,7.4518,7.4518,7.385,7.2602,7.2602,7.2602,7.2602,7.2602,7.2602,7.2602,7.2602,7.2602,7.2602,7.2602,7.2602,7.2602,7.2602,7.2602,7.2602,7.2602,7.2602,7.2702,7.2844,7.3199,7.3275,7.2599,7.2569,7.2254,7.1296,7.101,7.0824,7.0658,7.0759,7.0889,7.0889,7.0889,7.0889,7.0889,7.0889,7.0889,7.0889,7.0889,7.0889,7.0889,7.0889,7.0889,7.0889,7.0889,7.0889,7.0889,7.0889,7.0889,7.0889,7.0889,7.0889,7.0889,7.0889,7.0889,7.0889,7.0889,7.0889,7.0889,7.0889,7.0889,7.0889,7.0889,7.0889,7.0949,7.1278,7.1607,7.1936,7.2265,7.2385,7.2385,7.2385,7.1906,7.1368,7.1368,7.1128,7.0889,7.0889,7.0889,7.0889,7.0889,7.0889,7.0889,7.0889,7.0889,7.0889,7.0889,7.0889,7.0889,7.0889,7.0889,7.0878,7.0879,7.1303,7.1647,7.1746,7.2152,7.2466,7.2573,7.2602,7.2747,7.3066,7.3414,7.3879,7.4488,7.5156,7.565,7.594,7.6288,7.6538,7.6538,7.6538,7.5824,7.4547,7.4518,7.385,7.2602,7.2602,7.2602,7.2602,7.2602,7.2602,7.2602,7.2602,7.2602,7.2602,7.2602,7.2602,7.2602,7.2602,7.2602,7.2602,7.2602,7.2602,7.2602,7.2602,7.3128,7.3304,7.2467,7.2679,7.2432,7.1175,7.1027,7.0908,7.0462,7.0724,7.0889,7.0889,7.0889,7.0889,7.0889,7.0889,7.0889,7.0889,7.0889,7.0889,7.0889,7.0889,7.0889,7.0889,7.0889,7.0889,7.0889,7.0889,7.0889,7.0889,7.0889,7.0889,7.0889,7.0889,7.0889,7.0889,7.0889,7.0889,7.0889,7.0889,7.0889,7.0889,7.0889,7.0979,7.1158,7.1697,7.2026,7.2325,7.2894,7.3073,7.3073,7.3073,7.2595,7.2056,7.2056,7.1667,7.1218,7.1098,7.1068,7.1038,7.0919,7.0889,7.0889,7.0889,7.0889,7.0889,7.0889,7.0889,7.0949,7.1038,7.1003,7.1112,7.1399,7.1715,7.1924,7.2076,7.2437,7.2602,7.2602,7.2602,7.2892,7.356,7.3705,7.4285,7.5446,7.5621,7.5911,7.6433,7.6538,7.6538,7.6538,7.6538,7.5824,7.4547,7.4518,7.385,7.2602,7.2602,7.2602,7.2602,7.2602,7.2602,7.2602,7.2602,7.2602,7.2602,7.2602,7.2602,7.2602,7.2602,7.2602,7.2602,7.2602,7.2602,7.2602,7.2602,7.2673,7.2815,7.3011,7.2944,7.2571,7.1756,7.1711,7.1416,7.0522,7.0724,7.0889,7.0889,7.0889,7.0889,7.0889,7.0889,7.0889,7.0889,7.0889,7.0889,7.0889,7.0889,7.0889,7.0889,7.0889,7.0889,7.0889,7.0889,7.0889,7.0889,7.0889,7.0889,7.0889,7.0889,7.0889,7.0889,7.0889,7.0889,7.0889,7.0889,7.0889,7.0889,7.0889,7.1278,7.1757,7.1846,7.2654,7.3642,7.3732,7.3762,7.3762,7.3762,7.3283,7.2774,7.2774,7.2714,7.2505,7.1906,7.1757,7.1607,7.1038,7.0889,7.0889,7.0889,7.0889,7.0889,7.0889,7.0889,7.1098,7.1667,7.1523,7.1429,7.1715,7.1953,7.2046,7.1784,7.2224,7.2602,7.2602,7.2602,7.2892,7.356,7.4082,7.4721,7.5475,7.6027,7.6375,7.6538,7.6538,7.6538,7.6538,7.6538,7.5795,7.4518,7.4518,7.385,7.2602,7.2602,7.2602,7.2602,7.2602,7.2602,7.2602,7.2602,7.2602,7.2602,7.2602,7.2602,7.2602,7.2602,7.2602,7.2602,7.2602,7.2602,7.2602,7.2602,7.2773,7.2986,7.3157,7.2952,7.2483,7.1601,7.1592,7.1272,7.0193,7.0593,7.0889,7.0889,7.0889,7.0889,7.0889,7.0889,7.0889,7.0889,7.0889,7.0889,7.0889,7.0889,7.0889,7.0889,7.0889,7.0889,7.0889,7.0889,7.0889,7.0889,7.0889,7.0889,7.0889,7.0889,7.0889,7.0889,7.0889,7.0889,7.0889,7.0889,7.0889,7.0889,7.0889,7.1338,7.1936,7.2325,7.3103,7.3971,7.433,7.445,7.445,7.445,7.3971,7.3462,7.3462,7.3193,7.2834,7.2535,7.2445,7.2385,7.2086,7.2026,7.1816,7.1068,7.0889,7.1009,7.1398,7.1457,7.1721,7.2567,7.2544,7.2629,7.3011,7.2888,7.2619,7.2266,7.2456,7.2602,7.2602,7.295,7.3443,7.4082,7.4721,7.5359,7.5998,7.6317,7.6538,7.6538,7.6538,7.6538,7.6538,7.6538,7.5795,7.4518,7.4518,7.385,7.2602,7.2602,7.2602,7.2602,7.2602,7.2602,7.2602,7.2602,7.2602,7.2602,7.2602,7.2602,7.2602,7.2602,7.2602,7.2602]}]]